[[{"header":{"parameterUnit":"m.s-1","parameterCategory":1,"la1":30.6,"la2":29.2853,"lo1":-89.7004,"lo2":-87.6739,"dy":0.0162,"dx":0.0183,"nx":112,"ny":82,"refTime":"2023-10-09T00:00:00:Z","depth":0,"parameterNumber":2,"parameterNumberName":"U-component_of_WINDS"},"data":[0.0,0.0,0.0,0.0,0.0,0.0,0.0,0.0,0.0,0.0,0.0,0.0,0.0,0.0,0.0,0.0,0.0,0.0,0.0,0.0,0.0,0.0,0.0,0.0,0.0,0.0,0.0,0.0,0.0,0.0,0.0,0.0,0.0,0.0,0.0,0.0,0.0,0.0,0.0,0.0,0.0,0.0,0.0,0.0,0.0,0.0,0.0,0.0,0.0,0.0,0.0,0.0,0.0,0.0,0.0,0.0,0.0,0.0,0.0,0.0,0.0,0.0,0.0,0.0,0.0,0.0,0.0,0.0,0.0,0.0,0.0,0.0,0.0,0.0,0.0,0.0,0.0,0.0,0.0,0.0,0.0,0.0,0.0,0.0,0.0,0.0,0.0,0.0,0.0,0.0,3.5703,3.8066,4.123,4.3027,4.2656,4.1933,4.0351,3.7656,0.0,0.0,0.0,0.0,0.0,0.0,0.0,0.0,0.0,0.0,0.0,0.0,0.0,0.0,0.0,0.0,0.0,0.0,0.0,0.0,0.0,0.0,0.0,0.0,0.0,0.0,0.0,0.0,0.0,0.0,0.0,0.0,0.0,0.0,0.0,0.0,0.0,0.0,0.0,0.0,0.0,0.0,0.0,0.0,0.0,0.0,0.0,0.0,0.0,0.0,0.0,0.0,0.0,0.0,0.0,0.0,0.0,0.0,0.0,0.0,0.0,0.0,0.0,0.0,0.0,0.0,0.0,0.0,0.0,0.0,0.0,0.0,0.0,0.0,0.0,0.0,0.0,0.0,0.0,0.0,0.0,0.0,0.0,0.0,0.0,0.0,0.0,0.0,0.0,0.0,0.0,0.0,0.0,0.0,0.0,0.0,0.0,0.0,0.0,0.0,0.0,0.0,0.0,0.0,3.6543,3.9785,4.2226,4.3574,4.3516,4.1465,3.9668,3.8457,0.0,0.0,0.0,0.0,0.0,0.0,0.0,0.0,0.0,0.0,0.0,0.0,0.0,0.0,0.0,0.0,0.0,0.0,0.0,0.0,0.0,0.0,0.0,0.0,0.0,0.0,0.0,0.0,0.0,0.0,0.0,0.0,0.0,0.0,0.0,0.0,0.0,0.0,0.0,0.0,0.0,0.0,0.0,0.0,0.0,0.0,0.0,0.0,0.0,0.0,0.0,0.0,0.0,0.0,0.0,0.0,0.0,0.0,0.0,0.0,0.0,0.0,0.0,0.0,0.0,0.0,0.0,0.0,0.0,0.0,0.0,0.0,0.0,0.0,0.0,0.0,0.0,0.0,0.0,0.0,0.0,0.0,0.0,0.0,0.0,0.0,0.0,0.0,0.0,0.0,0.0,0.0,0.0,0.0,0.0,0.0,0.0,0.0,0.0,0.0,0.0,0.0,0.0,3.6309,3.8164,4.0918,4.2715,4.3711,4.3711,4.1562,3.9766,3.8652,3.6934,0.0,0.0,0.0,0.0,0.0,0.0,0.0,0.0,0.0,0.0,0.0,0.0,0.0,0.0,0.0,0.0,0.0,0.0,0.0,0.0,0.0,0.0,0.0,0.0,0.0,0.0,0.0,0.0,0.0,0.0,0.0,0.0,0.0,0.0,0.0,0.0,0.0,0.0,0.0,0.0,0.0,0.0,0.0,0.0,0.0,0.0,0.0,0.0,0.0,0.0,0.0,0.0,0.0,0.0,0.0,0.0,0.0,0.0,0.0,0.0,0.0,0.0,0.0,0.0,0.0,0.0,0.0,0.0,0.0,0.0,0.0,0.0,0.0,0.0,0.0,0.0,0.0,0.0,0.0,0.0,0.0,0.0,0.0,0.0,0.0,0.0,0.0,0.0,0.0,0.0,0.0,0.0,0.0,0.0,0.0,0.0,0.0,0.0,0.0,0.0,0.0,0.0,3.7988,3.959,4.1855,4.3066,4.3711,4.3711,4.166,3.9863,3.8652,3.6465,0.0,0.0,0.0,0.0,0.0,0.0,0.0,0.0,0.0,0.0,0.0,0.0,0.0,0.0,0.0,0.0,0.0,0.0,0.0,0.0,0.0,0.0,0.0,0.0,0.0,0.0,0.0,0.0,0.0,0.0,0.0,0.0,0.0,0.0,0.0,0.0,0.0,0.0,0.0,0.0,0.0,0.0,0.0,0.0,0.0,0.0,0.0,0.0,0.0,0.0,0.0,0.0,0.0,0.0,0.0,0.0,0.0,0.0,0.0,0.0,0.0,0.0,0.0,0.0,0.0,0.0,0.0,0.0,0.0,0.0,0.0,0.0,0.0,0.0,0.0,0.0,0.0,0.0,0.0,0.0,0.0,0.0,0.0,0.0,0.0,0.0,0.0,0.0,0.0,0.0,0.0,0.0,0.0,0.0,0.0,0.0,0.0,0.0,0.0,0.0,0.0,0.0,3.8613,4.0137,4.2715,4.3418,4.3711,4.3711,4.1387,3.9551,3.8633,3.6172,0.0,0.0,0.0,0.0,0.0,0.0,0.0,0.0,0.0,0.0,0.0,0.0,0.0,0.0,0.0,0.0,0.0,0.0,0.0,0.0,0.0,0.0,0.0,0.0,0.0,0.0,0.0,0.0,0.0,0.0,0.0,0.0,0.0,0.0,0.0,0.0,0.0,0.0,0.0,0.0,0.0,0.0,0.0,0.0,0.0,0.0,0.0,0.0,0.0,0.0,0.0,0.0,0.0,0.0,0.0,0.0,0.0,0.0,0.0,0.0,0.0,0.0,0.0,0.0,0.0,0.0,0.0,0.0,0.0,0.0,0.0,0.0,0.0,0.0,0.0,0.0,0.0,0.0,0.0,0.0,0.0,0.0,0.0,0.0,0.0,0.0,0.0,0.0,0.0,0.0,0.0,0.0,0.0,0.0,0.0,0.0,0.0,0.0,0.0,0.0,0.0,0.0,3.7625,3.886,4.2712,4.3457,4.3594,4.334,4.1445,3.9687,3.8262,0.0,0.0,0.0,0.0,0.0,0.0,0.0,0.0,0.0,0.0,0.0,0.0,0.0,0.0,0.0,0.0,0.0,0.0,0.0,0.0,0.0,0.0,0.0,0.0,0.0,0.0,0.0,0.0,0.0,0.0,0.0,0.0,0.0,0.0,0.0,0.0,0.0,0.0,0.0,0.0,0.0,0.0,0.0,0.0,0.0,0.0,0.0,0.0,0.0,0.0,0.0,0.0,0.0,0.0,0.0,0.0,0.0,0.0,0.0,0.0,0.0,0.0,0.0,0.0,0.0,0.0,0.0,0.0,0.0,0.0,0.0,0.0,0.0,0.0,0.0,0.0,0.0,0.0,0.0,0.0,0.0,0.0,0.0,0.0,0.0,0.0,0.0,0.0,0.0,0.0,0.0,0.0,0.0,0.0,0.0,0.0,0.0,0.0,0.0,0.0,0.0,0.0,3.6516,3.6738,3.8025,4.1808,4.2988,4.3398,4.3105,4.0684,3.8612,3.7315,0.0,0.0,0.0,0.0,0.0,0.0,0.0,0.0,0.0,0.0,0.0,0.0,0.0,0.0,0.0,0.0,0.0,0.0,0.0,0.0,0.0,0.0,0.0,0.0,0.0,0.0,0.0,0.0,0.0,0.0,0.0,0.0,0.0,0.0,0.0,0.0,0.0,0.0,0.0,0.0,0.0,0.0,0.0,0.0,0.0,0.0,0.0,0.0,0.0,0.0,0.0,0.0,0.0,0.0,0.0,0.0,0.0,0.0,0.0,0.0,0.0,0.0,0.0,0.0,0.0,0.0,0.0,0.0,0.0,0.0,0.0,0.0,0.0,0.0,0.0,0.0,0.0,0.0,0.0,0.0,0.0,0.0,0.0,0.0,0.0,0.0,0.0,0.0,0.0,0.0,0.0,0.0,0.0,0.0,0.0,0.0,0.0,0.0,0.0,0.0,0.0,0.0,3.4821,3.6142,3.7783,3.9988,4.1947,4.2985,4.2985,3.8943,3.6192,0.0,0.0,0.0,0.0,0.0,0.0,0.0,0.0,0.0,0.0,0.0,0.0,0.0,0.0,0.0,0.0,0.0,0.0,0.0,0.0,0.0,0.0,0.0,0.0,0.0,0.0,0.0,0.0,0.0,0.0,0.0,0.0,0.0,0.0,0.0,0.0,0.0,0.0,0.0,0.0,0.0,0.0,0.0,0.0,0.0,0.0,0.0,0.0,0.0,0.0,0.0,0.0,0.0,0.0,0.0,0.0,0.0,0.0,0.0,0.0,0.0,0.0,0.0,0.0,0.0,0.0,0.0,0.0,0.0,0.0,0.0,0.0,0.0,0.0,0.0,0.0,0.0,0.0,0.0,0.0,0.0,0.0,0.0,0.0,0.0,0.0,0.0,0.0,0.0,0.0,0.0,0.0,0.0,0.0,0.0,0.0,0.0,0.0,0.0,0.0,0.0,0.0,0.0,3.4227,3.349,3.3822,3.7183,3.8061,3.8184,3.7625,3.5416,3.3644,3.2742,0.0,0.0,0.0,0.0,0.0,0.0,0.0,0.0,0.0,0.0,0.0,0.0,0.0,0.0,0.0,0.0,0.0,0.0,0.0,0.0,0.0,0.0,0.0,0.0,0.0,0.0,0.0,0.0,0.0,0.0,0.0,0.0,0.0,0.0,0.0,0.0,0.0,0.0,0.0,0.0,0.0,0.0,0.0,0.0,0.0,0.0,0.0,0.0,0.0,0.0,0.0,0.0,0.0,0.0,0.0,0.0,0.0,0.0,0.0,0.0,0.0,0.0,0.0,0.0,0.0,0.0,0.0,0.0,0.0,0.0,0.0,0.0,0.0,0.0,0.0,0.0,0.0,0.0,0.0,0.0,0.0,0.0,0.0,0.0,0.0,0.0,0.0,0.0,0.0,0.0,0.0,0.0,0.0,0.0,0.0,0.0,0.0,0.0,0.0,0.0,0.0,0.0,3.1911,3.1323,3.171,3.4646,3.5616,3.5758,3.5312,3.3094,3.1405,3.0548,0.0,0.0,0.0,0.0,0.0,0.0,0.0,0.0,0.0,0.0,0.0,0.0,0.0,0.0,0.0,0.0,0.0,0.0,0.0,0.0,0.0,0.0,0.0,0.0,0.0,0.0,0.0,0.0,0.0,0.0,0.0,0.0,0.0,0.0,0.0,0.0,0.0,0.0,0.0,0.0,0.0,0.0,0.0,0.0,0.0,0.0,0.0,0.0,0.0,0.0,0.0,0.0,0.0,0.0,0.0,0.0,0.0,0.0,0.0,0.0,0.0,0.0,0.0,0.0,0.0,0.0,0.0,0.0,0.0,0.0,0.0,0.0,0.0,0.0,0.0,0.0,0.0,0.0,0.0,0.0,0.0,0.0,0.0,0.0,0.0,0.0,0.0,0.0,0.0,0.0,0.0,0.0,0.0,0.0,0.0,0.0,0.0,0.0,0.0,0.0,0.0,0.0,2.8703,2.9561,3.0594,3.2345,3.3835,3.4669,3.4604,3.1397,2.9189,2.8909,0.0,0.0,0.0,0.0,0.0,0.0,0.0,0.0,0.0,0.0,0.0,0.0,0.0,0.0,0.0,0.0,0.0,0.0,0.0,0.0,0.0,0.0,0.0,0.0,0.0,0.0,0.0,0.0,0.0,0.0,0.0,0.0,0.0,0.0,0.0,0.0,0.0,0.0,0.0,0.0,0.0,0.0,0.0,0.0,0.0,0.0,0.0,0.0,0.0,0.0,0.0,0.0,0.0,0.0,0.0,0.0,0.0,0.0,0.0,0.0,2.4274,2.5183,0.0,0.0,0.0,0.0,0.0,0.0,0.0,0.0,0.0,0.0,0.0,0.0,0.0,0.0,0.0,0.0,0.0,0.0,0.0,0.0,0.0,0.0,0.0,0.0,0.0,0.0,0.0,0.0,0.0,0.0,0.0,0.0,0.0,0.0,0.0,0.0,0.0,0.0,0.0,0.0,2.8362,2.8032,2.8043,2.9402,2.9843,2.9804,2.9381,2.8122,2.7193,2.6749,2.5634,0.0,0.0,0.0,0.0,0.0,0.0,0.0,0.0,0.0,0.0,0.0,0.0,0.0,0.0,0.0,0.0,0.0,0.0,0.0,0.0,0.0,0.0,0.0,0.0,0.0,0.0,0.0,0.0,0.0,0.0,0.0,0.0,0.0,0.0,0.0,0.0,0.0,0.0,0.0,0.0,0.0,0.0,0.0,0.0,0.0,0.0,0.0,0.0,0.0,0.0,0.0,0.0,0.0,0.0,0.0,0.0,0.0,0.0,0.0,2.3901,2.409,0.0,0.0,0.0,0.0,0.0,0.0,0.0,0.0,0.0,0.0,0.0,0.0,0.0,0.0,0.0,0.0,0.0,0.0,0.0,0.0,0.0,0.0,0.0,0.0,0.0,0.0,0.0,0.0,0.0,0.0,0.0,0.0,0.0,0.0,0.0,0.0,0.0,0.0,0.0,0.0,2.7291,2.7089,2.7281,2.8484,2.847,2.8203,2.7736,2.7161,2.6573,2.5999,2.5411,0.0,0.0,0.0,0.0,0.0,0.0,0.0,0.0,0.0,0.0,0.0,0.0,0.0,0.0,0.0,0.0,0.0,0.0,0.0,0.0,0.0,0.0,0.0,0.0,0.0,0.0,0.0,0.0,0.0,0.0,0.0,0.0,0.0,0.0,0.0,0.0,0.0,0.0,0.0,0.0,0.0,0.0,0.0,0.0,0.0,0.0,0.0,0.0,0.0,0.0,0.0,0.0,0.0,2.6265,2.6602,2.5474,2.7259,2.753,2.6466,2.501,2.4262,2.4048,2.3754,0.0,0.0,0.0,0.0,0.0,0.0,0.0,0.0,0.0,0.0,0.0,0.0,0.0,0.0,0.0,0.0,0.0,0.0,0.0,0.0,0.0,0.0,2.4756,2.4903,2.5358,2.5745,2.5745,0.0,0.0,0.0,0.0,0.0,0.0,0.0,0.0,0.0,0.0,0.0,2.6319,2.668,2.7255,2.8404,2.8243,2.7949,2.7642,2.7134,2.66,2.6066,2.5478,2.502,0.0,0.0,0.0,0.0,0.0,0.0,0.0,0.0,0.0,0.0,0.0,0.0,0.0,0.0,0.0,0.0,0.0,0.0,0.0,0.0,0.0,0.0,0.0,0.0,0.0,0.0,0.0,0.0,0.0,0.0,0.0,0.0,2.4532,2.5086,0.0,0.0,0.0,0.0,0.0,0.0,0.0,0.0,0.0,0.0,0.0,0.0,0.0,2.5349,2.5913,2.5968,2.6053,2.6052,2.661,2.6785,2.66,2.7136,2.7311,2.7134,2.6907,0.0,2.5264,2.497,0.0,0.0,0.0,0.0,0.0,0.0,0.0,0.0,0.0,0.0,0.0,0.0,0.0,0.0,0.0,0.0,0.0,0.0,0.0,0.0,0.0,0.0,2.5211,2.5972,2.6413,2.6653,2.6653,2.6026,2.5451,2.5451,2.5197,2.4957,0.0,0.0,0.0,0.0,0.0,0.0,2.6613,2.68,2.7175,2.8194,2.7936,2.7642,2.7348,2.7014,2.668,2.636,2.5785,2.4701,2.305,2.2333,0.0,0.0,0.0,0.0,0.0,0.0,0.0,0.0,0.0,0.0,0.0,0.0,0.0,0.0,0.0,0.0,0.0,0.0,0.0,0.0,0.0,0.0,0.0,0.0,0.0,0.0,0.0,0.0,0.0,2.3093,2.3486,2.3767,2.4118,2.3901,0.0,0.0,0.0,0.0,0.0,0.0,0.0,0.0,0.0,2.517,2.5464,2.5812,2.6199,2.636,2.6587,2.6881,2.7348,2.7655,2.7829,2.8136,2.835,2.8497,2.8337,2.7883,2.7161,2.6039,2.5157,2.4476,0.0,0.0,0.0,0.0,2.4222,2.4529,2.469,2.4756,2.4743,2.4703,0.0,0.0,0.0,0.0,0.0,0.0,0.0,2.4636,2.5224,2.5718,2.6159,2.6533,2.6854,2.7068,2.7068,2.6774,2.636,2.5865,2.5518,2.5317,2.5317,2.5211,0.0,0.0,0.0,2.5879,2.6707,2.6961,2.7348,2.8154,2.7883,2.7575,2.7295,2.6841,2.5964,2.4547,2.3853,2.2673,2.0669,2.0168,1.895,0.0,0.0,0.0,0.0,0.0,0.0,0.0,0.0,0.0,0.0,0.0,0.0,0.0,0.0,0.0,0.0,0.0,0.0,0.0,0.0,0.0,0.0,0.0,0.0,0.0,0.0,0.0,0.0,2.2672,2.3033,2.2954,2.346,2.3621,0.0,0.0,0.0,0.0,0.0,0.0,2.473,2.5317,2.5905,2.6573,2.6881,2.7175,2.7402,2.7615,2.7883,2.8177,2.8617,2.8938,2.9179,2.9392,2.9606,2.9806,2.9579,2.9285,2.8818,2.7188,2.6172,2.5598,2.5157,2.485,2.469,2.4903,2.5264,2.5665,2.5892,2.5959,2.5932,2.5705,2.5237,2.4716,2.4422,0.0,0.0,0.0,0.0,2.5451,2.6197,2.6667,2.7081,2.7241,2.7509,2.7696,2.7629,2.7549,2.7228,2.6346,2.5932,2.5718,2.5638,2.5558,0.0,2.5611,2.5879,2.6279,2.6867,2.7188,2.7575,2.8167,2.7816,2.7495,2.7281,2.616,2.473,2.3,2.1874,2.0309,1.8368,1.7951,1.6855,1.4846,0.0,0.0,0.0,0.0,0.0,0.0,0.0,0.0,0.0,0.0,0.0,0.0,0.0,0.0,0.0,0.0,0.0,0.0,0.0,0.0,0.0,0.0,0.0,0.0,0.0,0.0,0.0,0.0,0.0,2.2995,2.3647,0.0,0.0,0.0,0.0,2.4502,2.5077,2.5665,2.6253,2.6841,2.7511,2.81,2.8604,2.9312,3.0154,3.0181,3.0327,3.0608,3.0648,3.0675,3.0688,3.0702,3.0715,3.0728,3.0715,3.0381,2.9753,2.8537,2.7765,2.7148,2.7121,2.7108,2.7094,2.7108,2.7134,2.7161,2.7175,2.7175,2.7175,2.7161,2.676,2.6226,2.5932,2.5651,0.0,0.0,2.5905,2.6119,2.6974,2.7428,2.7802,2.8377,2.8738,2.8871,2.8604,2.831,2.7843,2.6947,2.6547,2.6253,2.5985,0.0,2.5611,2.597,2.6186,2.6573,2.7161,2.7495,2.7789,2.8194,2.7629,2.7281,2.7268,2.4664,2.3,2.291,2.0548,1.83,1.6397,1.5889,1.4785,1.2869,1.2587,0.0,0.0,0.0,0.0,0.0,0.0,0.0,0.0,0.0,0.0,0.0,0.0,0.0,0.0,0.0,0.0,0.0,0.0,0.0,0.0,0.0,0.0,0.0,0.0,0.0,0.0,0.0,0.0,2.4836,2.5638,0.0,2.5464,2.5438,2.5625,2.6012,2.6413,2.6987,2.7776,2.8551,2.9245,2.9833,3.0421,3.0889,3.1196,3.1209,3.1249,3.1356,3.1356,3.1356,3.1356,3.1356,3.1356,3.1356,3.1356,3.1129,3.0728,3.0301,2.9219,2.7899,2.7615,2.7428,2.7281,2.7468,2.7669,2.7939,2.8056,2.7989,2.7846,2.7388,2.7121,2.6894,2.66,2.6573,2.6667,2.6774,2.7149,2.7564,2.7989,2.835,2.8617,2.8831,2.8965,2.9005,2.8911,2.8804,2.8564,2.807,2.7415,2.6921,2.6814,2.6707,2.668,2.6787,2.6881,2.7094,2.7495,2.7468,2.7535,2.7829,2.6075,2.4808,2.4808,2.2065,1.9839,1.8505,1.7393,1.5898,1.3893,1.3627,1.3211,1.2583,1.1155,1.0369,0.0,0.0,0.0,0.0,0.0,0.0,0.0,0.0,0.0,0.0,0.0,0.0,0.0,0.0,0.0,0.0,0.0,0.0,0.0,0.0,0.0,0.0,0.0,0.0,0.0,2.5037,2.6066,2.636,2.7348,2.7816,2.7321,2.7281,2.7442,2.7843,2.823,2.8845,2.974,3.0341,3.0929,3.1517,3.1904,3.2158,3.2265,3.2265,3.2265,3.2251,3.2251,3.2251,3.2251,3.2251,3.2198,3.2104,3.2104,3.1891,3.1517,3.1517,3.0648,2.9373,2.8791,2.8484,2.8323,2.8417,2.8577,2.8778,2.8978,2.8845,2.8524,2.8136,2.7883,2.7682,2.7482,2.7495,2.7589,2.7696,2.8003,2.839,2.8791,2.9045,2.9219,2.9312,2.9339,2.9339,2.9339,2.9259,2.9138,2.8938,2.8177,2.7535,2.7428,2.7335,2.7228,2.7134,2.7281,2.7415,2.7402,2.6813,2.6344,2.6434,2.3958,2.2327,2.2327,1.9672,1.744,1.6052,1.5033,1.3868,1.2579,1.2501,1.2134,1.1473,0.9381,0.8335,0.8201,0.0,0.0,0.0,0.0,0.0,0.0,0.0,0.0,0.0,0.0,0.0,0.0,0.0,0.0,0.0,0.0,0.0,0.0,0.0,0.0,0.0,0.0,0.0,2.473,2.648,2.7669,2.7415,2.8684,2.9232,2.8449,2.8791,2.9379,2.9967,3.0528,3.1223,3.2091,3.2158,3.2425,3.2986,3.3013,3.316,3.3467,3.3467,3.3454,3.344,3.344,3.344,3.344,3.344,3.328,3.3013,3.3013,3.2679,3.2144,3.2131,3.1957,3.1597,3.0728,3.0381,3.0354,3.0047,2.9927,2.9913,2.9913,2.9726,2.9499,2.9499,2.9112,2.8644,2.8631,2.843,2.8341,2.8551,2.8644,2.8778,2.9352,2.9499,2.9566,2.9847,2.9913,2.9913,2.9913,2.9686,2.9486,2.9486,2.8764,2.8154,2.7776,2.7482,2.7201,2.6907,2.7266,0.0,2.6759,2.5322,2.4269,2.3927,2.154,1.9968,1.9968,1.7469,1.5896,1.5905,1.3664,1.2431,1.2437,1.236,1.1323,0.9233,0.724,0.6152,0.6075,0.0,0.0,0.0,0.0,0.0,0.0,0.0,0.0,0.0,0.0,0.0,0.0,0.0,0.0,0.0,0.0,0.0,0.0,0.0,0.0,0.0,2.5972,2.6854,2.6854,2.8083,2.9272,3.0047,3.1062,3.161,3.145,3.1289,3.1503,3.2091,3.2091,3.2358,3.3013,3.3267,3.3467,3.3627,3.3841,3.3988,3.4082,3.4082,3.4082,3.4068,3.4068,3.4068,3.4068,3.4068,3.4028,3.3935,3.3734,3.3414,3.304,3.2826,3.2438,3.1917,3.1249,3.0982,3.0929,3.0421,3.01,2.9913,2.9913,2.986,2.9793,2.9793,2.9686,2.9513,2.9312,2.9325,2.9406,2.9285,2.9392,2.9593,2.9753,2.9793,2.982,2.99,2.9913,2.9913,2.9913,2.9686,2.9486,2.9486,2.8938,2.8457,2.8377,2.811,2.7953,2.7789,2.6541,2.5397,2.5139,2.3117,2.1567,2.1344,1.8952,1.7423,1.7423,1.5043,1.3634,1.3829,1.1543,1.0329,1.0418,0.8894,0.7011,0.4898,0.4307,0.327,0.0,0.0,0.0,0.0,0.0,0.0,0.0,0.0,0.0,0.0,0.0,0.0,0.0,0.0,0.0,0.0,0.0,0.0,0.0,0.0,0.0,0.0,2.7535,2.8751,2.9606,3.0221,3.0969,3.2011,3.2826,3.3293,3.3293,3.3133,3.3173,3.3521,3.3387,3.3494,3.3948,3.4042,3.4175,3.4429,3.4482,3.4563,3.4683,3.4683,3.4683,3.4683,3.4683,3.4683,3.4683,3.4683,3.4549,3.4309,3.4148,3.3814,3.34,3.3227,3.2879,3.2398,0.0,0.0,0.0,0.0,3.0167,2.9913,2.9913,2.9913,2.9913,2.9913,2.9913,2.9887,2.9713,2.978,2.9887,2.9713,2.978,2.9913,2.9913,2.9913,2.9913,2.9913,2.9913,2.9913,2.9913,2.978,2.9353,2.8232,2.7661,0.0,2.5882,2.6252,2.6368,2.5216,2.4005,2.3021,2.2666,2.0577,1.9004,1.8806,1.6554,1.502,1.502,1.3669,0.0,0.0,0.0,0.9082,0.8254,0.6129,0.0,0.0,0.0,0.1178,0.0,0.0,0.0,0.0,0.0586,0.0,0.0,0.0,0.0,0.0,0.0,0.0,0.0,0.0,0.0,0.0,0.0,0.0,0.0,0.0,0.0,0.0,2.9179,3.0515,3.2465,3.2545,3.2679,3.3427,3.4042,3.4402,3.4376,3.4376,3.4402,3.4456,3.4402,3.4509,3.4843,3.4576,0.0,0.0,0.0,3.4937,3.5191,3.5191,3.5191,3.5191,3.5191,3.5191,3.5191,3.4874,3.4569,3.4362,3.4013,3.3682,3.3454,3.3387,3.3146,3.2759,3.1971,3.1463,3.1116,3.0568,3.0167,2.9913,2.9913,0.0,0.0,2.9913,2.9913,2.9913,2.9913,2.9913,2.9913,2.9913,2.9913,2.9913,2.9913,2.9913,2.9824,2.9541,2.9451,2.9451,2.9092,2.9053,2.8322,2.5967,2.5341,2.4271,2.1761,2.2935,2.3488,2.1214,2.0737,2.0398,1.9897,1.8016,1.661,1.6262,1.4423,0.0,1.2893,1.2781,1.1733,0.9384,0.9054,0.7913,0.5709,0.3749,0.2781,0.2781,0.0947,-0.0174,-0.0436,-0.0437,-0.0615,-0.0887,-0.0261,-0.0173,0.0,0.0,0.0,0.0,0.0,0.0,0.0,0.0,0.0,0.0,0.0,0.0,0.0,0.0,0.0,2.9339,3.0915,3.2425,3.3788,3.4135,3.4229,3.4148,3.467,3.4937,3.4696,3.4683,3.487,3.5338,3.4937,3.491,3.5431,3.5191,3.5084,3.5191,3.5137,3.5137,3.5191,3.5191,3.5191,3.5191,3.5191,0.0,3.5085,3.2798,3.2834,3.4552,3.1971,3.2006,3.3761,3.3267,3.2612,3.1904,3.173,3.1343,3.0835,3.0488,3.0167,2.9913,2.9913,2.9913,2.9913,2.9913,2.9913,2.9913,2.9913,2.9913,0.0,2.9913,2.9913,2.9913,2.9913,2.9913,2.9362,2.7431,2.6876,2.6411,2.4398,2.378,2.3438,2.2934,2.2511,2.1429,1.9106,2.0501,2.1729,2.116,1.9465,1.8084,1.7855,1.5784,1.423,1.4073,1.3728,1.2778,1.0824,1.0724,0.9651,0.7433,0.5557,0.3509,0.1286,0.0861,0.0605,0.0605,0.0175,-0.0972,-0.3026,-0.3052,-0.4165,-0.6024,-0.1883,-0.1073,0.0,0.0,0.0,0.0,0.0,0.0,0.0,0.0,0.0,0.0,0.0,2.5919,2.6507,0.0,2.9513,3.0996,3.2225,3.336,3.4402,3.479,3.4923,3.4776,3.5017,3.5137,3.499,3.4977,3.5097,3.5391,3.5137,3.511,3.5404,3.5271,3.5191,3.5191,3.3778,3.3778,3.5191,3.2267,3.1604,3.3023,3.1497,3.0858,3.0846,2.9337,2.931,3.0353,2.8711,2.8569,2.9648,2.899,2.8426,2.7921,2.7617,2.8002,2.8863,3.003,2.943,2.8076,2.8076,2.8899,2.9734,2.8436,2.8899,2.9913,2.9913,2.9913,2.9644,2.8436,2.8076,2.7792,2.6502,2.6229,2.5866,2.4671,2.4398,2.4021,2.2739,2.2373,2.1888,2.0608,2.015,1.9186,1.6775,1.7145,1.7777,1.778,1.6665,1.5721,1.5546,1.4451,1.3682,1.3532,1.2536,1.1498,1.0294,0.8065,0.6197,0.5107,0.2862,0.1129,0.0087,0.0,-0.0615,-0.1852,-0.1872,-0.315,-0.5719,-0.566,-0.6345,-0.7514,-0.4965,-0.4499,0.0,0.0,0.0,0.0,0.0,0.0,0.0,2.4382,2.501,2.5491,2.656,2.7736,2.8764,2.9753,3.0955,3.2545,3.3307,3.3961,3.4736,3.5044,3.5191,3.5191,3.5191,3.5191,3.5191,3.5191,3.5217,3.5271,3.5231,3.5217,3.5271,3.4676,3.4319,3.4319,3.1604,3.1166,3.346,2.8908,2.7715,2.9979,2.7607,2.6529,2.6519,2.5939,2.581,2.6008,2.5852,2.5579,2.5182,2.4115,2.3899,2.3951,2.2793,2.3572,2.5512,2.7945,2.7433,2.5491,2.5491,2.6785,2.8166,2.6139,2.6876,2.8436,2.8436,2.8436,2.8076,2.6048,2.5491,2.5036,2.3014,2.2464,2.2372,2.1912,2.182,2.1636,2.1175,2.1083,2.0483,1.8317,1.79,1.7186,1.5034,1.4611,1.4475,1.436,1.419,1.4027,1.3899,1.3422,1.3107,1.2997,1.0945,0.9462,0.9047,0.514,0.2618,0.2618,0.0963,-0.0263,-0.0702,-0.0709,-0.1967,-0.45,-0.4546,-0.5778,-0.8312,-0.8328,-0.8559,-0.9093,-0.9093,-0.8812,2.2044,2.2124,2.2512,2.3086,2.3861,2.469,0.0,2.652,2.7321,2.7388,2.8564,2.9686,3.0087,3.1303,3.2572,3.3574,3.4229,3.4736,3.5097,3.5177,3.5191,3.5191,3.5191,3.5191,3.5191,3.5191,3.5311,3.5565,3.5338,3.5311,3.5565,3.2923,3.1379,3.1379,2.8575,2.7176,2.75,2.6853,2.6637,2.6961,2.6637,2.6529,2.6411,2.3755,2.3768,2.5872,2.5467,2.5043,2.4428,2.1886,2.1842,2.3094,2.0584,1.9628,2.0103,2.2504,2.3229,2.3025,2.2923,2.3106,2.3289,2.3014,2.3106,2.3289,2.3289,2.3289,2.3289,2.3014,2.2923,2.2831,2.2556,2.2464,2.2004,1.9789,1.9326,1.8685,1.6479,1.6018,1.5917,1.5622,1.5517,1.5285,1.4767,1.4611,1.4509,1.4489,1.4251,1.4061,1.4048,1.2089,1.0714,1.0704,0.8627,0.652,0.4542,0.1875,0.0358,0.0358,0.018,-0.0997,-0.3257,-0.3381,-0.4593,-0.716,-0.7141,-0.8393,-1.1011,-1.0924,-1.2112,-1.4397,-1.4397,-1.3163,2.2512,2.2966,2.3554,2.3981,2.5144,2.6306,2.6854,2.7883,2.8885,2.9392,3.0541,3.1583,3.2051,3.2933,3.3761,3.4309,3.4603,3.4321,3.2867,3.2555,3.2344,3.1904,3.212,3.3104,3.5058,3.5191,3.5244,3.5364,3.3736,3.2742,3.2853,3.0037,2.836,2.836,2.5556,2.4797,2.6519,2.3175,2.2311,2.3937,2.2209,2.1347,2.1437,2.0085,2.0016,2.0898,2.0645,2.0269,1.9727,1.8559,1.8428,1.8809,1.7593,1.6949,1.735,2.113,2.1636,2.0437,2.0437,2.136,2.228,2.0899,2.136,2.2464,2.2464,2.2464,2.2188,2.0806,2.0437,2.0067,1.86,1.8228,1.7957,1.7032,1.6752,1.6479,1.5462,1.5181,1.516,1.5072,1.5011,1.4923,1.4767,1.4611,1.4054,1.2603,1.2266,1.2126,1.2051,0.9947,0.7952,0.658,0.5541,0.4054,0.1733,0.0548,-0.0639,-0.2099,-0.2199,-0.3395,-0.5861,-0.5977,-0.7207,-0.9755,-0.9795,-1.1061,-1.3578,-1.3633,-1.414,-1.5181,-1.5181,-1.461,2.2241,2.2578,2.2843,2.396,2.4987,2.5773,2.6265,2.7315,2.8316,2.914,2.9921,3.0715,3.1187,3.1713,3.2074,3.2349,3.2461,3.1822,2.9957,2.9437,2.9062,2.8585,2.8734,2.9756,3.2299,3.3311,3.3912,3.3989,3.1284,2.9658,2.9658,2.6961,2.5339,2.5339,2.2538,2.1983,2.4145,2.0027,1.8928,2.0951,1.8667,1.7684,1.7738,1.7589,1.7419,1.7229,1.7161,1.6876,1.6463,1.6415,1.6157,1.5778,1.5588,1.5445,1.5804,1.9201,1.9427,1.7856,1.7856,1.9056,2.0261,1.8499,1.9056,2.0529,2.0529,2.0529,2.0168,1.8406,1.7856,1.7491,1.5643,1.5181,1.5181,1.5181,1.5181,1.5181,1.5181,1.5153,1.5092,1.4991,1.4936,1.4671,1.3782,1.3578,1.2681,1.0201,0.9241,0.8905,0.9453,0.7577,0.5224,0.2817,0.2645,0.165,-0.0832,-0.1018,-0.2126,-0.4707,-0.481,-0.6019,-0.8508,-0.8624,-0.9874,-1.2387,-1.2486,-1.3373,-1.5181,-1.5181,-1.5181,-1.5181,-1.5181,-1.5208,2.0677,2.0047,1.9304,2.2445,2.247,2.1938,2.2704,2.3858,2.481,2.5273,2.5488,2.5673,2.6106,2.6167,2.6249,2.6474,2.6689,2.6735,2.6637,2.628,2.6068,2.6058,2.5581,2.5454,2.5901,2.8763,3.0681,3.1035,2.8253,2.6627,2.6627,2.3937,2.2328,2.2328,1.95,1.8088,1.8184,1.7977,1.7902,1.7759,1.765,1.7575,1.7433,1.7277,1.7046,1.6775,1.6924,1.6734,1.6307,1.6157,1.592,1.5615,1.5316,1.5194,1.5187,1.5368,1.5368,1.5275,1.5275,1.5368,1.5368,1.5368,1.5368,1.5462,1.5462,1.5462,1.5368,1.5368,1.5275,1.5275,1.5181,1.5181,1.5181,1.5181,1.5181,1.5181,1.5181,1.5072,1.4977,1.497,1.4848,1.3958,1.1448,1.0971,1.0116,0.7606,0.5276,0.4651,0.6875,0.5141,0.282,0.0365,0.0092,-0.0925,-0.3509,-0.3694,-0.4799,-0.7367,-0.7532,-0.8598,-1.1212,-1.1319,-1.2516,-1.4986,-1.508,-1.508,-1.5181,-1.5181,-1.5181,-1.5181,-1.5181,-1.5262,1.907,1.9724,2.0308,2.1746,2.2625,2.3384,2.3829,2.4595,2.5216,2.5434,2.5165,2.4929,2.5057,2.5022,2.5095,2.5521,2.584,2.555,2.3808,2.3232,2.278,2.2129,2.2086,2.2731,2.4329,2.619,2.7413,2.7866,2.5127,2.3584,2.3611,2.0905,1.9383,1.9383,1.8412,1.786,1.786,1.786,1.7792,1.765,1.7548,1.7419,1.727,1.7216,1.7134,1.7032,1.689,1.6686,1.6429,1.6185,1.5906,1.5615,1.5411,1.5269,1.5181,1.5181,1.5181,1.5181,1.5181,1.5181,1.5181,1.5181,1.5181,1.5181,1.5181,1.5181,1.5181,1.5181,1.5181,1.5181,1.5181,1.5181,1.5181,1.5181,1.5181,1.5153,1.5065,1.5004,1.4909,1.4706,1.3338,1.1899,1.0968,0.9424,0.7535,0.51,0.414,0.3348,0.2534,0.1736,0.0923,0.0093,-0.1491,-0.2899,-0.3764,-0.5362,-0.7427,-0.996,-1.0085,-1.1235,-1.3784,-1.3921,-1.4328,-1.5181,-1.5181,-1.5228,-1.5337,-1.5337,-1.5384,-1.5486,-1.5486,-1.5513,1.7851,1.8479,1.9118,2.0618,2.129,2.1616,2.188,2.2222,2.2546,2.2454,2.1876,2.1347,2.1339,2.1176,2.1139,2.1514,2.1904,2.1669,2.0215,1.9759,1.9316,1.8808,1.8752,1.947,2.0995,2.1795,2.2866,2.4423,2.1968,2.0418,2.0591,1.8818,1.786,1.786,1.786,1.7846,1.7792,1.7792,1.7684,1.7487,1.7277,1.7127,1.7032,1.6978,1.6924,1.6863,1.6673,1.6476,1.6266,1.6022,1.5778,1.554,1.5391,1.5269,1.5181,1.5181,1.5181,1.5181,1.5181,1.5181,1.5181,1.5181,1.5181,1.5181,1.5181,1.5181,1.5181,1.5181,1.5181,1.5181,1.5181,1.5147,1.512,1.5167,1.5147,1.5099,1.5059,1.5004,1.4633,1.3515,1.1972,1.0278,0.8501,0.6128,0.4054,0.2535,0.2278,0.1737,0.0182,-0.083,-0.1398,-0.1314,-0.3667,-0.5565,-0.6453,-0.7974,-1.0059,-1.2616,-1.2716,-1.3475,-1.5087,-1.5235,-1.5262,-1.5262,-1.5316,-1.586,-1.6899,-1.6899,-1.7429,-1.8392,-1.8552,-1.8616,1.6911,1.6621,1.6032,1.9115,1.841,1.7073,1.7338,1.7168,1.6904,1.6707,1.5954,1.5276,1.5113,1.4862,1.4746,1.4936,1.5371,1.5893,1.6483,1.609,1.594,1.6483,1.6049,1.5811,1.6069,1.6232,1.7603,2.0836,1.8811,1.748,1.765,1.7792,1.786,1.786,1.786,1.7792,1.765,1.7629,1.748,1.7188,1.689,1.6748,1.6748,1.6585,1.6435,1.6307,1.6293,1.6123,1.5839,1.5689,1.554,1.5398,1.5242,1.5181,1.5181,1.5181,1.5181,1.5181,1.5181,1.5181,1.5181,1.5181,1.5181,1.5181,1.5181,1.5181,1.5181,1.5181,1.5181,1.5181,1.5174,1.5072,1.5004,1.5126,1.5059,1.4997,1.4939,1.4865,1.4018,1.148,1.0737,0.9007,0.4238,0.1557,0.0,-0.0185,-0.0185,-0.0185,-0.0183,-0.2318,-0.3842,-0.3936,-0.6232,-0.8731,-1.1197,-1.1485,-1.2622,-1.5087,-1.5187,-1.5194,-1.5194,-1.5431,-1.5609,-1.5609,-1.5849,-1.7254,-1.9724,-1.9733,-2.0974,-2.3463,-2.3783,-2.3998,1.5533,1.6146,1.653,1.7493,1.7502,1.727,1.7127,1.6856,1.6435,1.573,1.4869,1.4129,1.3756,1.381,1.4143,1.4855,1.5716,1.6503,1.7107,1.7161,1.7066,1.6883,1.6727,1.6537,1.6279,1.6381,1.6865,1.7811,1.7495,1.7412,1.7792,1.7846,1.786,1.786,1.786,1.7792,1.765,1.7419,1.727,1.7188,1.689,1.6748,1.6741,1.6483,1.6341,1.63,1.6069,1.5927,1.5832,1.5574,1.5445,1.5398,1.5242,1.5181,1.5181,1.5181,1.5181,1.5181,1.5181,1.5181,1.5181,1.5181,1.5181,1.5181,1.5181,1.5181,1.5181,1.5181,1.5181,1.516,1.5052,1.4997,1.495,1.4869,1.4828,1.4251,1.242,1.1943,1.1156,0.8608,0.6712,0.4508,0.1446,0.0451,-0.0633,-0.2554,-0.285,-0.2869,-0.2789,-0.3385,-0.4545,-0.6432,-0.8908,-1.0725,-1.1385,-1.3093,-1.4516,-1.5181,-1.5289,-1.535,-1.535,-1.7383,-1.8415,-1.8415,-2.0357,-2.1782,-2.2595,-2.2847,-2.3304,-2.4058,-2.438,-2.4612,1.5757,1.6402,1.6904,1.7121,1.7148,1.7012,1.6585,1.6151,1.5588,1.4685,1.3838,1.318,1.2922,1.3071,1.3464,1.417,1.5099,1.5995,1.6727,1.691,1.6992,1.7066,1.7019,1.6856,1.653,1.6693,1.6849,1.6937,1.71,1.7358,1.7758,1.7826,1.786,1.786,1.786,1.7758,1.7548,1.7249,1.7066,1.6998,1.6761,1.6578,1.6449,1.6218,1.6076,1.6001,1.5764,1.5655,1.5642,1.5404,1.5309,1.5303,1.5215,1.5181,1.5181,1.5181,1.5181,1.5181,1.5181,1.514,1.5086,1.5086,1.5086,1.5079,1.5011,1.5038,1.5072,1.5004,1.5079,1.5133,1.4923,1.4916,1.4652,1.348,1.3169,1.2523,1.0032,0.9482,0.8732,0.6133,0.3645,0.1545,0.0273,-0.0909,-0.2188,-0.3588,-0.472,-0.5869,-0.6958,-0.7096,-0.769,-0.9109,-1.1574,-1.3093,-1.3093,-1.4422,-1.5671,-1.6943,-1.7041,-1.7694,-1.8897,-2.0497,-2.1352,-2.1352,-2.2971,-2.4383,-2.5678,-2.6015,-2.6789,-2.7928,-2.8282,-2.8398,1.6748,1.7039,1.7121,1.7338,1.7053,1.6551,1.5913,1.5276,1.4563,1.3668,1.2929,1.244,1.244,1.2603,1.2901,1.3437,1.4238,1.512,1.6042,1.6205,1.6483,1.7168,1.7161,1.7039,1.6883,1.7087,1.7229,1.7249,1.7216,1.7338,1.7663,1.7792,1.786,1.7826,1.7812,1.767,1.7392,1.7093,1.6883,1.6748,1.6578,1.6347,1.6076,1.5906,1.5744,1.5601,1.5445,1.5377,1.5371,1.5235,1.5181,1.5181,1.5181,1.5181,1.5181,1.516,1.5167,1.5174,1.514,1.5059,1.497,1.497,1.4957,1.4916,1.4808,1.4848,1.4923,1.4828,1.497,1.5092,1.4814,1.4559,1.3961,1.1679,1.0912,0.9999,0.7625,0.6803,0.598,0.3685,0.129,-0.0461,-0.0462,-0.2583,-0.4438,-0.4765,-0.6733,-0.9007,-1.1564,-1.1579,-1.1485,-1.1862,-1.3852,-1.5181,-1.5181,-1.557,-1.6755,-1.9133,-1.9655,-2.0998,-2.3388,-2.3994,-2.431,-2.4342,-2.503,-2.6517,-2.88,-2.9063,-3.0403,-3.271,-3.2906,-3.304,1.7005,1.7338,1.7487,1.7283,1.6897,1.6341,1.5493,1.4645,1.3783,1.2881,1.24,1.2135,1.2135,1.2461,1.3037,1.3987,1.4685,1.5466,1.649,1.6842,1.7141,1.7521,1.765,1.765,1.7507,1.7426,1.7433,1.7561,1.7338,1.7378,1.7812,1.7846,1.7812,1.7684,1.7561,1.7412,1.7236,1.6937,1.6775,1.6748,1.6476,1.6252,1.6076,1.5798,1.5594,1.5445,1.5289,1.5221,1.5221,1.5194,1.5181,1.5181,1.5181,1.5181,1.5167,1.5052,1.5079,1.5147,1.4903,1.4882,1.497,1.497,1.4882,1.4801,1.4903,1.4862,1.4828,1.5045,1.5059,1.497,1.4787,1.3279,1.1668,1.1004,0.925,0.7204,0.4819,0.2736,0.1187,0.0731,-0.1269,-0.2979,-0.3097,-0.5192,-0.7509,-0.979,-1.0468,-1.1631,-1.4215,-1.2716,-1.2239,-1.4328,-1.4899,-1.5181,-1.5181,-1.7248,-1.8834,-1.9236,-2.1612,-2.3229,-2.3932,-2.6219,-2.7536,-2.7842,-3.002,-3.1367,-3.1868,-3.2156,-3.2498,-3.2906,-3.32,-3.3334,1.7399,1.7595,1.7555,1.7175,1.6564,1.5784,1.4726,1.3851,1.303,1.221,1.1932,1.1857,1.1932,1.2372,1.2942,1.3607,1.4278,1.5059,1.6035,1.6429,1.6815,1.7351,1.7541,1.7575,1.7426,1.7419,1.7419,1.7412,1.7419,1.7555,1.7846,1.7792,1.7684,1.7534,1.7385,1.7229,1.708,1.6863,1.6673,1.6517,1.6293,1.6069,1.5845,1.5622,1.5438,1.5289,1.5215,1.5181,1.5181,1.5181,1.5181,1.5181,1.5181,1.514,1.5065,1.4997,1.5011,1.5038,1.4814,1.4787,1.4848,1.4848,1.4801,1.4726,1.4645,1.4733,1.4579,1.326,1.2992,1.2754,1.1115,1.0036,0.8944,0.7373,0.5186,0.3139,0.1984,0.0813,-0.0362,-0.1626,-0.2785,-0.404,-0.5442,-0.7747,-0.9835,-1.1197,-1.2486,-1.3777,-1.508,-1.5247,-1.524,-1.5181,-1.6459,-1.7342,-1.7342,-1.9835,-2.2065,-2.3496,-2.5066,-2.6619,-2.8234,-2.97,-3.0606,-3.0745,-3.2091,-3.2772,-3.2772,-3.3066,-3.32,-3.3213,-3.3521,-3.3654,1.7623,1.7704,1.7534,1.7053,1.6205,1.5194,1.4055,1.3166,1.24,1.1755,1.1619,1.166,1.1803,1.2244,1.2705,1.3071,1.3654,1.4394,1.5364,1.5778,1.6266,1.7005,1.729,1.7372,1.7249,1.7317,1.7338,1.7249,1.7467,1.767,1.7812,1.7684,1.7528,1.7378,1.7222,1.708,1.6931,1.6714,1.649,1.6259,1.6076,1.5845,1.5588,1.5466,1.5323,1.5181,1.5181,1.5181,1.5181,1.5181,1.5181,1.5181,1.5181,1.5113,1.5011,1.4943,1.4964,1.4984,1.4767,1.4713,1.4642,1.4056,1.4211,1.452,1.3809,1.3861,1.3492,1.0775,1.0262,1.0003,0.7761,0.698,0.6097,0.3424,0.1345,-0.018,-0.0628,-0.0807,-0.1524,-0.3848,-0.4749,-0.585,-0.7907,-1.0369,-1.223,-1.2905,-1.4706,-1.6198,-1.6658,-1.8507,-1.8981,-1.7086,-1.8784,-2.01,-2.0135,-2.2681,-2.5188,-2.7451,-2.838,-2.9947,-3.2181,-3.2519,-3.2666,-3.2732,-3.2959,-3.3106,-3.3173,-3.34,-3.3547,-3.3614,-3.3868,-3.3975,1.7372,1.7555,1.7507,1.6917,1.5893,1.4787,1.3858,1.2861,1.2026,1.1687,1.1619,1.166,1.1803,1.1993,1.2311,1.2888,1.3146,1.3688,1.4869,1.5404,1.5954,1.67,1.7161,1.7412,1.7399,1.729,1.7263,1.7392,1.7426,1.7507,1.7663,1.7521,1.7372,1.7216,1.7073,1.6924,1.6775,1.6354,1.613,1.6096,1.5818,1.5594,1.5432,1.5418,1.5323,1.5181,1.5181,1.5181,1.5181,1.5181,1.5181,1.5181,1.5181,1.5174,1.5133,1.4862,1.493,1.5106,1.4679,1.4624,1.4348,1.2017,1.2633,1.4024,1.2057,1.1262,1.062,0.8513,0.7783,0.7743,0.745,0.5729,0.3545,0.0899,0.018,-0.0628,-0.2776,-0.3313,-0.3938,-0.6347,-0.8636,-1.0354,-1.0739,-1.2984,-1.5447,-1.7885,-1.839,-1.9326,-2.1544,-2.2004,-2.2175,-2.228,-2.2506,-2.2783,-2.2984,-2.5578,-2.7356,-2.7913,-3.0331,-3.2111,-3.2879,-3.2919,-3.3066,-3.3334,-3.336,-3.3507,-3.3801,-3.3828,-3.3975,-3.4242,-3.4269,-3.4282,1.6998,1.7331,1.7344,1.6659,1.5581,1.4482,1.3675,1.2678,1.1864,1.166,1.1619,1.164,1.1694,1.1898,1.2217,1.2456,1.2617,1.3098,1.4034,1.4394,1.497,1.6076,1.6449,1.6754,1.7121,1.71,1.7127,1.727,1.7202,1.7222,1.7365,1.7317,1.7175,1.6931,1.687,1.668,1.6347,1.6171,1.5995,1.5811,1.5601,1.5472,1.5404,1.5316,1.5242,1.5181,1.5181,1.5181,1.5181,1.5181,1.5133,1.5059,1.5059,1.4997,1.4903,1.4787,1.3843,1.2754,1.2432,1.142,1.0111,0.9086,0.9359,0.9833,0.8947,0.8796,0.8292,0.5888,0.5243,0.4862,0.3305,0.2275,0.1262,0.0269,-0.1076,-0.2419,-0.3403,-0.474,-0.6445,-0.8909,-1.0216,-1.1927,-1.5146,-1.6544,-1.8033,-2.0686,-2.1083,-2.15,-2.2645,-2.4052,-2.5221,-2.5716,-2.5615,-2.5682,-2.618,-2.8666,-3.0402,-3.0779,-3.1965,-3.2732,-3.2973,-3.3146,-3.3387,-3.3694,-3.3694,-3.3841,-3.4148,-3.4148,-3.4993,-3.6809,-3.6893,-3.7884,1.6347,1.6795,1.6944,1.6327,1.5235,1.4143,1.3485,1.2522,1.1742,1.164,1.1619,1.1619,1.1619,1.1823,1.2006,1.2054,1.2277,1.2684,1.3397,1.3695,1.4245,1.533,1.571,1.6103,1.6659,1.6876,1.7019,1.7121,1.7039,1.7026,1.7121,1.7046,1.6917,1.6754,1.6619,1.6402,1.6083,1.5947,1.5778,1.5567,1.5418,1.5343,1.5337,1.5228,1.5181,1.5181,1.5181,1.5181,1.5181,1.5181,1.5126,1.5031,1.5031,1.45,1.3751,1.3707,1.2194,1.0119,0.9894,0.8805,0.728,0.6564,0.6224,0.5894,0.5221,0.5703,0.5845,0.3294,0.2564,0.229,0.0459,-0.0544,-0.1076,-0.1076,-0.2866,-0.4829,-0.5544,-0.6984,-0.8986,-1.1495,-1.2644,-1.4295,-1.8001,-1.9284,-2.0648,-2.3268,-2.3719,-2.4102,-2.5106,-2.678,-2.8421,-2.9789,-2.9755,-2.9469,-2.9208,-3.1076,-3.2732,-3.3796,-3.4199,-3.4689,-3.5548,-3.5848,-3.6135,-3.6378,-3.6378,-3.6536,-3.6836,-3.6836,-3.7883,-3.9884,-4.0014,-4.1138,1.5343,1.5866,1.6246,1.5934,1.4848,1.3729,1.3275,1.2372,1.1619,1.1619,1.1619,1.1619,1.1619,1.1735,1.1884,1.204,1.2189,1.2501,1.3091,1.3559,1.4007,1.4468,1.5052,1.5594,1.6049,1.6632,1.6978,1.6985,1.6978,1.6978,1.6985,1.6693,1.6598,1.6748,1.632,1.609,1.6083,1.5642,1.5418,1.5411,1.5255,1.5181,1.5181,1.5181,1.5181,1.5181,1.5181,1.5181,1.5181,1.5181,1.5181,1.5181,1.5181,1.3657,1.1464,1.1258,0.9688,0.7572,0.7511,0.7415,0.7004,0.4629,0.376,0.3183,0.082,0.1717,0.3134,0.0718,0.0,0.0,0.0,-0.1793,-0.358,-0.358,-0.5365,-0.7684,-1.0091,-1.0709,-1.1596,-1.3964,-1.6635,-1.85,-1.86,-2.0767,-2.3289,-2.5775,-2.6453,-2.7549,-2.999,-3.0608,-3.1909,-3.5063,-3.5401,-3.4537,-3.2256,-3.2372,-3.381,-3.6677,-3.7215,-3.8709,-4.1586,-4.2129,-4.2327,-4.2327,-4.2327,-4.2509,-4.2773,-4.2773,-4.2955,-4.32,-4.32,-4.3318,1.2626,1.3622,1.4211,1.1273,1.0752,1.0648,0.9089,0.8195,0.7982,0.9357,0.9646,1.0011,1.1325,1.1735,1.1884,1.204,1.2189,1.2427,1.2813,1.3254,1.3817,1.4577,1.5649,1.6422,1.6673,1.687,1.6937,1.6829,1.6917,1.6937,1.6829,1.6632,1.6497,1.6449,1.6212,1.5934,1.5628,1.5588,1.5459,1.5255,1.5208,1.5181,1.5181,1.5181,1.5181,1.5181,1.5181,1.5126,1.5045,1.514,1.402,1.2275,1.2452,1.0894,0.8637,0.861,0.7123,0.4979,0.4948,0.3812,0.2225,0.1469,0.1188,0.1001,0.0271,0.054,0.0987,0.0179,0.0,-0.0362,-0.2065,-0.3045,-0.4027,-0.5633,-0.79,-0.9922,-1.0645,-1.3604,-1.6273,-1.7136,-1.9326,-2.1728,-2.3518,-2.4525,-2.5924,-2.8691,-3.0583,-3.2118,-3.3317,-3.5273,-3.7002,-3.82,-3.8759,-3.8719,-3.8085,-3.8084,-3.878,-4.0157,-4.0399,-4.1016,-4.2162,-4.2376,-4.2559,-4.2708,-4.2708,-4.289,-4.3153,-4.3153,-4.4211,-4.6153,-4.7978,-4.8885,0.9618,1.0598,1.1301,0.9427,0.8789,0.8498,0.7855,0.675,0.617,0.7327,0.8194,0.9064,1.0305,1.1174,1.1796,1.1952,1.2101,1.2305,1.2603,1.3085,1.3736,1.4631,1.5683,1.6388,1.6537,1.6707,1.6768,1.6673,1.6754,1.6768,1.6666,1.6415,1.6232,1.6137,1.5995,1.575,1.5411,1.5445,1.5371,1.5181,1.5181,1.5181,1.5181,1.5181,1.5181,1.5181,1.414,1.3715,0.0,1.2682,1.1299,0.9689,0.975,0.8255,0.608,0.608,0.4483,0.2329,0.2321,0.1297,0.0,0.0,0.0,-0.0182,-0.1079,-0.0718,-0.0179,-0.1076,-0.1351,-0.1898,-0.4301,-0.5649,-0.6739,-0.8172,-1.1204,-1.3733,-1.3733,-1.7002,-1.9898,-2.0025,-2.202,-2.4302,-2.5922,-2.783,-2.9777,-3.1464,-3.3993,-3.5946,-3.6401,-3.8138,-3.9925,-4.1354,-4.1927,-4.2699,-4.3862,-4.2131,-4.1536,-4.3141,-4.3409,-4.4136,-4.5514,-4.5754,-4.585,-4.6098,-4.6098,-4.6222,-4.6352,-4.6352,-4.7266,-4.9002,-5.0627,-5.1426,0.0,0.6963,0.7875,0.9365,0.8105,0.6818,0.835,0.6997,0.0,0.5591,0.7038,0.8338,0.8631,1.0167,1.1536,1.175,1.1979,1.2176,1.2461,1.3051,1.3783,1.4679,1.5309,1.5723,1.5859,1.6266,1.6517,1.651,1.6517,1.651,1.649,1.6096,1.5859,1.5839,1.5696,1.5547,1.5398,1.5262,1.5194,1.5181,1.5181,1.5181,1.5181,1.4979,1.4885,1.4798,1.2228,1.1087,1.0889,0.8531,0.7487,0.7288,0.7292,0.5748,0.3556,0.3556,0.2048,0.0,0.0,0.0,0.0,0.0,-0.0091,-0.0636,-0.2964,-0.2061,-0.0718,-0.3134,-0.3848,-0.4385,-0.6796,-0.9092,-1.0966,-1.1331,-1.5035,-1.8428,-1.86,-2.0739,-2.2604,-2.2604,-2.4687,-2.6502,-2.6683,-3.0766,-3.4052,-3.4245,-3.6843,-3.8941,-3.9432,-3.9891,-4.1412,-4.4503,-4.4926,-4.6225,-4.9527,-4.4857,-4.2991,-4.5879,-4.6434,-4.7917,-5.0724,-5.123,-5.1426,-5.1426,-5.1426,-5.1426,-5.1426,-5.1426,-5.1426,-5.1426,-5.162,-5.162,0.2002,0.0,0.5644,0.3089,0.3136,0.3549,0.0,0.1759,0.182,0.3272,0.3923,0.5153,0.8121,0.9144,1.0058,1.1757,1.2135,1.2298,1.2474,1.3315,1.4245,1.5147,1.5683,1.5995,1.6029,1.6327,1.6476,1.6368,1.6463,1.6422,1.6198,1.6083,1.5927,1.5696,1.554,1.5391,1.5235,1.5316,1.5296,1.5181,1.5181,1.5181,1.5174,1.318,1.2245,1.214,0.9598,0.8408,0.8258,0.7763,0.6421,0.4504,0.4634,0.3158,0.0928,0.0928,0.0554,0.0,0.0,0.0,0.0,0.0,-0.126,-0.2875,-0.3404,-0.3224,-0.3224,-0.5633,-0.6255,-0.6892,-0.9375,-1.0495,-1.1883,-1.5687,-1.7664,-1.9071,-2.0967,-2.3412,-2.5309,-2.5309,-2.7292,-2.9604,-3.1423,-3.3013,-3.4647,-3.6676,-3.9502,-4.1568,-4.226,-4.4359,-4.6114,-4.7194,-4.7938,-4.9424,-5.2076,-4.9409,-4.8121,-4.955,-4.9704,-5.0243,-5.1269,-5.1387,-5.1426,-5.1426,-5.1426,-5.1426,-5.1426,-5.1426,-5.1426,-5.1426,-5.3371,-5.4189,0.0292,0.153,0.2838,0.1602,0.1456,0.1529,0.1384,0.0656,0.0292,0.1384,0.2266,0.3811,0.6877,0.8283,0.9568,1.1749,1.2189,1.2433,1.2854,1.3641,1.4434,1.5126,1.554,1.5825,1.5961,1.6062,1.611,1.6103,1.611,1.6049,1.5886,1.5811,1.5703,1.554,1.5384,1.5269,1.5181,1.5262,1.5262,1.5181,1.3977,1.3415,1.3375,1.0801,0.9683,0.9483,0.6952,0.5784,0.5662,0.4556,0.3237,0.1926,0.2029,0.1199,0.0,0.0,0.0,0.0,0.0,-0.0721,-0.1614,-0.1614,-0.3224,-0.5457,-0.6559,-0.6928,-0.719,-0.8409,-0.8782,-0.9715,-1.3266,-1.4376,-1.5405,-1.931,-2.1125,-2.2465,-2.3828,-2.6124,-2.8243,-2.9283,-3.0561,-3.2306,-3.4896,-3.6499,-3.807,-3.985,-4.251,-4.4609,-4.5434,-4.7817,-4.9761,-5.0408,-5.1878,-5.3499,-5.5336,-5.4217,-5.3621,-5.4122,-5.4143,-5.4351,-5.4737,-5.4758,-5.4758,-5.4758,-5.4758,-5.4758,-5.4758,-5.4758,-5.4758,-5.4853,-5.6128,-5.6781,0.0,0.0,0.0365,0.2037,0.1239,0.0438,0.211,0.1167,0.0,0.0,0.1328,0.3194,0.5564,0.7344,0.9296,1.1713,1.2264,1.2651,1.3397,1.3966,1.4468,1.4916,1.5228,1.5499,1.573,1.5683,1.5689,1.5811,1.571,1.5628,1.5608,1.5479,1.5398,1.5377,1.4845,1.4578,1.4578,1.4597,1.4597,1.4578,1.2031,1.0816,1.0696,0.8166,0.7048,0.6911,0.4316,0.3176,0.3076,0.0926,0.0,0.0,0.0,0.0,0.0,0.0,-0.0271,-0.0628,-0.0987,-0.2419,-0.4116,-0.4116,-0.5722,-0.8052,-1.0211,-1.1411,-1.2023,-1.1944,-1.1989,-1.2969,-1.721,-1.8716,-1.9788,-2.2262,-2.4607,-2.6411,-2.7123,-2.8963,-3.1137,-3.3468,-3.3952,-3.485,-3.7587,-4.0158,-4.2145,-4.3172,-4.5757,-4.782,-4.863,-5.0868,-5.2716,-5.3677,-5.5643,-5.74,-5.8593,-5.8729,-5.8954,-5.9313,-5.8594,-5.8434,-5.8791,-5.8814,-5.8814,-5.8814,-5.8814,-5.8814,-5.8814,-5.8814,-5.8814,-5.8814,-5.918,-5.9362,0.0,0.0,0.0073,0.0365,0.0219,0.0073,0.0365,0.0221,0.0,0.0,0.0225,0.1584,0.5337,0.6377,0.7883,1.1637,1.2596,1.3119,1.3865,1.4156,1.4468,1.4916,1.5228,1.5377,1.5296,1.5499,1.5649,1.5669,1.5649,1.5581,1.5452,1.5425,1.535,1.5221,1.3093,1.1993,1.1993,1.2002,1.2002,1.1993,0.9437,0.821,0.8061,0.5525,0.4404,0.4221,0.1675,0.0554,0.0549,0.0183,0.0,0.0,0.0,0.0,0.0,0.0,-0.1257,-0.3312,-0.5365,-0.6255,-0.6525,-0.6525,-0.8219,-1.0199,-1.0755,-1.3828,-1.7072,-1.72,-1.7256,-1.7493,-1.8283,-2.0089,-2.2353,-2.5014,-2.5922,-2.7304,-3.1423,-3.2587,-3.3556,-3.5793,-3.6557,-3.7658,-3.9978,-4.165,-4.3313,-4.5461,-4.848,-5.0668,-5.1099,-5.3646,-5.5575,-5.6065,-5.7223,-5.8771,-6.1022,-6.1623,-6.2704,-6.4703,-6.0966,-5.8724,-5.8814,-5.8814,-5.8814,-5.8814,-5.8814,-5.8814,-5.8814,-5.8814,-5.8814,-5.8814,-6.0926,-6.1935,0.0,0.0,0.0,0.0,0.0,0.0,0.0,0.0,0.03,0.1426,0.1667,0.2901,0.7077,0.7958,0.9115,1.2259,1.3146,1.3553,1.3899,1.4217,1.4523,1.4814,1.5038,1.5208,1.5296,1.5357,1.5425,1.5506,1.5438,1.5364,1.5289,1.3951,1.3216,1.318,1.0683,0.9347,0.9347,0.7946,0.8017,0.9275,0.6808,0.5504,0.5477,0.2866,0.1759,0.1674,0.0553,0.0,0.0,0.0,0.0,0.0,0.0,-0.0803,-0.2061,-0.3401,-0.4561,-0.5633,-0.67,-0.7951,-0.9019,-0.9019,-1.1627,-1.4736,-1.4889,-1.7518,-2.0436,-2.0561,-2.0533,-2.0829,-2.2192,-2.3492,-2.5331,-2.9141,-3.0074,-3.1054,-3.4489,-3.5201,-3.6031,-3.8563,-3.9184,-4.0618,-4.457,-4.6016,-4.7508,-5.0267,-5.2197,-5.3582,-5.4324,-5.6713,-5.8559,-5.9348,-6.1002,-6.2591,-6.3975,-6.4331,-6.4938,-6.6026,-6.4017,-6.2735,-6.2735,-6.2735,-6.2735,-6.2735,-6.2735,-6.2735,-6.2735,-6.2735,-6.2735,-6.2735,-6.3929,-6.4478,0.0,0.0,0.0,0.0,0.0,0.0,0.0,0.0376,0.1064,0.2126,0.2759,0.4246,0.8013,0.9589,1.1015,1.2882,1.3546,1.3878,1.3987,1.4326,1.4631,1.4821,1.495,1.5113,1.5337,1.5248,1.5228,1.535,1.4737,1.4277,1.4277,1.1887,1.0516,1.0528,0.7995,0.6687,0.6687,0.4155,0.4144,0.6635,0.4153,0.2953,0.2854,0.0917,0.0,0.0,0.0,0.0,0.0,0.0,-0.0356,-0.0806,-0.0887,-0.2307,-0.474,-0.7057,-0.7951,-0.804,-0.8575,-1.0002,-1.161,-1.2254,-1.5077,-1.8343,-1.9114,-2.109,-2.3167,-2.3318,-2.4143,-2.516,-2.6515,-2.7402,-2.8911,-3.3174,-3.417,-3.4853,-3.7089,-3.7671,-3.8666,-4.187,-4.2706,-4.4323,-4.9091,-5.0483,-5.1741,-5.419,-5.5586,-5.6673,-5.7448,-5.979,-6.169,-6.2485,-6.4333,-6.566,-6.6086,-6.6112,-6.6112,-6.6112,-6.6112,-6.6112,-6.6112,-6.6112,-6.6112,-6.6112,-6.6601,-6.6831,-6.6831,-6.74,-6.7627,-6.7627,-6.7627,-6.7704,0.0,0.0,0.0,0.0,0.0,0.0,0.0,0.1513,0.2384,0.0616,0.1785,0.3829,0.6091,0.9945,1.2829,1.3146,1.3546,1.3987,1.4401,1.4611,1.4828,1.512,1.516,1.5174,1.5194,1.5187,1.5187,1.5201,1.2987,1.1698,1.1698,0.9275,0.7841,0.7837,0.5396,0.41,0.41,0.1551,0.1557,0.4061,0.148,0.0276,0.0274,0.0092,0.0,0.0,0.0,0.0,0.0,0.0,-0.1332,-0.3308,-0.3362,-0.4786,-0.7146,-0.9557,-1.0446,-1.0717,-1.304,-1.3938,-1.4401,-1.6904,-1.7928,-1.8724,-2.1251,-2.3745,-2.5799,-2.5887,-2.9154,-3.2074,-2.9953,-3.1175,-3.3541,-3.5967,-3.6572,-3.7175,-3.9564,-4.0377,-4.1907,-4.6352,-4.79,-4.9384,-5.227,-5.3493,-5.4297,-5.5046,-5.7778,-5.9873,-5.9944,-6.2849,-6.4928,-6.5003,-6.5649,-6.6061,-6.6112,-6.6112,-6.6112,-6.6112,-6.6112,-6.6112,-6.6112,-6.6112,-6.6112,-6.6112,-6.8106,-6.9053,-6.9053,-7.1068,-7.203,-7.203,-7.203,-7.2412,0.0,0.0,0.0,0.0,0.0,0.0,0.0,0.0617,0.1732,0.3615,0.4574,0.6165,0.9635,1.0713,1.1661,1.3124,1.377,1.4183,1.4353,1.4584,1.4814,1.5025,1.4964,1.4977,1.5167,1.3697,1.2731,1.2799,1.0468,0.9006,0.9064,0.658,0.5243,0.5209,0.2735,0.1458,0.1458,0.0453,0.0454,0.1466,0.0458,0.0,0.0,0.0,0.0,0.0,0.0,-0.0795,-0.2019,-0.2084,-0.3491,-0.5842,-0.7364,-0.8546,-0.9646,-1.2059,-1.3817,-1.5206,-1.6194,-1.7422,-1.875,-1.9993,-2.1469,-2.3058,-2.4196,-2.7444,-3.0649,-3.067,-3.2984,-3.5012,-3.2617,-3.3774,-3.614,-3.8459,-3.897,-4.0023,-4.4033,-4.4995,-4.6186,-4.9811,-5.112,-5.2375,-5.509,-5.6372,-5.7642,-5.9209,-6.1115,-6.2475,-6.2879,-6.4274,-6.5434,-6.576,-6.7187,-6.8106,-6.8106,-6.9301,-7.0095,-7.0095,-6.7543,-6.6661,-6.8022,-6.8106,-6.8747,-7.004,-7.0907,-7.1283,-7.1283,-7.2546,-7.3138,-7.3138,-7.3497,-7.3802,0.0,0.0,0.0,0.0,0.0,0.0,0.0,0.0546,0.1835,0.4854,0.6446,0.8036,1.0335,1.0856,1.1318,1.2287,1.3429,1.4258,1.4353,1.4543,1.4446,1.3849,1.3688,1.3425,1.2853,1.1135,1.0083,1.0189,0.783,0.6401,0.6425,0.4005,0.2619,0.2601,0.0901,0.0,0.0,0.0,0.0,0.0,0.0,0.0,0.0,0.0,-0.0351,-0.1053,-0.1046,-0.2342,-0.4416,-0.4469,-0.5885,-0.836,-1.0848,-1.1876,-1.2142,-1.4536,-1.6378,-1.7929,-1.8627,-1.997,-2.1537,-2.255,-2.4711,-2.6996,-2.8004,-3.1226,-3.4504,-3.4504,-3.614,-3.7673,-3.6764,-3.7211,-3.8698,-4.1648,-4.2493,-4.3745,-4.7839,-4.8887,-5.0006,-5.2797,-5.384,-5.5195,-5.7871,-5.9666,-6.1353,-6.3258,-6.4853,-6.614,-6.6685,-6.7255,-6.7665,-6.808,-6.9465,-7.0339,-7.0339,-7.1711,-7.2506,-7.2506,-6.9712,-6.8747,-7.0258,-7.0339,-7.0961,-7.2506,-7.3382,-7.3807,-7.3807,-7.5158,-7.5782,-7.5782,-7.6258,-7.6542,0.0,0.0,0.0,0.0,0.0,0.0,0.0,0.1569,0.3107,0.3268,0.6605,0.8912,0.6918,1.0126,1.2477,1.0616,1.2393,1.4082,1.4372,1.4413,1.3649,1.1399,1.1135,1.0215,0.7827,0.7548,0.752,0.7533,0.5216,0.3741,0.379,0.1398,0.0,0.0,0.0,0.0,0.0,0.0,0.0,0.0,0.0,0.0,0.0,0.0,-0.1215,-0.3293,-0.3293,-0.4591,-0.6752,-0.6921,-0.8441,-1.0997,-1.3432,-1.4299,-1.4646,-1.6984,-1.7851,-1.82,-2.0443,-2.146,-2.221,-2.4845,-2.7423,-3.0027,-3.2632,-3.5027,-3.683,-3.683,-3.8545,-4.0811,-4.2944,-4.1925,-4.1481,-4.5778,-4.7283,-4.8328,-5.0409,-5.159,-5.3014,-5.5194,-5.6423,-5.7976,-6.0747,-6.3362,-6.5473,-6.6688,-6.9059,-7.0931,-7.1617,-7.2198,-7.2506,-7.2506,-7.2506,-7.2506,-7.2506,-7.2585,-7.2585,-7.2585,-7.2585,-7.2585,-7.2506,-7.2506,-7.2585,-7.2613,-7.5235,-7.6655,-7.6655,-7.941,-8.0823,-8.0823,-8.0823,-8.1153,0.0,0.0,0.0,0.0,0.0,0.0,0.0,0.0471,0.136,0.2819,0.5515,0.7807,0.8549,0.8639,0.8898,0.9835,0.9441,0.9034,0.9107,0.9223,0.9149,0.8554,0.8381,0.8157,0.7642,0.594,0.4843,0.4901,0.2577,0.1142,0.1147,0.0437,0.0,0.0,0.0,0.0,0.0,0.0,0.0,0.0,0.0,0.0,-0.0087,-0.1639,-0.2746,-0.3428,-0.5012,-0.7021,-0.9221,-1.0911,-1.2136,-1.3131,-1.5609,-1.6617,-1.7071,-1.9324,-2.1322,-2.3032,-2.3727,-2.6302,-2.9422,-3.0444,-3.2407,-3.4509,-3.5508,-3.7432,-3.9547,-4.1054,-4.3065,-4.5352,-4.7459,-4.7618,-4.748,-4.8733,-4.95,-5.0577,-5.2991,-5.4428,-5.5913,-5.8433,-6.0902,-6.2843,-6.3727,-6.6353,-6.852,-6.8875,-7.0319,-7.1512,-7.2147,-7.2395,-7.2506,-7.2506,-7.381,-7.4686,-7.4686,-7.6034,-7.6885,-7.6885,-7.6885,-7.6462,-7.5389,-7.5418,-7.6339,-7.826,-7.9097,-7.9515,-7.9515,-8.0825,-8.1482,-8.1512,-8.1961,-8.229,0.0,0.0,0.0,0.0,0.0,0.0,0.0,0.0714,0.1696,0.2951,0.5018,0.6738,0.7103,0.6888,0.7091,0.8445,0.7696,0.7213,0.8223,0.7623,0.6815,0.5943,0.5769,0.5449,0.4628,0.3088,0.2198,0.2307,0.0873,0.0,0.0,0.0,0.0,0.0,0.0,0.0,0.0,0.0,0.0,0.0,-0.0852,-0.1278,-0.1372,-0.2722,-0.4322,-0.6177,-0.8399,-1.0153,-1.164,-1.3056,-1.4302,-1.5388,-1.7009,-1.827,-1.9401,-2.1739,-2.4293,-2.6659,-2.753,-3.0539,-3.4072,-3.4275,-3.5959,-3.7997,-3.8135,-4.0391,-4.3123,-4.4397,-4.6506,-4.8858,-5.098,-5.1684,-5.1775,-5.1592,-5.1913,-5.328,-5.6639,-5.8318,-5.9889,-6.2194,-6.4535,-6.6254,-6.6545,-6.9033,-7.1194,-7.17,-7.3312,-7.4564,-7.4964,-7.5021,-7.5021,-7.5021,-7.6109,-7.6885,-7.6885,-7.8077,-7.8908,-7.9178,-7.9208,-7.9055,-7.8657,-7.8114,-7.8802,-8.0794,-8.1063,-8.1183,-8.1183,-8.1841,-8.217,-8.217,-8.2589,-8.2844,0.0,0.0,0.0,0.0,0.0,0.0,0.0,0.1529,0.3017,0.3004,0.4736,0.561,0.3718,0.4954,0.6291,0.6526,0.6424,0.7,0.9212,0.7769,0.5704,0.3544,0.3288,0.2425,0.0174,0.0,0.0,0.0,0.0,0.0,0.0,0.0,0.0,0.0,0.0,0.0,0.0,-0.017,-0.034,-0.0337,-0.252,-0.3692,-0.3944,-0.3944,-0.6369,-1.0549,-1.272,-1.3728,-1.3866,-1.4266,-1.5685,-1.782,-1.827,-1.9662,-2.1856,-2.4446,-2.6897,-2.9336,-3.1593,-3.4329,-3.6776,-3.7014,-3.8758,-4.0914,-4.1147,-4.3965,-4.7107,-4.739,-4.9342,-5.1803,-5.3985,-5.5033,-5.5452,-5.5065,-5.5178,-5.6584,-6.0923,-6.289,-6.4289,-6.6029,-6.7505,-6.8679,-6.9207,-7.154,-7.3675,-7.4963,-7.7224,-7.8789,-7.8789,-7.8789,-7.8789,-7.8789,-7.8789,-7.8819,-7.8878,-7.8878,-7.9178,-7.9866,-7.9896,-8.0464,-8.1721,-8.0644,-8.0315,-8.0973,-8.1572,-8.1871,-8.1871,-8.2469,-8.2844,-8.2844,-8.2844,-8.2844,0.0,0.0,0.0,0.0,0.0,0.0,0.0,0.04,0.0727,0.0744,0.25,0.393,0.3428,0.3679,0.4015,0.4025,0.2628,0.1705,0.2202,0.1877,0.1368,0.0848,0.0769,0.0601,0.0086,0.0,0.0,0.0,0.0,0.0,0.0,0.0,0.0,0.0,0.0,0.0,0.0,-0.1686,-0.261,-0.2603,-0.4863,-0.6867,-0.854,-0.854,-1.0044,-1.281,-1.4938,-1.5942,-1.6073,-1.8072,-1.9349,-2.015,-2.2234,-2.3585,-2.48,-2.8873,-3.1121,-3.2303,-3.4615,-3.7183,-3.976,-4.1341,-4.35,-4.5798,-4.7422,-4.8553,-4.9763,-5.1784,-5.3875,-5.6079,-5.858,-6.046,-6.1898,-6.275,-6.1806,-6.152,-6.402,-6.5865,-6.7118,-6.7562,-6.9889,-7.1878,-7.1992,-7.4634,-7.7021,-7.7823,-7.8453,-7.8789,-7.8789,-7.8789,-7.8789,-7.8789,-7.8789,-7.8998,-7.9567,-7.9597,-7.9866,-8.0554,-8.0584,-8.0943,-8.1751,-8.1512,-8.1661,-8.232,-8.2469,-8.2559,-8.2559,-8.2754,-8.2844,-8.2844,-8.2844,-8.2844,0.0,0.0,0.0,0.0,0.0,0.0,0.0,0.0,0.0,0.0,0.0914,0.1754,0.1764,0.1681,0.21,0.3191,0.1436,0.0339,0.1515,0.0677,0.0,0.0,0.0,0.0,0.0,0.0,0.0,0.0,0.0,0.0,0.0,0.0,0.0,0.0,0.0,-0.0505,-0.1597,-0.2771,-0.386,-0.4947,-0.7201,-0.9457,-1.1635,-1.1635,-1.288,-1.5028,-1.6082,-1.7264,-1.8521,-1.9888,-2.1274,-2.2766,-2.5397,-2.7259,-2.8825,-3.2525,-3.4867,-3.6354,-3.7638,-4.038,-4.3637,-4.4661,-4.6542,-4.8597,-4.9674,-5.1309,-5.3104,-5.4786,-5.7509,-6.0331,-6.2023,-6.3641,-6.5263,-6.682,-6.5506,-6.459,-6.7129,-6.8611,-6.9817,-7.1094,-7.2919,-7.4567,-7.5154,-7.6919,-7.84,-7.8729,-7.8789,-7.8789,-7.8789,-7.8789,-7.8789,-7.8789,-7.8789,-7.9058,-7.9746,-7.9806,-8.0225,-8.1212,-8.1272,-8.1572,-8.223,-8.226,-8.2409,-8.2814,-8.2844,-8.2844,-8.2844,-8.2844,-8.2844,-8.2844,-8.2844,-8.2844,0.0,0.0,0.0,0.0,0.0,0.0,0.0,0.0,0.0,0.0,0.0,0.0,0.0,0.0,0.0589,0.252,0.1262,0.0673,0.252,0.1178,0.0,0.0,0.0,0.0,0.0,0.0,0.0,0.0,0.0,0.0,0.0,0.0,-0.0168,-0.0589,-0.0589,-0.1681,-0.3944,-0.4277,-0.5365,-0.7285,-0.9868,-1.2121,-1.3969,-1.4383,-1.5267,-1.6647,-1.7375,-1.8957,-2.0909,-2.1947,-2.3605,-2.592,-2.8683,-3.0901,-3.2998,-3.5591,-3.7983,-4.0003,-4.075,-4.3588,-4.6968,-4.7645,-4.9126,-5.0685,-5.1332,-5.388,-5.6747,-5.7717,-6.09,-6.4276,-6.5,-6.6159,-6.7637,-6.946,-6.8393,-6.758,-7.0205,-7.1324,-7.2444,-7.4654,-7.5707,-7.6604,-7.7771,-7.843,-7.8789,-7.8789,-7.8789,-7.8789,-7.8789,-7.8789,-7.8819,-7.8938,-7.8968,-7.9297,-8.0105,-8.0165,-8.0674,-8.1871,-8.1961,-8.22,-8.2814,-8.2844,-8.2844,-8.2844,-8.2844,-8.2844,-8.2844,-8.2844,-8.2844,-8.2844,-8.2844,-8.2844,0.0,0.0,0.0,0.0,0.0,0.0,0.0,0.0,0.0,0.0,0.0,0.0,0.0,0.0,0.0084,0.0421,0.0168,0.0084,0.0421,0.0168,0.0,0.0,0.0,0.0,0.0,0.0,0.0,0.0,0.0,0.0,0.0,0.0,-0.0925,-0.2855,-0.2939,-0.4027,-0.6199,-0.8123,-0.929,-0.9623,-1.3755,-1.5909,-1.6237,-1.82,-1.8118,-1.6811,-2.0625,-2.2555,-2.3458,-2.7513,-2.9535,-3.0387,-3.3325,-3.4698,-3.5524,-3.825,-3.9659,-4.0756,-4.454,-4.6322,-4.7406,-5.1071,-5.2471,-5.3278,-5.6692,-5.8485,-5.9792,-6.1949,-6.462,-6.7007,-6.8183,-6.9836,-7.1518,-7.2908,-7.2981,-7.2883,-7.3295,-7.4376,-7.5369,-7.5667,-7.6724,-7.7801,-7.8519,-7.8729,-7.8789,-7.8789,-7.8789,-7.8789,-7.8789,-7.8789,-7.9028,-7.9627,-7.9686,-8.0165,-8.1422,-8.1512,-8.1841,-8.2589,-8.2694,-8.2679,-8.2844,-8.2844,-8.2844,-8.2844,-8.2844,-8.2844,-8.2844,-8.2844,-8.2844,-8.2844,-8.2844,-8.2844,0.0,0.0,0.0,0.0,0.0,0.0,0.0,0.0,0.0,0.0,0.0,0.0,0.0,0.0,0.0,0.0,0.0,0.0,0.0,0.0,0.0,0.0,0.0,0.0,0.0,0.0,0.0,0.0,0.0,-0.0589,-0.1849,-0.1933,-0.2939,-0.5198,-0.5282,-0.6285,-0.854,-0.954,-1.1203,-1.3755,-1.5655,-1.722,-1.8516,-2.0716,-2.119,-2.0382,-2.2247,-2.4721,-2.7633,-2.9625,-3.1526,-3.3353,-3.6362,-3.7578,-3.8118,-4.2294,-4.3808,-4.4375,-4.7523,-4.9361,-5.0816,-5.3707,-5.5432,-5.6861,-5.9616,-6.1603,-6.3257,-6.4646,-6.6871,-6.9067,-7.0333,-7.2223,-7.4069,-7.5047,-7.6252,-7.7301,-7.7739,-7.7578,-7.7826,-7.9565,-8.06,-8.1378,-8.1658,-8.172,-8.172,-8.172,-8.172,-8.172,-8.172,-8.172,-8.1969,-8.2653,-8.2747,-8.2922,-8.3274,-8.4267,-8.4218,-8.286,-8.3729,-8.3847,-8.2844,-8.2844,-8.2844,-8.2844,-8.2844,-8.2844,-8.2844,-8.2844,-8.2844,-8.2844,-8.2844,-8.2844,0.0,0.0,0.0,0.0,0.0,0.0,0.0,0.0,0.0,0.0,0.0,0.0,0.0,0.0,0.0,0.0,0.0,0.0,0.0,0.0,0.0,0.0,0.0,0.0,0.0,0.0,-0.0253,-0.0757,-0.0841,-0.1849,-0.4111,-0.4279,-0.5282,-0.7452,-0.7535,-0.8624,-1.0798,-1.1369,-1.3329,-1.658,-1.7683,-1.9085,-2.0797,-2.3516,-2.4723,-2.4723,-2.4723,-2.6826,-3.046,-3.1651,-3.3385,-3.5731,-3.9417,-4.0839,-4.1418,-4.601,-4.7666,-4.7884,-5.0064,-5.212,-5.4128,-5.594,-5.7926,-5.9947,-6.1923,-6.3961,-6.5766,-6.689,-6.9144,-7.1386,-7.2504,-7.4489,-7.637,-7.7058,-7.8687,-8.0251,-8.1017,-8.0301,-8.0293,-8.278,-8.3643,-8.3995,-8.3995,-8.3995,-8.3995,-8.3995,-8.3995,-8.3995,-8.3995,-8.4155,-8.4571,-8.5276,-8.55,-8.558,-8.5446,-8.6678,-8.6558,-8.4301,-8.5431,-8.5543,-8.4259,-8.4185,-8.4185,-8.4185,-8.4185,-8.3729,-8.2844,-8.2844,-8.2844,-8.2844,-8.2844,-8.2844,0.0,0.0,0.0,0.0,0.0,0.0,0.0,0.0,0.0,0.0,0.0,0.0,0.0,0.0,0.0,0.0,0.0,0.0,0.0,0.0,0.0,0.0,0.0,0.0,0.0,0.0,-0.0841,-0.2939,-0.3107,-0.4111,-0.6369,-0.6536,-0.7535,-0.9795,-0.9795,-1.0882,-1.3231,-1.5267,-1.6318,-1.6483,-2.0761,-2.2808,-2.306,-2.7236,-2.9046,-2.9046,-2.9046,-2.9409,-3.0302,-3.4676,-3.6725,-3.768,-4.3132,-4.5227,-4.5643,-4.8696,-4.983,-5.0142,-5.2242,-5.4104,-5.5962,-5.8049,-5.9962,-6.1908,-6.4385,-6.5635,-6.6722,-6.9114,-7.1891,-7.4314,-7.4965,-7.6866,-7.8783,-7.9486,-8.0251,-8.1017,-8.1721,-8.2363,-8.3003,-8.3803,-8.3963,-8.3995,-8.3995,-8.3995,-8.3995,-8.3995,-8.3995,-8.3995,-8.3995,-8.4635,-8.5308,-8.5979,-8.6685,-8.7323,-8.7991,-8.8123,-8.8055,-8.7884,-8.8052,-8.8052,-8.7916,-8.7916,-8.7916,-8.7916,-8.7916,-8.6221,-8.2844,-8.2844,-8.2844,-8.2844,-8.2844,-8.2844,0.0,0.0,0.0,0.0,0.0,0.0,0.0,0.0,0.0,0.0,0.0,0.0,0.0,0.0,0.0,0.0,0.0,0.0,0.0,0.0,0.0,0.0,0.0,-0.0503,-0.183,-0.1995,-0.2897,-0.5087,-0.5283,-0.6298,-0.861,-0.8755,-0.9878,-1.2139,-1.2139,-1.3211,-1.5432,-1.6246,-1.7991,-2.075,-2.2373,-2.4552,-2.7158,-2.8735,-3.013,-3.1497,-3.4047,-3.4649,-3.4069,-3.6006,-3.8537,-4.1574,-4.4452,-4.6391,-4.7805,-5.0857,-5.2755,-5.4007,-5.6113,-5.8023,-5.9854,-6.1769,-6.2821,-6.3814,-6.6275,-6.7491,-6.8615,-7.1408,-7.3231,-7.4874,-7.7017,-7.8941,-8.0918,-8.3115,-8.457,-8.55,-8.5766,-8.6397,-8.6995,-8.7227,-8.7294,-8.7294,-8.7294,-8.7294,-8.7294,-8.7294,-8.7294,-8.7294,-8.7294,-8.7925,-8.8656,-8.9326,-9.0117,-9.0416,-8.9934,-9.1021,-9.0672,-8.8388,-8.9251,-8.9382,-8.8254,-8.8187,-8.8187,-8.8187,-8.8187,-8.7576,-8.6291,-8.6291,-8.6291,-8.6291,-8.6291,-8.6291,0.0,0.0,0.0,0.0,0.0,0.0,0.0,0.0,0.0,0.0,0.0,0.0,0.0,0.0,0.0,0.0,0.0,0.0,0.0,0.0,0.0,0.0,-0.058,-0.1575,-0.2955,-0.3772,-0.5063,-0.7205,-0.7526,-0.8557,-1.0863,-1.1063,-1.2133,-1.4375,-1.5193,-1.6221,-1.7602,-1.8397,-2.0562,-2.4074,-2.4819,-2.7065,-3.0438,-3.1115,-3.2184,-3.37,-3.784,-3.8657,-3.7297,-3.9063,-4.159,-4.4642,-4.682,-4.8432,-4.9973,-5.369,-5.5797,-5.7092,-5.9103,-6.0988,-6.2689,-6.3894,-6.4839,-6.5987,-6.8388,-6.9577,-7.0738,-7.3686,-7.5409,-7.686,-7.8989,-8.1156,-8.3298,-8.5607,-8.711,-8.8057,-8.8294,-8.8734,-8.9072,-8.9072,-8.9072,-8.9072,-8.9072,-8.9072,-8.9072,-8.9072,-8.9309,-8.9444,-8.9444,-9.0324,-9.1135,-9.1609,-9.2353,-9.255,-9.1864,-9.2909,-9.2574,-9.0193,-9.1147,-9.1272,-9.0064,-8.9999,-8.9999,-8.9999,-8.9999,-8.9999,-8.9999,-8.8789,-8.8187,-8.8187,-8.8187,-8.8522,0.0,0.0,0.0,0.0,0.0,0.0,0.0,0.0,0.0,0.0,0.0,0.0,-0.0079,-0.008,-0.0081,-0.016,-0.016,-0.008,-0.0162,-0.0161,-0.0161,-0.0162,-0.1948,-0.3242,-0.3242,-0.518,-0.7279,-0.9542,-0.9805,-1.0857,-1.3166,-1.348,-1.4541,-1.6647,-1.877,-1.9876,-1.9812,-2.2042,-2.4153,-2.6158,-2.839,-3.0592,-3.2657,-3.4676,-3.5646,-3.5886,-4.0419,-4.1235,-3.9699,-4.3903,-4.598,-4.6852,-5.0331,-5.175,-5.2381,-5.7191,-5.8973,-5.9322,-6.1056,-6.2887,-6.4345,-6.4345,-6.605,-6.848,-7.0642,-7.1772,-7.3,-7.5991,-7.8397,-8.0277,-8.1147,-8.3598,-8.5993,-8.6771,-8.7516,-8.8226,-8.8937,-8.9072,-8.9072,-8.9072,-8.9072,-8.9072,-8.9072,-8.9072,-8.9106,-8.9106,-8.9748,-9.0222,-9.0256,-9.1508,-9.2421,-9.2421,-9.3131,-9.3571,-9.3571,-9.3571,-9.3571,-9.3571,-9.3571,-9.3571,-9.3571,-9.3571,-9.3571,-9.3571,-9.3571,-9.3571,-9.3571,-9.0064,-8.8388,-8.8388,-8.8388,-8.9316,0.0,0.0,0.0,0.0,0.0,0.0,0.0,0.0,0.0,0.0,0.0,-0.0471,-0.1959,-0.2206,-0.2766,-0.4328,-0.3273,-0.2821,-0.4328,-0.4551,-0.4546,-0.4561,-0.5078,-0.5972,-0.7517,-0.8229,-0.9397,-1.1529,-1.1985,-1.3077,-1.5225,-1.7126,-1.8363,-1.8933,-1.9582,-2.053,-2.1885,-2.414,-2.6327,-2.8238,-3.0559,-3.2717,-3.4751,-3.6662,-3.8287,-3.9973,-4.4308,-4.6035,-4.5936,-4.61,-4.7359,-4.944,-5.2419,-5.4653,-5.6667,-5.9735,-6.1663,-6.2887,-6.3346,-6.4758,-6.626,-6.626,-6.7788,-6.9874,-7.097,-7.2571,-7.471,-7.8185,-7.958,-8.0785,-8.3762,-8.5553,-8.6771,-8.7516,-8.826,-8.8835,-8.9038,-8.9072,-8.9072,-8.9072,-8.9072,-8.9072,-8.9072,-8.9072,-8.9275,-8.9816,-9.0087,-9.0391,-9.0932,-9.1846,-9.2421,-9.2421,-9.3131,-9.3571,-9.3571,-9.3571,-9.3571,-9.3571,-9.3571,-9.3571,-9.3571,-9.3571,-9.3571,-9.3571,-9.3571,-9.3571,-9.3571,-9.2574,-9.2081,-9.2081,-9.2081,-9.2359,0.0,-0.1239,-0.1384,-0.2184,0.0,0.0,-0.2446,-0.2486,-0.2522,-0.2536,-0.2563,-0.2977,-0.4224,-0.4397,-0.5114,-0.7275,-0.6511,-0.5845,-0.6253,-0.6322,-0.6322,-0.6322,-0.7069,-0.8032,-0.9321,-1.0179,-1.1173,-1.2431,-1.3641,-1.5305,-1.76,-1.9926,-2.1281,-2.1281,-2.2086,-2.3488,-2.5244,-2.6744,-2.8901,-3.1495,-3.2986,-3.5256,-3.7982,-3.901,-4.0708,-4.2965,-4.6518,-4.8318,-4.8911,-4.9758,-5.1195,-5.2992,-5.484,-5.7056,-5.9521,-6.1841,-6.3411,-6.4474,-6.5896,-6.7063,-6.8028,-6.8649,-7.0112,-7.1824,-7.2832,-7.4703,-7.7102,-8.0176,-8.1721,-8.2974,-8.5202,-8.6569,-8.7482,-8.7888,-8.8564,-8.9072,-8.9072,-8.9072,-8.9072,-8.9072,-8.9072,-8.9072,-8.9072,-8.9072,-8.9342,-9.0087,-9.0459,-9.0932,-9.1677,-9.2421,-9.2895,-9.2895,-9.33,-9.3571,-9.3571,-9.3571,-9.3571,-9.3571,-9.3571,-9.3571,-9.3571,-9.3571,-9.3571,-9.3571,-9.3571,-9.3571,-9.3571,-9.3571,-9.3571,-9.3571,-9.3571,-9.3571,0.0,0.0,0.0,-0.5396,-0.5829,0.0,-0.5833,-0.5897,-0.5961,-0.5949,-0.6106,-0.6322,-0.6555,-0.662,-0.7358,-0.9392,-0.9771,-0.9095,-0.7279,-0.6956,-0.6956,-0.6956,-0.8594,-0.9837,-1.007,-1.1785,-1.2958,-1.319,-1.5479,-1.7817,-2.0088,-2.2442,-2.3744,-2.3768,-2.5951,-2.7777,-2.9123,-2.9731,-3.1701,-3.492,-3.5741,-3.8001,-4.141,-4.1813,-4.3197,-4.5434,-4.8019,-4.9414,-5.0174,-5.4148,-5.6067,-5.6556,-5.749,-5.9221,-6.1472,-6.3758,-6.463,-6.5047,-6.8115,-6.9201,-6.9432,-7.0989,-7.2522,-7.4057,-7.5456,-7.7449,-7.9679,-8.1873,-8.4099,-8.5844,-8.6074,-8.705,-8.81,-8.8497,-8.8952,-8.9373,-8.9449,-8.9504,-8.9504,-8.9504,-8.9261,-8.9072,-8.9072,-8.914,-8.9444,-9.0222,-9.0966,-9.1677,-9.2455,-9.3165,-9.3571,-9.3571,-9.3571,-9.3571,-9.3571,-9.3571,-9.3571,-9.3571,-9.3571,-9.3571,-9.3571,-9.3571,-9.3571,-9.3571,-9.3571,-9.3571,-9.3571,-9.3571,-9.3571,-9.3571,-9.3571,-9.3571,-0.2924,-0.4344,-0.5761,-0.6138,-0.6089,0.0,-0.5987,-0.5931,-0.5874,-0.5813,-0.5919,-0.6623,-0.8315,-0.8707,-0.948,-1.1566,-1.1895,-1.1753,-1.1333,-1.1327,-1.1327,-1.1327,-1.1637,-1.2558,-1.4153,-1.4697,-1.5616,-1.7284,-1.958,-2.1267,-2.2089,-2.5777,-2.7931,-2.8175,-3.0192,-3.1337,-3.1361,-3.3344,-3.4557,-3.5084,-3.8511,-4.0801,-4.2129,-4.5115,-4.6908,-4.7974,-5.1807,-5.3438,-5.3817,-5.6969,-5.7845,-5.7409,-6.0329,-6.2374,-6.3851,-6.5798,-6.6446,-6.6725,-6.8559,-6.9201,-6.9552,-7.1585,-7.3674,-7.5542,-7.6399,-7.8603,-8.1218,-8.2863,-8.4505,-8.6161,-8.7762,-8.813,-8.8661,-9.1316,-9.1258,-9.0919,-9.1964,-9.2175,-9.2175,-9.2175,-9.05,-8.9072,-8.9072,-8.9579,-9.0256,-9.0966,-9.1711,-9.2489,-9.3267,-9.347,-9.3571,-9.3571,-9.3571,-9.3571,-9.3571,-9.3571,-9.3571,-9.3571,-9.3571,-9.3571,-9.3571,-9.3571,-9.3571,-9.3571,-9.3571,-9.3571,-9.3571,-9.3571,-9.3571,-9.3571,-9.3571,-9.3571,-0.4301,-0.6105,-0.7981,-0.8965,-0.9143,0.0,0.0,-0.8912,-0.8943,-0.8808,-0.9659,-1.0775,-1.199,-1.3043,-1.4113,-1.537,-1.554,-1.554,-1.554,-1.3799,-1.2881,-1.3868,-1.4022,-1.4782,-1.6828,-1.7056,-1.793,-2.0103,-2.2433,-2.4367,-2.5761,-2.8922,-3.0804,-3.0961,-3.1972,-3.3269,-3.4811,-3.6164,-3.7692,-3.9292,-4.1848,-4.3749,-4.4973,-4.7117,-4.9363,-5.1674,-5.37,-5.5226,-5.654,-5.9164,-6.0082,-6.0088,-6.2159,-6.4043,-6.5764,-6.6661,-6.7487,-6.8325,-6.9802,-7.1005,-7.2237,-7.4104,-7.593,-7.7527,-7.7895,-7.98,-8.2292,-8.4353,-8.5789,-8.7161,-8.9186,-8.9757,-9.0357,-9.2434,-9.2418,-9.2126,-9.2754,-9.2896,-9.2896,-9.2896,-9.1865,-9.0988,-9.0988,-9.0523,-9.0652,-9.2027,-9.2339,-9.2692,-9.347,-9.3571,-9.3571,-9.3571,-9.3571,-9.3571,-9.3571,-9.3571,-9.3571,-9.3571,-9.3571,-9.3571,-9.3571,-9.3571,-9.3571,-9.3571,-9.3571,-9.3571,-9.3571,-9.3571,-9.3571,-9.3571,-9.3571,-9.3571,-0.6149,-0.8191,-1.0237,-1.1766,-1.2128,-1.2074,0.0,0.0,0.0,-1.2479,-1.4106,-1.5593,-1.5826,-1.7151,-1.8275,-1.8481,-1.8542,-1.8683,-1.888,-1.6121,-1.4565,-1.5861,-1.6048,-1.6885,-1.8888,-1.9811,-2.1048,-2.2941,-2.5125,-2.7294,-2.9351,-3.1599,-3.2961,-3.3095,-3.3833,-3.5484,-3.8292,-3.9057,-4.0779,-4.3579,-4.4821,-4.6471,-4.8358,-4.9296,-5.1699,-5.529,-5.5612,-5.6832,-5.8857,-6.1188,-6.2558,-6.3229,-6.3752,-6.5362,-6.7427,-6.7427,-6.8384,-6.9859,-7.1278,-7.3054,-7.4978,-7.6604,-7.8111,-7.9363,-7.9667,-8.1156,-8.3228,-8.5738,-8.7151,-8.8404,-9.0429,-9.1346,-9.2034,-9.3323,-9.3455,-9.3317,-9.3547,-9.3638,-9.3638,-9.3638,-9.3409,-9.3178,-9.2944,-9.1923,-9.1686,-9.3329,-9.3457,-9.3623,-9.4295,-9.4363,-9.4283,-9.3971,-9.4168,-9.4144,-9.363,-9.383,-9.3889,-9.363,-9.3571,-9.3571,-9.3571,-9.3571,-9.3571,-9.3571,-9.3571,-9.3571,-9.3571,-9.3571,-9.3571,-9.3571,-9.3571,-9.3571,-0.8479,-1.05,-1.2216,-1.2377,-1.2359,-1.2257,-1.2244,0.0,-1.4769,-1.4744,0.0,-1.7902,-1.7922,0.0,0.0,-1.8225,-1.8441,-1.8935,-1.9982,-1.996,-1.9381,-1.7971,-1.8075,-1.8943,-2.0757,-2.4309,-2.6619,-2.6881,-2.8691,-3.013,-3.1048,-3.3127,-3.4574,-3.5107,-3.8471,-4.0503,-4.0867,-4.2596,-4.3636,-4.4026,-4.6306,-4.8517,-5.0688,-5.2865,-5.5252,-5.7704,-5.9177,-6.0312,-6.1278,-6.359,-6.4993,-6.565,-6.5709,-6.7033,-6.8911,-6.8911,-6.9859,-7.1333,-7.2861,-7.3924,-7.5044,-7.7176,-7.8855,-8.031,-8.1629,-8.2968,-8.4329,-8.5984,-8.7793,-8.9685,-9.1742,-9.2014,-9.2448,-9.5567,-9.5426,-9.4891,-9.6027,-9.6262,-9.6262,-9.6262,-9.5384,-9.4248,-9.3084,-9.3859,-9.4701,-9.4954,-9.609,-9.6977,-9.7048,-9.7083,-9.6622,-9.5418,-9.6362,-9.6135,-9.3772,-9.4635,-9.4769,-9.3689,-9.3571,-9.3571,-9.3571,-9.3571,-9.3571,-9.3571,-9.3571,-9.3571,-9.3571,-9.3571,-9.3571,-9.3571,-9.3571,-9.3571,-0.8828,-1.0934,-1.2501,-1.2501,-1.2461,-1.2692,-1.3793,-1.4686,-1.5563,-1.6627,0.0,0.0,0.0,0.0,0.0,0.0,-2.4394,-2.5182,-2.5682,-2.6434,-2.5871,-2.3047,-2.3019,-2.4109,-2.6258,-2.8075,-2.9115,-2.9115,-3.1149,-3.3038,-3.4662,-3.6849,-3.8859,-4.0421,-4.2058,-4.3404,-4.4482,-4.5254,-4.6684,-4.8695,-5.0398,-5.2207,-5.408,-5.5797,-5.7602,-5.9475,-6.0176,-6.1938,-6.4292,-6.5684,-6.7161,-6.8576,-6.8981,-6.9184,-6.9317,-7.0143,-7.142,-7.2789,-7.3361,-7.492,-7.7011,-7.9453,-8.0707,-8.1593,-8.3806,-8.4786,-8.5662,-8.7923,-8.9126,-9.0342,-9.29,-9.3401,-9.3824,-9.6162,-9.6262,-9.6027,-9.6608,-9.6685,-9.6685,-9.6685,-9.6262,-9.5749,-9.5181,-9.5142,-9.5438,-9.6225,-9.698,-9.7499,-9.7499,-9.7499,-9.7249,-9.669,-9.7149,-9.7083,-9.5957,-9.6362,-9.6415,-9.5904,-9.585,-9.5472,-9.4747,-9.4691,-9.4329,-9.363,-9.3571,-9.3571,-9.3571,-9.3571,-9.3571,-9.3571,-9.3571,-9.3571,-0.9735,-1.1358,-1.2663,-1.324,-1.3373,-1.3838,-1.574,-1.672,-1.7546,-1.8885,-2.0692,0.0,0.0,0.0,-2.7376,-2.8044,0.0,-3.0479,-3.0754,-3.1848,-3.1312,-2.7772,-2.818,-2.9481,-3.1548,-3.2157,-3.2523,-3.2523,-3.4564,-3.6602,-3.8356,-4.0219,-4.2037,-4.3824,-4.4936,-4.6127,-4.7479,-4.837,-5.013,-5.2666,-5.3878,-5.5317,-5.6908,-5.8138,-5.9843,-6.1763,-6.1763,-6.3776,-6.7074,-6.7574,-6.8924,-7.0759,-7.1628,-7.1333,-7.056,-7.1605,-7.2914,-7.4189,-7.4189,-7.6053,-7.8873,-8.1145,-8.2106,-8.2806,-8.5199,-8.6139,-8.6887,-8.9405,-9.028,-9.1115,-9.3635,-9.4299,-9.4703,-9.6318,-9.6685,-9.6685,-9.6685,-9.6685,-9.6685,-9.6685,-9.6685,-9.6685,-9.6685,-9.6442,-9.6581,-9.7535,-9.8182,-9.8597,-9.8597,-9.8597,-9.8456,-9.8121,-9.8361,-9.8313,-9.7548,-9.7879,-9.7892,-9.7499,-9.7499,-9.7048,-9.61,-9.6047,-9.5635,-9.4669,-9.4669,-9.4669,-9.4669,-9.4669,-9.4669,-9.4669,-9.3913,-9.3571,-1.2003,-1.2539,-1.2993,-1.5155,-1.5521,-1.5913,-1.8033,-2.0168,-2.1802,-2.1866,-2.3493,-2.5548,-2.7364,0.0,0.0,0.0,0.0,0.0,0.0,-3.4911,-3.4599,-3.1215,-3.2711,-3.4335,-3.5257,-3.6968,-3.802,-3.802,-3.9845,-4.1147,-4.1614,-4.2259,-4.275,-4.3309,-4.7051,-4.9046,-4.911,-5.2471,-5.4208,-5.4355,-5.5569,-5.6973,-5.8636,-5.9844,-6.2114,-6.4947,-6.4947,-6.6564,-6.9191,-6.9223,-7.0054,-7.1519,-7.2946,-7.3464,-7.3431,-7.3515,-7.4406,-7.5628,-7.5628,-7.7396,-7.99,-8.139,-8.2661,-8.3861,-8.5418,-8.6692,-8.7985,-8.9573,-9.0868,-9.2134,-9.3859,-9.4299,-9.4703,-9.6318,-9.6685,-9.6685,-9.6685,-9.6685,-9.6685,-9.6685,-9.6685,-9.6685,-9.6685,-9.7929,-9.8989,-9.9029,-10.0386,-10.1413,-10.1413,-10.1413,-10.0892,-9.9587,-10.0603,-10.0317,-9.7696,-9.8691,-9.8913,-9.7548,-9.7499,-9.7449,-9.7449,-9.7449,-9.7435,-9.7385,-9.7349,-9.7349,-9.7349,-9.7349,-9.7349,-9.7299,-9.4782,-9.3571,-1.4038,-1.4948,-1.5458,-1.7626,-1.8125,-1.862,-2.0715,-2.2818,-2.4263,-2.4097,-2.6712,-2.87,-2.7773,0.0,0.0,0.0,0.0,0.0,0.0,-4.0621,-4.2044,-4.2741,-4.0725,-4.0043,-4.2025,-4.1483,-4.1103,-4.1103,-4.1692,-4.2776,-4.446,-4.639,-4.8252,-4.9903,-5.1697,-5.2654,-5.2654,-5.3822,-5.4918,-5.5935,-5.7243,-5.919,-6.1637,-6.2945,-6.4912,-6.7219,-6.7219,-6.8825,-7.1476,-7.1476,-7.2575,-7.4306,-7.4785,-7.5397,-7.599,-7.5239,-7.5258,-7.5954,-7.7719,-7.9431,-8.1148,-8.3425,-8.4411,-8.5175,-8.75,-8.8503,-8.9166,-9.0735,-9.1472,-9.217,-9.3859,-9.4299,-9.4703,-9.6318,-9.6685,-9.6685,-9.6685,-9.6685,-9.6685,-9.6685,-9.6685,-9.6685,-9.6685,-9.7603,-9.8484,-9.9035,-10.0503,-10.1494,-10.1494,-10.1494,-10.1299,-10.0892,-10.1218,-10.1099,-10.0231,-10.0603,-10.0609,-10.0224,-10.0108,-9.9757,-9.8867,-9.8785,-9.8408,-9.7499,-9.7499,-9.7499,-9.7499,-9.7499,-9.7499,-9.7449,-9.6571,-9.6187,-1.666,-1.7408,-1.7845,-2.0038,-2.0544,-2.1035,-2.3072,-2.4662,-2.581,-2.6371,-2.8371,-3.0041,-2.9889,-3.2175,0.0,0.0,0.0,0.0,0.0,-4.472,-4.6637,-4.9586,-4.6645,-4.4965,-4.6499,-4.5649,-4.4844,-4.4304,-4.4786,-4.5723,-4.7172,-4.9351,-5.1363,-5.303,-5.4683,-5.568,-5.5965,-5.6928,-5.8099,-5.9321,-6.0486,-6.2103,-6.4277,-6.5355,-6.6976,-6.8992,-6.8992,-7.0647,-7.3307,-7.3726,-7.483,-7.6312,-7.6736,-7.7292,-7.7779,-7.669,-7.6508,-7.7178,-7.9504,-8.0986,-8.2299,-8.458,-8.5582,-8.6355,-8.869,-8.9382,-8.9748,-9.1363,-9.1803,-9.2134,-9.3492,-9.4079,-9.463,-9.5951,-9.6502,-9.6685,-9.6685,-9.6685,-9.6685,-9.6685,-9.6685,-9.6685,-9.6685,-9.7346,-9.808,-9.8594,-9.9989,-10.109,-10.109,-10.1274,-10.1494,-10.1494,-10.1494,-10.1494,-10.1494,-10.1494,-10.1494,-10.1494,-10.1494,-10.1136,-10.0195,-10.0188,-10.0424,-10.073,-9.9534,-9.9498,-10.0683,-9.9498,-9.8913,-9.8913,-9.8913,-9.8913]},{"header":{"parameterUnit":"m.s-1","parameterCategory":1,"la1":30.6,"la2":29.2853,"lo1":-89.7004,"lo2":-87.6739,"dy":0.0162,"dx":0.0183,"nx":112,"ny":82,"refTime":"2023-10-09T00:00:00:Z","depth":0,"parameterNumber":3,"parameterNumberName":"V-component_of_WINDS"},"data":[0.0,0.0,0.0,0.0,0.0,0.0,0.0,0.0,0.0,0.0,0.0,0.0,0.0,0.0,0.0,0.0,0.0,0.0,0.0,0.0,0.0,0.0,0.0,0.0,0.0,0.0,0.0,0.0,0.0,0.0,0.0,0.0,0.0,0.0,0.0,0.0,0.0,0.0,0.0,0.0,0.0,0.0,0.0,0.0,0.0,0.0,0.0,0.0,0.0,0.0,0.0,0.0,0.0,0.0,0.0,0.0,0.0,0.0,0.0,0.0,0.0,0.0,0.0,0.0,0.0,0.0,0.0,0.0,0.0,0.0,0.0,0.0,0.0,0.0,0.0,0.0,0.0,0.0,0.0,0.0,0.0,0.0,0.0,0.0,0.0,0.0,0.0,0.0,0.0,0.0,6.1839,6.5933,7.1413,7.4525,7.3883,7.2631,6.9891,6.5222,0.0,0.0,0.0,0.0,0.0,0.0,0.0,0.0,0.0,0.0,0.0,0.0,0.0,0.0,0.0,0.0,0.0,0.0,0.0,0.0,0.0,0.0,0.0,0.0,0.0,0.0,0.0,0.0,0.0,0.0,0.0,0.0,0.0,0.0,0.0,0.0,0.0,0.0,0.0,0.0,0.0,0.0,0.0,0.0,0.0,0.0,0.0,0.0,0.0,0.0,0.0,0.0,0.0,0.0,0.0,0.0,0.0,0.0,0.0,0.0,0.0,0.0,0.0,0.0,0.0,0.0,0.0,0.0,0.0,0.0,0.0,0.0,0.0,0.0,0.0,0.0,0.0,0.0,0.0,0.0,0.0,0.0,0.0,0.0,0.0,0.0,0.0,0.0,0.0,0.0,0.0,0.0,0.0,0.0,0.0,0.0,0.0,0.0,0.0,0.0,0.0,0.0,0.0,0.0,6.3294,6.891,7.3138,7.5473,7.5371,7.1819,6.8707,6.6609,0.0,0.0,0.0,0.0,0.0,0.0,0.0,0.0,0.0,0.0,0.0,0.0,0.0,0.0,0.0,0.0,0.0,0.0,0.0,0.0,0.0,0.0,0.0,0.0,0.0,0.0,0.0,0.0,0.0,0.0,0.0,0.0,0.0,0.0,0.0,0.0,0.0,0.0,0.0,0.0,0.0,0.0,0.0,0.0,0.0,0.0,0.0,0.0,0.0,0.0,0.0,0.0,0.0,0.0,0.0,0.0,0.0,0.0,0.0,0.0,0.0,0.0,0.0,0.0,0.0,0.0,0.0,0.0,0.0,0.0,0.0,0.0,0.0,0.0,0.0,0.0,0.0,0.0,0.0,0.0,0.0,0.0,0.0,0.0,0.0,0.0,0.0,0.0,0.0,0.0,0.0,0.0,0.0,0.0,0.0,0.0,0.0,0.0,0.0,0.0,0.0,0.0,0.0,6.2888,6.6102,7.0872,7.3984,7.5709,7.5709,7.1988,6.8876,6.6948,6.3971,0.0,0.0,0.0,0.0,0.0,0.0,0.0,0.0,0.0,0.0,0.0,0.0,0.0,0.0,0.0,0.0,0.0,0.0,0.0,0.0,0.0,0.0,0.0,0.0,0.0,0.0,0.0,0.0,0.0,0.0,0.0,0.0,0.0,0.0,0.0,0.0,0.0,0.0,0.0,0.0,0.0,0.0,0.0,0.0,0.0,0.0,0.0,0.0,0.0,0.0,0.0,0.0,0.0,0.0,0.0,0.0,0.0,0.0,0.0,0.0,0.0,0.0,0.0,0.0,0.0,0.0,0.0,0.0,0.0,0.0,0.0,0.0,0.0,0.0,0.0,0.0,0.0,0.0,0.0,0.0,0.0,0.0,0.0,0.0,0.0,0.0,0.0,0.0,0.0,0.0,0.0,0.0,0.0,0.0,0.0,0.0,0.0,0.0,0.0,0.0,0.0,0.0,6.5797,6.8571,7.2496,7.4593,7.5709,7.5709,7.2157,6.9045,6.6948,6.3159,0.0,0.0,0.0,0.0,0.0,0.0,0.0,0.0,0.0,0.0,0.0,0.0,0.0,0.0,0.0,0.0,0.0,0.0,0.0,0.0,0.0,0.0,0.0,0.0,0.0,0.0,0.0,0.0,0.0,0.0,0.0,0.0,0.0,0.0,0.0,0.0,0.0,0.0,0.0,0.0,0.0,0.0,0.0,0.0,0.0,0.0,0.0,0.0,0.0,0.0,0.0,0.0,0.0,0.0,0.0,0.0,0.0,0.0,0.0,0.0,0.0,0.0,0.0,0.0,0.0,0.0,0.0,0.0,0.0,0.0,0.0,0.0,0.0,0.0,0.0,0.0,0.0,0.0,0.0,0.0,0.0,0.0,0.0,0.0,0.0,0.0,0.0,0.0,0.0,0.0,0.0,0.0,0.0,0.0,0.0,0.0,0.0,0.0,0.0,0.0,0.0,0.0,6.688,6.9519,7.3984,7.5202,7.5709,7.5709,7.1684,6.8504,6.6914,6.2651,0.0,0.0,0.0,0.0,0.0,0.0,0.0,0.0,0.0,0.0,0.0,0.0,0.0,0.0,0.0,0.0,0.0,0.0,0.0,0.0,0.0,0.0,0.0,0.0,0.0,0.0,0.0,0.0,0.0,0.0,0.0,0.0,0.0,0.0,0.0,0.0,0.0,0.0,0.0,0.0,0.0,0.0,0.0,0.0,0.0,0.0,0.0,0.0,0.0,0.0,0.0,0.0,0.0,0.0,0.0,0.0,0.0,0.0,0.0,0.0,0.0,0.0,0.0,0.0,0.0,0.0,0.0,0.0,0.0,0.0,0.0,0.0,0.0,0.0,0.0,0.0,0.0,0.0,0.0,0.0,0.0,0.0,0.0,0.0,0.0,0.0,0.0,0.0,0.0,0.0,0.0,0.0,0.0,0.0,0.0,0.0,0.0,0.0,0.0,0.0,0.0,0.0,6.753,7.0285,7.4166,7.527,7.5506,7.5067,7.1785,6.8741,6.6271,0.0,0.0,0.0,0.0,0.0,0.0,0.0,0.0,0.0,0.0,0.0,0.0,0.0,0.0,0.0,0.0,0.0,0.0,0.0,0.0,0.0,0.0,0.0,0.0,0.0,0.0,0.0,0.0,0.0,0.0,0.0,0.0,0.0,0.0,0.0,0.0,0.0,0.0,0.0,0.0,0.0,0.0,0.0,0.0,0.0,0.0,0.0,0.0,0.0,0.0,0.0,0.0,0.0,0.0,0.0,0.0,0.0,0.0,0.0,0.0,0.0,0.0,0.0,0.0,0.0,0.0,0.0,0.0,0.0,0.0,0.0,0.0,0.0,0.0,0.0,0.0,0.0,0.0,0.0,0.0,0.0,0.0,0.0,0.0,0.0,0.0,0.0,0.0,0.0,0.0,0.0,0.0,0.0,0.0,0.0,0.0,0.0,0.0,0.0,0.0,0.0,0.0,6.6046,6.8372,7.1139,7.5037,7.5404,7.5168,7.4661,7.1726,6.8947,6.663,0.0,0.0,0.0,0.0,0.0,0.0,0.0,0.0,0.0,0.0,0.0,0.0,0.0,0.0,0.0,0.0,0.0,0.0,0.0,0.0,0.0,0.0,0.0,0.0,0.0,0.0,0.0,0.0,0.0,0.0,0.0,0.0,0.0,0.0,0.0,0.0,0.0,0.0,0.0,0.0,0.0,0.0,0.0,0.0,0.0,0.0,0.0,0.0,0.0,0.0,0.0,0.0,0.0,0.0,0.0,0.0,0.0,0.0,0.0,0.0,0.0,0.0,0.0,0.0,0.0,0.0,0.0,0.0,0.0,0.0,0.0,0.0,0.0,0.0,0.0,0.0,0.0,0.0,0.0,0.0,0.0,0.0,0.0,0.0,0.0,0.0,0.0,0.0,0.0,0.0,0.0,0.0,0.0,0.0,0.0,0.0,0.0,0.0,0.0,0.0,0.0,0.0,6.7791,6.9614,7.2195,7.6816,7.5675,7.464,7.464,7.1353,6.8972,0.0,0.0,0.0,0.0,0.0,0.0,0.0,0.0,0.0,0.0,0.0,0.0,0.0,0.0,0.0,0.0,0.0,0.0,0.0,0.0,0.0,0.0,0.0,0.0,0.0,0.0,0.0,0.0,0.0,0.0,0.0,0.0,0.0,0.0,0.0,0.0,0.0,0.0,0.0,0.0,0.0,0.0,0.0,0.0,0.0,0.0,0.0,0.0,0.0,0.0,0.0,0.0,0.0,0.0,0.0,0.0,0.0,0.0,0.0,0.0,0.0,0.0,0.0,0.0,0.0,0.0,0.0,0.0,0.0,0.0,0.0,0.0,0.0,0.0,0.0,0.0,0.0,0.0,0.0,0.0,0.0,0.0,0.0,0.0,0.0,0.0,0.0,0.0,0.0,0.0,0.0,0.0,0.0,0.0,0.0,0.0,0.0,0.0,0.0,0.0,0.0,0.0,0.0,6.7173,7.041,7.3789,7.7303,7.718,7.6377,7.5259,7.2212,6.9556,6.7692,0.0,0.0,0.0,0.0,0.0,0.0,0.0,0.0,0.0,0.0,0.0,0.0,0.0,0.0,0.0,0.0,0.0,0.0,0.0,0.0,0.0,0.0,0.0,0.0,0.0,0.0,0.0,0.0,0.0,0.0,0.0,0.0,0.0,0.0,0.0,0.0,0.0,0.0,0.0,0.0,0.0,0.0,0.0,0.0,0.0,0.0,0.0,0.0,0.0,0.0,0.0,0.0,0.0,0.0,0.0,0.0,0.0,0.0,0.0,0.0,0.0,0.0,0.0,0.0,0.0,0.0,0.0,0.0,0.0,0.0,0.0,0.0,0.0,0.0,0.0,0.0,0.0,0.0,0.0,0.0,0.0,0.0,0.0,0.0,0.0,0.0,0.0,0.0,0.0,0.0,0.0,0.0,0.0,0.0,0.0,0.0,0.0,0.0,0.0,0.0,0.0,0.0,6.8433,7.1187,7.4254,7.8046,7.7479,7.6466,7.5511,7.2619,7.0125,6.8411,0.0,0.0,0.0,0.0,0.0,0.0,0.0,0.0,0.0,0.0,0.0,0.0,0.0,0.0,0.0,0.0,0.0,0.0,0.0,0.0,0.0,0.0,0.0,0.0,0.0,0.0,0.0,0.0,0.0,0.0,0.0,0.0,0.0,0.0,0.0,0.0,0.0,0.0,0.0,0.0,0.0,0.0,0.0,0.0,0.0,0.0,0.0,0.0,0.0,0.0,0.0,0.0,0.0,0.0,0.0,0.0,0.0,0.0,0.0,0.0,0.0,0.0,0.0,0.0,0.0,0.0,0.0,0.0,0.0,0.0,0.0,0.0,0.0,0.0,0.0,0.0,0.0,0.0,0.0,0.0,0.0,0.0,0.0,0.0,0.0,0.0,0.0,0.0,0.0,0.0,0.0,0.0,0.0,0.0,0.0,0.0,0.0,0.0,0.0,0.0,0.0,0.0,7.0599,7.181,7.4088,7.8816,7.7123,7.5636,7.5494,7.2859,7.0906,7.0008,0.0,0.0,0.0,0.0,0.0,0.0,0.0,0.0,0.0,0.0,0.0,0.0,0.0,0.0,0.0,0.0,0.0,0.0,0.0,0.0,0.0,0.0,0.0,0.0,0.0,0.0,0.0,0.0,0.0,0.0,0.0,0.0,0.0,0.0,0.0,0.0,0.0,0.0,0.0,0.0,0.0,0.0,0.0,0.0,0.0,0.0,0.0,0.0,0.0,0.0,0.0,0.0,0.0,0.0,0.0,0.0,0.0,0.0,0.0,0.0,6.3235,6.2921,0.0,0.0,0.0,0.0,0.0,0.0,0.0,0.0,0.0,0.0,0.0,0.0,0.0,0.0,0.0,0.0,0.0,0.0,0.0,0.0,0.0,0.0,0.0,0.0,0.0,0.0,0.0,0.0,0.0,0.0,0.0,0.0,0.0,0.0,0.0,0.0,0.0,0.0,0.0,0.0,6.9979,7.2085,7.4757,7.8377,7.8252,7.7389,7.6045,7.4226,7.2489,7.107,6.9485,0.0,0.0,0.0,0.0,0.0,0.0,0.0,0.0,0.0,0.0,0.0,0.0,0.0,0.0,0.0,0.0,0.0,0.0,0.0,0.0,0.0,0.0,0.0,0.0,0.0,0.0,0.0,0.0,0.0,0.0,0.0,0.0,0.0,0.0,0.0,0.0,0.0,0.0,0.0,0.0,0.0,0.0,0.0,0.0,0.0,0.0,0.0,0.0,0.0,0.0,0.0,0.0,0.0,0.0,0.0,0.0,0.0,0.0,0.0,6.5668,6.4433,0.0,0.0,0.0,0.0,0.0,0.0,0.0,0.0,0.0,0.0,0.0,0.0,0.0,0.0,0.0,0.0,0.0,0.0,0.0,0.0,0.0,0.0,0.0,0.0,0.0,0.0,0.0,0.0,0.0,0.0,0.0,0.0,0.0,0.0,0.0,0.0,0.0,0.0,0.0,0.0,7.0864,7.2695,7.4955,7.8259,7.8222,7.7488,7.6203,7.4625,7.301,7.1431,6.9816,0.0,0.0,0.0,0.0,0.0,0.0,0.0,0.0,0.0,0.0,0.0,0.0,0.0,0.0,0.0,0.0,0.0,0.0,0.0,0.0,0.0,0.0,0.0,0.0,0.0,0.0,0.0,0.0,0.0,0.0,0.0,0.0,0.0,0.0,0.0,0.0,0.0,0.0,0.0,0.0,0.0,0.0,0.0,0.0,0.0,0.0,0.0,0.0,0.0,0.0,0.0,0.0,0.0,6.7323,6.8408,6.9752,6.9871,7.1023,7.2716,6.8715,6.6659,6.6072,6.5264,0.0,0.0,0.0,0.0,0.0,0.0,0.0,0.0,0.0,0.0,0.0,0.0,0.0,0.0,0.0,0.0,0.0,0.0,0.0,0.0,0.0,0.0,6.8017,6.8421,6.9669,7.0734,7.0734,0.0,0.0,0.0,0.0,0.0,0.0,0.0,0.0,0.0,0.0,0.0,7.2312,7.3303,7.4882,7.8038,7.7598,7.679,7.5946,7.4551,7.3083,7.1615,7.0,6.921,0.0,0.0,0.0,0.0,0.0,0.0,0.0,0.0,0.0,0.0,0.0,0.0,0.0,0.0,0.0,0.0,0.0,0.0,0.0,0.0,0.0,0.0,0.0,0.0,0.0,0.0,0.0,0.0,0.0,0.0,0.0,0.0,5.8502,6.0006,0.0,0.0,0.0,0.0,0.0,0.0,0.0,0.0,0.0,0.0,0.0,0.0,0.0,6.7799,7.0006,7.0153,7.0621,7.1578,7.2372,7.2849,7.3083,7.3802,7.4279,7.4551,7.3927,0.0,6.9412,6.8605,0.0,0.0,0.0,0.0,0.0,0.0,0.0,0.0,0.0,0.0,0.0,0.0,0.0,0.0,0.0,0.0,0.0,0.0,0.0,0.0,0.0,0.0,6.9265,7.1358,7.2569,7.323,7.323,7.1505,6.9926,6.9926,6.9229,6.8568,0.0,0.0,0.0,0.0,0.0,0.0,7.312,7.3634,7.4661,7.72,7.6754,7.5946,7.5139,7.4221,7.3303,7.2422,7.0844,7.0485,7.1739,6.9508,0.0,0.0,0.0,0.0,0.0,0.0,0.0,0.0,0.0,0.0,0.0,0.0,0.0,0.0,0.0,0.0,0.0,0.0,0.0,0.0,0.0,0.0,0.0,0.0,0.0,0.0,0.0,0.0,0.0,5.9965,6.0985,6.1714,6.2626,6.3085,0.0,0.0,0.0,0.0,0.0,0.0,0.0,0.0,0.0,6.9155,6.9963,7.0917,7.1982,7.2422,7.3046,7.3854,7.5139,7.5983,7.646,7.7304,7.7892,7.8295,7.7855,7.6607,7.4625,7.1541,6.9119,6.7247,0.0,0.0,0.0,0.0,6.6549,6.7393,6.7834,6.8017,6.7981,6.7871,0.0,0.0,0.0,0.0,0.0,0.0,0.0,6.7687,6.9302,7.066,7.1872,7.2899,7.378,7.4368,7.4368,7.356,7.2422,7.1064,7.011,6.9559,6.9559,6.9265,0.0,0.0,0.0,7.1101,7.3377,7.4074,7.5139,7.709,7.6607,7.5763,7.4992,7.3744,7.2814,7.2314,7.0776,7.0301,7.1201,6.976,6.921,0.0,0.0,0.0,0.0,0.0,0.0,0.0,0.0,0.0,0.0,0.0,0.0,0.0,0.0,0.0,0.0,0.0,0.0,0.0,0.0,0.0,0.0,0.0,0.0,0.0,0.0,0.0,0.0,6.2291,6.3282,6.2853,6.4457,6.4897,0.0,0.0,0.0,0.0,0.0,0.0,6.7944,6.9559,7.1174,7.276,7.3854,7.4661,7.5285,7.5873,7.6607,7.7414,7.8626,7.9507,8.0167,8.0755,8.1342,8.1893,8.1269,8.0461,7.9176,7.4698,7.1908,7.033,6.9119,6.8274,6.7834,6.8421,6.9412,7.0513,7.1138,7.1321,7.1248,7.0624,6.9339,6.7907,6.71,0.0,0.0,0.0,0.0,6.9926,7.1733,7.3266,7.4404,7.4845,7.5579,7.6093,7.5909,7.5689,7.4808,7.2386,7.1248,7.066,7.044,7.022,0.0,7.0367,7.1101,7.2202,7.3817,7.4698,7.5763,7.7127,7.6423,7.5542,7.4955,7.3366,7.2334,7.2124,7.0718,7.0248,7.1023,7.0041,6.9871,7.0604,0.0,0.0,0.0,0.0,0.0,0.0,0.0,0.0,0.0,0.0,0.0,0.0,0.0,0.0,0.0,0.0,0.0,0.0,0.0,0.0,0.0,0.0,0.0,0.0,0.0,0.0,0.0,0.0,0.0,6.2964,6.4971,0.0,0.0,0.0,0.0,6.732,6.8898,7.0513,7.2129,7.3744,7.5329,7.6943,7.8589,8.0534,8.2847,8.292,8.3324,8.4095,8.4205,8.4278,8.4315,8.4352,8.4389,8.4425,8.4389,8.3471,8.1746,7.8405,7.6026,7.4588,7.4515,7.4478,7.4441,7.4478,7.4551,7.4625,7.4661,7.4661,7.4661,7.4625,7.3523,7.2055,7.1248,7.0477,0.0,0.0,7.1174,7.1762,7.4111,7.5359,7.6387,7.7965,7.8956,7.9323,7.8589,7.7781,7.6497,7.4037,7.2936,7.2129,7.1394,0.0,7.0367,7.1109,7.1945,7.301,7.4625,7.5542,7.635,7.72,7.5909,7.4955,7.4918,7.3182,7.2124,7.2112,7.1074,7.108,7.2465,7.0937,7.0697,7.2063,7.0486,0.0,0.0,0.0,0.0,0.0,0.0,0.0,0.0,0.0,0.0,0.0,0.0,0.0,0.0,0.0,0.0,0.0,0.0,0.0,0.0,0.0,0.0,0.0,0.0,0.0,0.0,0.0,0.0,6.8238,7.044,0.0,6.9963,6.9889,7.0403,7.1468,7.2569,7.4147,7.6313,7.8442,8.0351,8.1966,8.3581,8.4866,8.571,8.5747,8.5857,8.6151,8.6151,8.6151,8.6151,8.6151,8.6151,8.6151,8.6151,8.5527,8.4425,8.3251,8.0277,7.6393,7.5873,7.5359,7.4955,7.5469,7.6019,7.6503,7.7084,7.69,7.6246,7.5249,7.4515,7.3891,7.3083,7.301,7.3266,7.356,7.4338,7.5476,7.69,7.7892,7.8626,7.9213,7.958,7.969,7.9433,7.914,7.8479,7.7121,7.5322,7.3964,7.367,7.3377,7.3303,7.3597,7.3854,7.4441,7.5542,7.5469,7.5652,7.646,7.4929,7.3875,7.3875,7.2171,7.1234,7.1552,7.0745,7.0615,7.1475,7.0929,7.0849,7.136,7.1439,7.0965,0.0,0.0,0.0,0.0,0.0,0.0,0.0,0.0,0.0,0.0,0.0,0.0,0.0,0.0,0.0,0.0,0.0,0.0,0.0,0.0,0.0,0.0,0.0,0.0,0.0,6.8788,7.1615,7.2422,7.5139,7.6423,7.5065,7.4955,7.5395,7.6497,7.7561,7.925,8.1709,8.3361,8.4976,8.6591,8.7655,8.8353,8.8647,8.8647,8.8647,8.861,8.861,8.861,8.861,8.861,8.8463,8.8206,8.8206,8.7619,8.6591,8.6591,8.4205,8.0429,7.9103,7.8259,7.7818,7.8075,7.8516,7.9066,7.9617,7.925,7.8369,7.7304,7.6607,7.6056,7.5506,7.5542,7.5799,7.6093,7.6937,7.8002,7.9103,7.98,8.0277,8.0534,8.0608,8.0608,8.0608,8.0388,8.0057,7.9507,7.7414,7.5652,7.5359,7.5102,7.4808,7.4551,7.4955,7.5322,7.5285,7.5456,7.5703,7.5961,7.4566,7.3602,7.3602,7.1848,7.0934,7.1301,7.0724,7.0524,7.0885,7.0898,7.1081,7.1428,7.2481,7.2452,7.1287,0.0,0.0,0.0,0.0,0.0,0.0,0.0,0.0,0.0,0.0,0.0,0.0,0.0,0.0,0.0,0.0,0.0,0.0,0.0,0.0,0.0,0.0,0.0,6.7944,7.2753,7.6019,7.5322,7.8809,8.0314,7.7897,7.9103,8.0718,8.2333,8.3875,8.5783,8.8169,8.8353,8.9087,9.0629,9.0702,9.1106,9.195,9.195,9.1913,9.1877,9.1877,9.1877,9.1877,9.1877,9.1436,9.0702,9.0702,8.9784,8.8316,8.828,8.7802,8.6811,8.4425,8.3471,8.3398,8.2553,8.2223,8.2186,8.2186,8.1672,8.1048,8.1048,7.9984,7.8699,7.8662,7.8112,7.7604,7.8442,7.8699,7.9066,8.0645,8.1048,8.1232,8.2003,8.2186,8.2186,8.2186,8.1562,8.1012,8.1012,7.9029,7.709,7.6313,7.5506,7.4735,7.3927,7.5168,0.0,7.4022,7.568,7.6681,7.5887,7.4812,7.4196,7.4196,7.2415,7.1336,7.1374,7.1121,7.095,7.0989,7.1002,7.1491,7.2579,7.3511,7.4042,7.4087,0.0,0.0,0.0,0.0,0.0,0.0,0.0,0.0,0.0,0.0,0.0,0.0,0.0,0.0,0.0,0.0,0.0,0.0,0.0,0.0,0.0,7.1358,7.378,7.378,7.7157,8.0424,8.2553,8.5343,8.6848,8.6116,8.5967,8.6554,8.8169,8.8169,8.8904,9.0702,9.14,9.195,9.2391,9.2978,9.3382,9.3639,9.3639,9.3639,9.3602,9.3602,9.3602,9.3602,9.3602,9.3492,9.3235,9.2684,9.1803,9.0776,9.0188,8.9124,8.7692,8.5857,8.5123,8.4976,8.3581,8.27,8.2186,8.2186,8.2039,8.1856,8.1856,8.1562,8.1085,8.0534,8.0571,8.0791,8.0461,8.0755,8.1305,8.1746,8.1856,8.1929,8.215,8.2186,8.2186,8.2186,8.1562,8.1012,8.1012,7.9507,7.8185,7.7965,7.7231,7.654,7.635,7.7082,7.7302,7.6235,7.6506,7.647,7.568,7.4623,7.3992,7.3992,7.2718,7.224,7.2839,7.2366,7.2352,7.2971,7.3094,7.3651,7.4722,7.4407,7.4889,0.0,0.0,0.0,0.0,0.0,0.0,0.0,0.0,0.0,0.0,0.0,0.0,0.0,0.0,0.0,0.0,0.0,0.0,0.0,0.0,0.0,0.0,7.5652,7.8993,8.1342,8.303,8.5086,8.7949,9.0188,9.1473,9.1473,9.1033,9.1143,9.2097,9.173,9.2024,9.3272,9.3529,9.3896,9.4593,9.474,9.496,9.529,9.529,9.529,9.529,9.529,9.529,9.529,9.529,9.4923,9.4263,9.3822,9.2905,9.1767,9.1289,9.0335,8.9014,0.0,0.0,0.0,0.0,8.2884,8.2186,8.2186,8.2186,8.2186,8.2186,8.2186,8.2113,8.1636,8.1819,8.2113,8.1636,8.1819,8.2186,8.2186,8.2186,8.2186,8.2186,8.2186,8.2186,8.2186,8.1819,8.1475,8.1416,8.0332,0.0,7.9363,7.8459,7.7678,7.7608,7.7909,7.7717,7.6518,7.6459,7.6221,7.5425,7.4671,7.4238,7.4238,7.3307,0.0,0.0,0.0,7.3307,7.3876,7.4749,0.0,0.0,0.0,7.7139,7.8242,7.7734,0.0,0.0,7.6794,7.6914,0.0,0.0,0.0,0.0,0.0,0.0,0.0,0.0,0.0,0.0,0.0,0.0,0.0,0.0,0.0,0.0,8.0167,8.3838,8.9197,8.9417,8.9784,9.184,9.3529,9.452,9.4446,9.4446,9.452,9.4666,9.452,9.4813,9.5731,9.4997,0.0,0.0,0.0,9.5988,9.6685,9.6685,9.6685,9.6685,9.6685,9.6685,9.6685,9.68,9.5955,9.441,9.4411,9.3492,9.1913,9.173,9.1069,9.0005,8.7839,8.6444,8.549,8.3985,8.2884,8.2186,8.2186,0.0,0.0,8.2186,8.2186,8.2186,8.2186,8.2186,8.2186,8.2186,8.2186,8.2186,8.2186,8.2186,8.2219,8.2279,8.2311,8.2311,8.2439,8.2329,8.2253,8.2043,8.1298,8.0645,8.0509,7.9329,7.8352,7.8148,7.8074,7.7477,7.5912,7.614,7.6099,7.5295,7.5072,0.0,7.5033,7.4379,7.4076,7.441,7.4412,7.4503,7.4625,7.6314,7.7215,7.7215,7.8939,7.9882,7.996,8.0077,8.0544,8.1323,7.9687,7.9336,0.0,0.0,0.0,0.0,0.0,0.0,0.0,0.0,0.0,0.0,0.0,0.0,0.0,0.0,0.0,8.0608,8.4939,8.9087,9.2831,9.3786,9.4042,9.3822,9.5254,9.5988,9.5327,9.529,9.5804,9.7089,9.5988,9.5914,9.7346,9.6685,9.6392,9.6685,9.6539,9.6539,9.6685,9.6685,9.6685,9.6685,9.6685,0.0,9.6724,9.7317,9.6727,9.5255,9.5205,9.4286,9.2758,9.14,8.9601,8.7655,8.7178,8.6114,8.4719,8.3765,8.2884,8.2186,8.2186,8.2186,8.2186,8.2186,8.2186,8.2186,8.2186,8.2186,0.0,8.2186,8.2186,8.2186,8.2186,8.2186,8.2343,8.2883,8.3024,8.3132,8.3704,8.3273,8.276,8.2699,8.1519,8.0679,8.114,7.9993,7.902,7.8972,7.8803,7.833,7.734,7.7152,7.6778,7.5933,7.6393,7.6875,7.7016,7.6912,7.7211,7.8084,7.824,7.8398,7.8583,7.894,7.9177,7.9177,8.0195,8.101,8.1545,8.2248,8.2942,8.3533,8.2205,8.1946,0.0,0.0,0.0,0.0,0.0,0.0,0.0,0.0,0.0,0.0,0.0,7.1211,7.2826,0.0,8.1085,8.5159,8.8536,9.1657,9.452,9.5584,9.5951,9.5547,9.6208,9.6539,9.6135,9.6098,9.6428,9.7236,9.6539,9.6465,9.7273,9.6906,9.6685,9.6685,9.7064,9.7064,9.6685,9.7494,9.7629,9.7282,9.7663,9.7868,9.783,9.8252,9.7771,9.6634,9.6156,9.5302,9.403,9.1944,9.0156,8.8554,8.7257,8.5862,8.4421,8.3639,8.3107,8.2708,8.2708,8.2465,8.2251,8.2585,8.2465,8.2186,8.2186,8.2186,8.2284,8.2585,8.2708,8.2763,8.3103,8.3189,8.3303,8.3624,8.3704,8.3772,8.4129,8.3864,8.3507,8.343,8.2738,8.2285,8.2451,8.1537,8.0602,8.0201,7.9682,7.9037,7.8156,7.7969,7.7592,7.6746,7.7508,7.8103,7.8192,7.8375,7.8741,7.9249,7.948,7.9601,7.9687,8.0117,8.0505,8.0838,8.1697,8.2479,8.3084,8.3558,8.4136,8.4824,8.4189,8.4098,0.0,0.0,0.0,0.0,0.0,0.0,0.0,6.699,6.8715,7.0036,7.2973,7.6203,7.9029,8.1746,8.5049,8.9417,9.151,9.3308,9.5437,9.6282,9.6685,9.6685,9.6685,9.6685,9.6685,9.6685,9.6759,9.6906,9.6795,9.6759,9.6906,9.6913,9.6915,9.6915,9.7629,9.7729,9.7174,9.838,9.8682,9.8058,9.8712,9.9007,9.8969,9.8961,9.847,9.7489,9.6479,9.546,9.4394,9.2413,9.0774,8.9386,8.7348,8.5724,8.4433,8.3824,8.3499,8.3378,8.3378,8.3053,8.2678,8.3218,8.3024,8.2585,8.2585,8.2585,8.2708,8.3246,8.3378,8.3515,8.4054,8.4203,8.4228,8.4349,8.4372,8.442,8.4537,8.456,8.4506,8.4362,8.4212,8.4002,8.366,8.2862,8.2093,8.1439,8.0477,7.9554,7.8823,7.8628,7.8325,7.767,7.8498,7.9202,7.9408,7.9756,7.9957,7.9957,8.0267,8.0429,8.0387,8.1247,8.1929,8.2416,8.3274,8.3942,8.4396,8.4552,8.5,8.5612,8.5612,8.5641,6.0566,6.0786,6.1851,6.3429,6.5558,6.7834,0.0,7.2863,7.5065,7.5249,7.8479,8.1562,8.2663,8.6004,8.9491,9.2244,9.4042,9.5437,9.6428,9.6649,9.6685,9.6685,9.6685,9.6685,9.6685,9.6685,9.7016,9.7713,9.7089,9.7016,9.7713,9.7687,9.7661,9.7661,9.8436,9.8831,9.8742,9.892,9.8978,9.889,9.8978,9.9007,9.8998,9.8946,9.8059,9.6555,9.5045,9.3461,9.1967,9.1601,8.9683,8.6946,8.6571,8.5871,8.4958,8.4354,8.4117,8.4092,8.408,8.4029,8.3979,8.4054,8.4029,8.3979,8.3979,8.3979,8.3979,8.4054,8.408,8.4104,8.4179,8.4203,8.4325,8.4872,8.4978,8.5162,8.5775,8.5902,8.5881,8.5856,8.5279,8.4527,8.3747,8.2862,8.2285,8.217,8.0823,7.9746,7.9669,7.9121,7.8727,7.865,7.9573,8.0596,8.1553,8.1853,8.1991,8.1991,8.2734,8.308,8.2905,8.3721,8.4132,8.3953,8.4817,8.5212,8.5071,8.587,8.6184,8.603,8.603,8.6148,6.1851,6.3099,6.4714,6.5888,6.9082,7.2275,7.378,7.6607,7.936,8.0755,8.3911,8.6775,8.8059,9.0482,9.2758,9.4263,9.507,9.592,9.717,9.6945,9.6316,9.5351,9.5649,9.614,9.665,9.6685,9.6832,9.7163,9.7285,9.7501,9.7834,9.8245,9.8498,9.8498,9.9263,9.9455,9.8969,9.9886,10.0122,9.9706,9.9665,9.9893,10.0313,9.9835,9.8933,9.7792,9.6608,9.485,9.2809,9.2771,9.1084,8.8492,8.7945,8.7196,8.6241,8.4749,8.442,8.4718,8.4718,8.449,8.4252,8.4605,8.449,8.4203,8.4203,8.4203,8.4276,8.4628,8.4718,8.4806,8.522,8.53,8.5398,8.5627,8.5682,8.5775,8.6043,8.6094,8.5978,8.5478,8.5132,8.4632,8.3747,8.2862,8.2325,8.248,8.1464,8.0537,8.0035,8.0284,8.0742,8.1336,8.1805,8.2517,8.3615,8.3748,8.3747,8.3645,8.3994,8.4072,8.3819,8.4163,8.4498,8.4792,8.5141,8.5459,8.5728,8.6075,8.6231,8.6094,8.6094,8.6153,6.3689,6.5805,6.8025,6.9584,7.3609,7.7589,7.9072,8.1934,8.4935,8.709,8.9424,9.1465,9.2872,9.4096,9.517,9.5984,9.6317,9.6859,9.7984,9.704,9.5806,9.4604,9.4354,9.4733,9.5836,9.6399,9.6769,9.699,9.7732,9.8156,9.8156,9.889,9.9318,9.9318,10.0111,10.0195,9.9615,10.0684,10.0896,10.0176,10.011,10.0289,10.0596,9.975,9.8788,9.7711,9.7326,9.5711,9.3364,9.3095,9.1633,8.9479,8.8402,8.7594,8.6855,8.5287,8.4995,8.5379,8.5379,8.5079,8.48,8.5202,8.5079,8.4696,8.4696,8.4696,8.4823,8.5222,8.5379,8.5495,8.5971,8.6094,8.6094,8.6094,8.6094,8.6094,8.6094,8.594,8.5593,8.5016,8.4709,8.4279,8.3479,8.28,8.2389,8.2339,8.1902,8.1311,8.0619,8.1484,8.2452,8.3272,8.3591,8.4046,8.4761,8.4837,8.4739,8.4517,8.4707,8.4747,8.4494,8.4718,8.5014,8.5435,8.546,8.5642,8.6094,8.6094,8.6094,8.6094,8.6094,8.6247,6.659,6.8778,7.1421,7.4872,7.934,8.3696,8.7008,9.0219,9.2997,9.4733,9.5121,9.5395,9.6168,9.6394,9.6696,9.7525,9.8317,9.8911,9.8978,9.6809,9.5206,9.5169,9.3031,9.2175,9.3794,9.557,9.694,9.7688,9.8529,9.894,9.894,9.9706,10.0198,10.0198,10.0906,10.1288,10.1191,10.1308,10.0885,10.0077,10.0096,9.9673,9.8865,9.798,9.6673,9.5134,9.598,9.4903,9.2479,9.1633,9.0287,8.8556,8.6863,8.617,8.6132,8.606,8.606,8.6077,8.6077,8.606,8.606,8.606,8.606,8.6043,8.6043,8.6043,8.606,8.606,8.6077,8.6077,8.6094,8.6094,8.6094,8.6094,8.6094,8.6094,8.6094,8.5478,8.4939,8.4901,8.4209,8.341,8.2767,8.2634,8.2389,8.1795,8.1861,8.1899,8.1664,8.2574,8.3351,8.3554,8.4336,8.4799,8.4615,8.4607,8.4512,8.4209,8.5018,8.5388,8.5163,8.5977,8.6324,8.6088,8.6072,8.6072,8.6094,8.6094,8.6094,8.6094,8.6094,8.6555,6.9056,7.3291,7.7824,8.0108,8.4807,8.9213,9.0913,9.3418,9.5355,9.5337,9.3509,9.1833,9.1514,9.0997,9.1261,9.321,9.5188,9.7044,9.8692,9.7705,9.5805,9.3069,9.2437,9.1596,9.0012,9.2862,9.56,9.7583,9.8486,9.9188,9.9783,10.0505,10.0889,10.0889,10.119,10.1289,10.1289,10.1289,10.0904,10.0096,9.9519,9.8788,9.7942,9.7634,9.7173,9.6596,9.5788,9.4634,9.3172,9.1787,9.021,8.8556,8.7401,8.6594,8.6094,8.6094,8.6094,8.6094,8.6094,8.6094,8.6094,8.6094,8.6094,8.6094,8.6094,8.6094,8.6094,8.6094,8.6094,8.6094,8.6094,8.6094,8.6094,8.6094,8.6094,8.594,8.544,8.5093,8.4555,8.3401,8.3037,8.2703,8.1925,8.192,8.1998,8.1912,8.2435,8.2901,8.293,8.3771,8.4604,8.5273,8.5416,8.5693,8.6207,8.6122,8.5969,8.5751,8.6012,8.6066,8.5814,8.6069,8.62,8.6094,8.6094,8.6363,8.6978,8.6978,8.7248,8.7825,8.7825,8.7979,7.3648,7.8479,8.3223,8.588,8.9976,9.3631,9.4772,9.5776,9.6222,9.5361,9.2005,8.8918,8.8036,8.695,8.6799,8.8758,9.1235,9.3859,9.6659,9.5517,9.3893,9.2442,9.1656,9.0627,8.9163,9.1663,9.4338,9.6609,9.8077,9.9249,10.0091,10.0917,10.1289,10.1289,10.1289,10.1212,10.0904,10.0904,10.0289,9.9173,9.798,9.7134,9.6596,9.6288,9.598,9.5634,9.4557,9.3441,9.2249,9.0864,8.9479,8.8132,8.7286,8.6594,8.6094,8.6094,8.6094,8.6094,8.6094,8.6094,8.6094,8.6094,8.6094,8.6094,8.6094,8.6094,8.6094,8.6094,8.6094,8.6094,8.6094,8.5901,8.5747,8.6017,8.5901,8.5632,8.5401,8.5093,8.4603,8.3562,8.3205,8.2959,8.261,8.2468,8.2517,8.2969,8.3523,8.381,8.3632,8.4566,8.5457,8.6005,8.6133,8.6344,8.6831,8.6783,8.6605,8.6349,8.6373,8.6298,8.611,8.6401,8.6555,8.6555,8.6863,8.7162,8.7444,8.7444,8.7619,8.7941,8.8227,8.8532,7.999,8.4036,8.7568,9.19,9.4711,9.6826,9.8327,9.7365,9.5865,9.4749,9.0479,8.6632,8.5709,8.4286,8.3632,8.4709,8.7171,9.0133,9.348,9.1248,9.0402,9.348,9.1018,8.9671,9.1133,9.2056,9.3275,9.4967,9.7339,9.9135,10.0096,10.0904,10.1289,10.1289,10.1289,10.0904,10.0096,9.9981,9.9135,9.748,9.5788,9.498,9.498,9.4057,9.321,9.2479,9.2402,9.1441,8.9825,8.8979,8.8132,8.7325,8.644,8.6094,8.6094,8.6094,8.6094,8.6094,8.6094,8.6094,8.6094,8.6094,8.6094,8.6094,8.6094,8.6094,8.6094,8.6094,8.6094,8.6094,8.6055,8.5478,8.5093,8.5786,8.5401,8.5055,8.5819,8.5395,8.4905,8.5049,8.4398,8.3932,8.4386,8.3931,8.3828,8.4687,8.4843,8.4609,8.3828,8.4968,8.5851,8.5847,8.6416,8.671,8.6505,8.6506,8.6387,8.611,8.6132,8.617,8.617,8.6962,8.7406,8.7406,8.8196,8.8251,8.7612,8.765,8.7361,8.6807,8.761,8.8402,8.3807,8.8738,9.3154,9.4964,9.6789,9.7942,9.7134,9.5595,9.321,8.921,8.4324,8.0131,7.8015,7.8323,8.0208,8.4247,8.9133,9.3595,9.7019,9.7326,9.6788,9.5749,9.4864,9.3787,9.2326,9.2903,9.3848,9.4945,9.6751,9.875,10.0904,10.1212,10.1289,10.1289,10.1289,10.0904,10.0096,9.8788,9.7942,9.748,9.5788,9.498,9.4941,9.348,9.2672,9.2441,9.1133,9.0325,8.9787,8.8325,8.7594,8.7325,8.644,8.6094,8.6094,8.6094,8.6094,8.6094,8.6094,8.6094,8.6094,8.6094,8.6094,8.6094,8.6094,8.6094,8.6094,8.6094,8.6094,8.5978,8.5363,8.5055,8.4786,8.4324,8.4093,8.4034,8.4364,8.4314,8.4028,8.366,8.2971,8.2572,8.2839,8.2733,8.2888,8.3594,8.4248,8.4795,8.5189,8.6144,8.6717,8.6558,8.6574,8.6565,8.648,8.6317,8.6168,8.6094,8.6709,8.7055,8.7055,8.7389,8.7577,8.7577,8.7306,8.7364,8.7763,8.8343,8.891,8.9397,9.0201,9.0664,8.9363,9.3018,9.5865,9.7096,9.725,9.648,9.4057,9.1595,8.8402,8.3285,7.8477,7.4745,7.3283,7.413,7.6361,8.0362,8.5632,9.071,9.4864,9.5903,9.6365,9.6788,9.6519,9.5595,9.3749,9.4672,9.5557,9.6057,9.698,9.8442,10.0712,10.1096,10.1289,10.1289,10.1289,10.0712,9.9519,9.7827,9.6788,9.6403,9.5057,9.4018,9.3287,9.1979,9.1171,9.0748,8.9402,8.8786,8.8709,8.7363,8.6824,8.6786,8.6286,8.6094,8.6094,8.6094,8.6094,8.6094,8.6094,8.5863,8.5555,8.5555,8.5555,8.5517,8.5132,8.5286,8.5478,8.5093,8.5517,8.5824,8.4632,8.4593,8.4719,8.3924,8.3736,8.3796,8.3973,8.4037,8.3961,8.376,8.3475,8.3306,8.3437,8.3354,8.3565,8.4298,8.4751,8.5267,8.6008,8.6545,8.6808,8.6671,8.6455,8.6317,8.6317,8.6184,8.6125,8.6162,8.666,8.6968,8.7034,8.7474,8.7672,8.7672,8.8029,8.8296,8.8457,8.9254,8.9719,8.9943,9.0733,9.1106,9.498,9.6634,9.7096,9.8327,9.6711,9.3864,9.0248,8.6632,8.2593,7.7515,7.3322,7.0552,7.0552,7.1475,7.3168,7.6207,8.0746,8.5747,9.0979,9.1902,9.348,9.7365,9.7326,9.6634,9.5749,9.6903,9.7711,9.7827,9.7634,9.8327,10.0173,10.0904,10.1289,10.1096,10.1019,10.0212,9.8634,9.6942,9.5749,9.498,9.4018,9.271,9.1171,9.021,8.9286,8.8479,8.7594,8.7209,8.7171,8.6401,8.6094,8.6094,8.6094,8.6094,8.6094,8.5978,8.6017,8.6055,8.5863,8.5401,8.4901,8.4901,8.4824,8.4593,8.3978,8.4209,8.4632,8.4093,8.4901,8.5593,8.4016,8.418,8.4558,8.376,8.3587,8.3702,8.399,8.41,8.4202,8.4412,8.4482,8.4569,8.4686,8.4531,8.4688,8.557,8.5556,8.57,8.6378,8.6494,8.6506,8.6455,8.6238,8.6094,8.6094,8.6103,8.6199,8.6303,8.6426,8.6632,8.6908,8.7634,8.8033,8.8146,8.9495,8.9881,8.9299,9.0117,9.021,8.9565,9.0408,9.0776,9.6442,9.8327,9.9173,9.8019,9.5826,9.2672,8.7863,8.3054,7.8169,7.3053,7.0321,6.8821,6.8821,7.0667,7.3937,7.9323,8.3285,8.7709,9.3518,9.5518,9.7211,9.9365,10.0096,10.0096,9.9288,9.8827,9.8865,9.9596,9.8327,9.8557,10.1019,10.1212,10.1019,10.0289,9.9596,9.875,9.775,9.6057,9.5134,9.498,9.3441,9.2172,9.1171,8.9594,8.844,8.7594,8.6709,8.6324,8.6324,8.617,8.6094,8.6094,8.6094,8.6094,8.6017,8.5363,8.5517,8.5901,8.4516,8.4401,8.4901,8.4901,8.4401,8.3939,8.4516,8.4286,8.4093,8.5324,8.5401,8.4901,8.3862,8.3838,8.3682,8.2196,8.198,8.2342,8.3259,8.3588,8.3702,8.3747,8.3076,8.272,8.3458,8.3393,8.3726,8.5103,8.5258,8.5462,8.61,8.6373,8.6403,8.62,8.6143,8.6094,8.6094,8.6221,8.6289,8.632,8.7085,8.784,8.8541,8.8869,8.9369,9.0011,8.972,8.9507,8.9371,9.018,9.0514,9.0408,9.1216,9.1583,9.8673,9.9788,9.9558,9.7403,9.3941,8.9517,8.3516,7.8554,7.3899,6.9244,6.7667,6.7244,6.7667,7.0167,7.3399,7.7169,8.0977,8.5401,9.0941,9.3172,9.5365,9.8404,9.9481,9.9673,9.8827,9.8788,9.8788,9.875,9.8788,9.9558,10.1212,10.0904,10.0289,9.9442,9.8596,9.7711,9.6865,9.5634,9.4557,9.3672,9.2402,9.1133,8.9863,8.8594,8.7555,8.6709,8.6286,8.6094,8.6094,8.6094,8.6094,8.6094,8.6094,8.5863,8.544,8.5055,8.5132,8.5286,8.4016,8.3862,8.4209,8.4209,8.3939,8.3516,8.3054,8.3555,8.4295,8.4315,8.5029,8.5341,8.3718,8.4012,8.4214,8.2209,8.1867,8.2166,8.2671,8.2847,8.289,8.2796,8.2336,8.2244,8.3025,8.3312,8.3878,8.5047,8.546,8.5775,8.6072,8.5923,8.5885,8.6094,8.6177,8.6202,8.6202,8.6345,8.6487,8.6555,8.7415,8.8097,8.8536,8.9086,8.9522,8.9928,8.9996,9.0041,9.0041,9.0849,9.1216,9.1253,9.2097,9.2464,9.9942,10.0404,9.9442,9.6711,9.1902,8.617,7.9708,7.4668,7.0321,6.6667,6.5897,6.6128,6.6936,6.9436,7.2052,7.413,7.7438,8.1631,8.7132,8.9479,9.2249,9.6442,9.8057,9.8519,9.7827,9.8211,9.8327,9.7827,9.9058,10.0212,10.1019,10.0289,9.9404,9.8557,9.7673,9.6865,9.6019,9.4788,9.3518,9.221,9.1171,8.9863,8.8402,8.7709,8.6901,8.6094,8.6094,8.6094,8.6094,8.6094,8.6094,8.6094,8.6094,8.5709,8.5132,8.4747,8.4863,8.4978,8.3747,8.3439,8.3571,8.3434,8.3249,8.2878,8.197,8.2832,8.4001,8.3251,8.4339,8.5314,8.3468,8.4007,8.4546,8.2546,8.2176,8.2304,8.2263,8.2222,8.2173,8.198,8.205,8.237,8.3062,8.3696,8.4352,8.5081,8.5581,8.5828,8.57,8.524,8.5176,8.5895,8.606,8.6203,8.6355,8.653,8.6769,8.7064,8.7669,8.822,8.8718,8.9344,8.9748,8.9931,9.0555,9.0959,9.1143,9.1767,9.217,9.2354,9.3051,9.3345,9.8519,9.9558,9.9288,9.5942,9.0133,8.3862,7.8592,7.2937,6.8205,6.6282,6.5897,6.6128,6.6936,6.8013,6.9821,7.3091,7.4553,7.763,8.4324,8.7363,9.0479,9.4711,9.7326,9.875,9.8673,9.8057,9.7904,9.8634,9.8827,9.9288,10.0173,9.9365,9.8519,9.7634,9.6826,9.598,9.5134,9.2749,9.1479,9.1287,8.971,8.844,8.7517,8.744,8.6901,8.6094,8.6094,8.6094,8.6094,8.6094,8.6094,8.6094,8.6094,8.6055,8.5824,8.4286,8.467,8.567,8.3247,8.2939,8.3503,8.2883,8.208,8.1616,8.3154,8.2753,8.205,8.363,8.3701,8.3273,8.3065,8.324,8.3284,8.2456,8.2304,8.2263,8.2062,8.2042,8.1976,8.1785,8.2164,8.2832,8.3689,8.4358,8.4895,8.5054,8.5146,8.4978,8.4443,8.4325,8.4603,8.5383,8.5485,8.5776,8.6531,8.6696,8.7094,8.786,8.8088,8.8827,9.0335,9.0445,9.0849,9.1583,9.1657,9.206,9.2868,9.2941,9.3345,9.4079,9.4153,9.4189,9.6403,9.8288,9.8365,9.448,8.8363,8.2131,7.7553,7.1898,6.7282,6.6128,6.5897,6.6013,6.632,6.7475,6.8846,7.0192,7.1552,7.4284,7.9592,8.1631,8.4901,9.1171,9.3287,9.5018,9.7096,9.698,9.7134,9.7942,9.7557,9.7673,9.8481,9.8211,9.7403,9.6019,9.5672,9.4595,9.271,9.171,9.071,8.9671,8.8479,8.7748,8.7363,8.6863,8.644,8.6094,8.6094,8.6094,8.6094,8.6094,8.5824,8.5401,8.5401,8.5055,8.4516,8.3862,8.4419,8.5341,8.3809,8.3914,8.4632,8.3806,8.295,8.2305,8.2524,8.2815,8.326,8.4208,8.4212,8.4,8.4115,8.3406,8.2646,8.2343,8.2219,8.2113,8.2039,8.1894,8.1895,8.2175,8.2455,8.2896,8.3759,8.4131,8.4384,8.4537,8.456,8.4656,8.4883,8.4576,8.4805,8.6125,8.5788,8.6013,8.7332,8.7576,8.7981,8.876,8.9336,8.9931,9.0592,9.1069,9.173,9.2574,9.2574,9.2978,9.3822,9.3822,9.3594,9.3147,9.3659,9.3474,9.271,9.5249,9.6095,9.2595,8.6401,8.0208,7.6476,7.1014,6.659,6.6013,6.5897,6.5897,6.5897,6.7051,6.809,6.8359,6.9629,7.1937,7.5976,7.7669,8.0785,8.694,8.9094,9.1325,9.448,9.5711,9.6519,9.7096,9.6634,9.6557,9.7096,9.6673,9.5942,9.5018,9.4249,9.3018,9.121,9.0441,8.9479,8.8286,8.744,8.7017,8.6978,8.6363,8.6094,8.6094,8.6094,8.6094,8.6094,8.6094,8.5786,8.5247,8.5247,8.4943,8.4434,8.4164,8.4752,8.5497,8.4383,8.466,8.5354,8.4589,8.3753,8.2994,8.2413,8.2851,8.3585,8.3841,8.3906,8.3953,8.41,8.3162,8.2219,8.2219,8.2059,8.1889,8.1844,8.189,8.2048,8.2444,8.275,8.3195,8.3791,8.3946,8.3983,8.3903,8.4102,8.4399,8.4758,8.4613,8.4941,8.6209,8.5807,8.6195,8.7932,8.8367,8.8725,8.9203,8.9969,9.0367,9.0243,9.1006,9.1733,9.2351,9.2351,9.2751,9.3514,9.3514,9.3179,9.2553,9.3135,9.2943,8.7017,8.9979,9.2133,9.0364,8.4209,7.7861,7.5284,7.0167,6.5897,6.5897,6.5897,6.5897,6.5897,6.6551,6.7398,6.8282,6.9129,7.0898,7.4245,7.6899,7.9438,8.2054,8.5363,8.844,9.1018,9.4326,9.6288,9.6326,9.6288,9.6288,9.6326,9.4672,9.4134,9.498,9.2556,9.1248,9.121,8.8709,8.744,8.7401,8.6517,8.6094,8.6094,8.6094,8.6094,8.6094,8.6094,8.6094,8.6094,8.6094,8.6094,8.6094,8.6094,8.623,8.6351,8.5512,8.5861,8.6544,8.4785,8.4754,8.5416,8.4795,8.4017,8.3337,8.3511,8.2834,8.2049,8.2262,8.2304,8.2304,8.2344,8.2168,8.1992,8.1992,8.1855,8.167,8.1447,8.2038,8.2509,8.234,8.3157,8.3882,8.39,8.4074,8.3979,8.3331,8.3897,8.416,8.3529,8.4095,8.478,8.5174,8.5204,8.6021,8.8026,8.894,8.9239,8.8819,8.9568,8.9827,8.9437,9.0089,9.0514,9.0514,9.0514,9.0903,9.1728,9.1728,9.2117,9.2908,9.2908,9.2896,8.0856,8.307,8.4358,8.283,7.8367,7.4003,7.2715,6.9243,6.62,6.6059,6.6018,6.6003,6.5909,6.6551,6.7398,6.8282,6.9129,7.0475,7.2668,7.5168,7.8361,8.267,8.8748,9.3133,9.4557,9.5672,9.6057,9.5441,9.5942,9.6057,9.5441,9.4326,9.3557,9.3287,9.1941,9.0364,8.8632,8.8402,8.7671,8.6517,8.6247,8.6094,8.6094,8.6094,8.6094,8.6094,8.6094,8.5786,8.5324,8.5863,8.5499,8.4661,8.5228,8.5638,8.5777,8.5505,8.572,8.6028,8.5482,8.5188,8.4971,8.4167,8.3741,8.3392,8.2851,8.2459,8.222,8.2265,8.2734,8.3007,8.2279,8.2053,8.1971,8.1837,8.2042,8.2294,8.2243,8.24,8.2751,8.3295,8.3295,8.3266,8.3388,8.3463,8.3489,8.3324,8.2898,8.286,8.3774,8.386,8.4094,8.4801,8.5791,8.6709,8.733,8.7586,8.8134,8.9146,8.9422,8.9743,9.016,9.0361,9.075,9.1327,9.1327,9.1717,9.2542,9.2542,9.2172,9.1565,9.071,9.0269,7.5601,7.7876,7.9158,7.8184,7.4955,7.1803,7.1012,6.8535,6.6354,6.6236,6.6135,6.6061,6.5997,6.6331,6.6898,6.7782,6.8629,6.9783,7.1475,7.4207,7.79,8.2978,8.894,9.2941,9.3787,9.4749,9.5095,9.4557,9.5018,9.5095,9.4518,9.3095,9.2056,9.1518,9.071,8.9325,8.7401,8.7594,8.7171,8.6094,8.6094,8.6094,8.6094,8.6094,8.6094,8.6094,8.6231,8.5983,0.0,8.6142,8.5822,8.5036,8.5579,8.5736,8.5604,8.5604,8.5546,8.5398,8.5085,8.4951,8.4765,8.3867,8.3594,8.3437,8.2454,8.2223,8.2265,8.2219,8.2567,8.283,8.2075,8.2071,8.2185,8.2055,8.2327,8.2616,8.2616,8.2644,8.2879,8.3411,8.327,8.304,8.3163,8.2874,8.2651,8.2776,8.232,8.2424,8.3717,8.3929,8.4176,8.4788,8.5726,8.6347,8.6551,8.7103,8.7821,8.8697,8.9001,8.9254,8.9568,8.9797,9.0229,9.0717,9.0717,9.0961,9.1464,9.1464,9.1039,9.025,8.9483,8.9072,0.0,7.4009,7.5724,7.5594,7.3264,7.0805,6.9893,6.8,0.0,6.6406,6.6268,6.6117,6.6119,6.6058,6.6269,6.7064,6.7936,6.9052,7.0667,7.4014,7.8169,8.3247,8.6824,8.9171,8.994,9.2249,9.3672,9.3633,9.3672,9.3633,9.3518,9.1287,8.994,8.9825,8.9017,8.8171,8.7325,8.6555,8.617,8.6094,8.6094,8.6094,8.6094,8.6049,8.6066,8.612,8.6326,8.6401,8.6347,8.6612,8.6669,8.6569,8.6607,8.6254,8.5746,8.5746,8.5327,8.4687,8.3867,8.4101,8.457,8.3789,8.3515,8.3318,8.229,8.2122,8.2223,8.2049,8.198,8.1953,8.1788,8.2194,8.2595,8.2585,8.2627,8.2698,8.2619,8.2793,8.2911,8.2911,8.3008,8.3103,8.3045,8.2288,8.1703,8.1665,8.2027,8.2567,8.3372,8.4105,8.4673,8.5035,8.5165,8.5357,8.5567,8.7096,8.7901,8.7665,8.8257,8.8483,8.8079,8.8734,8.9072,8.9072,8.9072,8.9072,8.9072,8.9072,8.9072,8.9072,8.8959,8.8959,6.7939,0.0,6.8831,6.9032,6.8405,6.7719,0.0,6.7164,6.6733,6.6599,6.6525,6.6402,6.6144,6.6641,6.7299,6.7975,6.8821,6.9744,7.0744,7.5515,8.0785,8.5901,8.894,9.071,9.0902,9.2595,9.3441,9.2826,9.3364,9.3133,9.1864,9.121,9.0325,8.9017,8.8132,8.7286,8.6401,8.6863,8.6748,8.6094,8.6094,8.6094,8.6055,8.5632,8.5771,8.6377,8.5911,8.5368,8.4794,8.5508,8.5149,8.4176,8.4873,8.5097,8.5112,8.5112,8.4607,8.3867,8.3672,8.3281,8.289,8.2656,8.249,8.2332,8.2078,8.2046,8.2046,8.1837,8.1753,8.1859,8.228,8.2499,8.2587,8.2625,8.3104,8.3434,8.2937,8.3012,8.3106,8.3106,8.2765,8.2173,8.1328,8.1455,8.1623,8.1417,8.1215,8.1583,8.294,8.299,8.3191,8.3841,8.4946,8.5175,8.3949,8.5364,8.6813,8.7803,8.8076,8.8354,8.8801,8.9004,8.9072,8.9072,8.9072,8.9072,8.9072,8.9072,8.9072,8.9072,8.7737,8.7143,6.6874,6.6779,6.6658,6.6738,6.6742,6.674,6.6743,6.6833,6.6874,6.6743,6.6993,6.7118,6.6834,6.7462,6.8081,6.8373,6.9129,7.0514,7.2899,7.7361,8.1862,8.5786,8.8132,8.9748,9.0517,9.1095,9.1364,9.1325,9.1364,9.1018,9.0094,8.9671,8.9056,8.8132,8.7248,8.6594,8.6094,8.6555,8.6555,8.6094,8.5822,8.5912,8.6274,8.565,8.5822,8.6591,8.593,8.539,8.4968,8.5151,8.4743,8.4079,8.4546,8.4562,8.4297,8.4297,8.375,8.3008,8.3008,8.2614,8.2171,8.2171,8.2046,8.1889,8.2199,8.2287,8.2186,8.1717,8.1835,8.2083,8.202,8.2586,8.3116,8.2817,8.318,8.3475,8.3096,8.2854,8.261,8.2123,8.1739,8.1233,8.0496,8.0554,8.0948,8.148,8.1228,8.1522,8.303,8.2405,8.2206,8.3275,8.3427,8.3374,8.3012,8.3887,8.4778,8.5571,8.5604,8.5934,8.6753,8.6786,8.6786,8.6786,8.6786,8.6786,8.6786,8.6786,8.6786,8.6726,8.5813,8.5382,6.6914,6.6914,6.6874,6.6687,6.6785,6.6873,6.6685,6.6865,6.7109,6.7109,6.7643,6.805,6.7858,6.8435,6.8867,6.8617,6.9552,7.1745,7.5976,7.9208,8.2054,8.4593,8.6363,8.7902,8.921,8.894,8.8979,8.9671,8.9094,8.8632,8.8517,8.7786,8.7325,8.7209,8.639,8.596,8.596,8.6076,8.6076,8.596,8.5604,8.5766,8.6332,8.5784,8.5961,8.66,8.5946,8.5605,8.5413,8.4917,8.4609,8.4492,8.4492,8.4062,8.3398,8.3398,8.2929,8.2263,8.222,8.2113,8.1967,8.1967,8.1831,8.1753,8.2417,8.2496,8.229,8.1749,8.2058,8.2463,8.1843,8.2713,8.3628,8.3085,8.3073,8.3132,8.2861,8.236,8.1647,8.055,8.0474,8.0388,7.9923,7.9889,8.0317,8.1409,8.1288,8.1589,8.2971,8.1802,8.1369,8.2655,8.1722,8.1408,8.2334,8.2525,8.246,8.2202,8.2717,8.3259,8.3963,8.3995,8.3995,8.3995,8.3995,8.3995,8.3995,8.3995,8.3995,8.3995,8.3737,8.3608,6.6914,6.6914,6.6875,6.6874,6.6874,6.6875,6.6874,6.746,6.8008,6.8008,6.8671,6.9122,6.8777,6.9395,6.9869,6.9541,7.1437,7.4399,7.8631,8.0285,8.2054,8.4593,8.6363,8.7209,8.6748,8.7902,8.8748,8.8863,8.8748,8.8363,8.7632,8.7478,8.7055,8.6324,8.5685,8.5333,8.5333,8.6081,8.6081,8.5333,8.6164,8.6251,8.5676,8.572,8.5824,8.5912,8.5296,8.4607,8.3943,8.3828,8.3359,8.2695,8.2695,8.2617,8.25,8.25,8.2295,8.2003,8.1855,8.1753,8.1771,8.1771,8.1618,8.1591,8.2387,8.2085,8.1632,8.2244,8.2512,8.2741,8.333,8.3275,8.306,8.3114,8.3163,8.2802,8.1328,8.091,8.0514,7.9458,7.9755,7.9846,7.8886,8.0223,8.1246,8.0557,8.0287,8.0498,8.1381,8.0477,8.011,8.1006,8.1913,8.2015,8.0795,8.1222,8.0984,7.9547,8.2203,8.3867,8.3995,8.3995,8.3995,8.3995,8.3995,8.3995,8.3995,8.3995,8.3995,8.3995,8.2524,8.1819,6.6914,6.6914,6.6914,6.6914,6.7265,6.7617,6.7617,6.8242,6.8827,6.8774,6.9433,6.994,6.9523,7.0529,7.1649,7.2288,7.4553,7.6861,7.8823,8.0631,8.2362,8.4016,8.5286,8.6247,8.6748,8.7094,8.7478,8.794,8.7555,8.7132,8.6709,8.6855,8.6496,8.5632,8.5467,8.5349,8.5349,8.5451,8.5209,8.4689,8.5315,8.5409,8.498,8.4717,8.4864,8.5257,8.4529,8.3984,8.3515,8.2578,8.2226,8.2265,8.1797,8.1832,8.2122,8.2,8.1904,8.1837,8.1718,8.1645,8.1534,8.1534,8.144,8.1491,8.2336,8.2416,8.2346,8.324,8.3126,8.2771,8.282,8.2948,8.2855,8.2007,8.1795,8.1428,8.0033,7.9765,7.9522,7.8848,7.9021,7.8865,7.7784,7.8707,7.9459,7.8903,7.9048,7.9626,8.0728,7.9692,7.9319,8.0387,8.0222,7.9933,7.9533,7.9798,7.9658,7.8861,8.03,8.1207,8.1207,8.1207,8.1207,8.1207,8.1207,8.1207,8.1207,8.1207,8.1207,8.1207,8.037,7.998,6.6914,6.6914,6.6914,6.6914,6.7578,6.8203,6.8203,6.8944,6.964,6.9577,7.0219,7.0693,7.0326,7.1626,7.316,7.448,7.6823,7.8707,7.9323,8.1246,8.2978,8.4055,8.4786,8.5709,8.6978,8.6478,8.6363,8.7055,8.6329,8.5892,8.5892,8.5939,8.5646,8.4975,8.4976,8.4971,8.4971,8.4585,8.4351,8.4309,8.4546,8.4558,8.4366,8.4057,8.414,8.457,8.3906,8.3476,8.3164,8.164,8.1483,8.2144,8.1284,8.1334,8.1894,8.1688,8.1645,8.1636,8.1582,8.1458,8.1324,8.1387,8.1349,8.1476,8.2382,8.2664,8.2837,8.3727,8.3168,8.2294,8.1909,8.2193,8.2213,8.0587,8.0255,7.9918,7.8862,7.8759,7.8624,7.772,7.7844,7.7745,7.6688,7.7183,7.7803,7.7933,7.8289,7.8905,7.9984,7.8984,7.8605,7.9619,7.874,7.825,7.8759,7.8789,7.8789,7.8789,7.8789,7.8789,7.8789,7.8789,7.8789,7.8789,7.8325,7.8077,7.8077,7.7534,7.7284,7.7284,7.7284,7.7372,6.6914,6.6914,6.6914,6.6914,6.7578,6.8203,6.8203,6.9358,7.0467,7.0583,7.1149,7.1577,7.142,7.2485,7.3696,7.4553,7.6823,7.9323,8.167,8.2862,8.4093,8.5747,8.5978,8.6055,8.617,8.6132,8.6132,8.6209,8.5622,8.5256,8.5256,8.4689,8.4324,8.4285,8.3732,8.3454,8.3454,8.3618,8.397,8.4551,8.4792,8.4452,8.371,8.4453,8.4414,8.3672,8.3633,8.3125,8.2304,8.1406,8.1395,8.1925,8.1063,8.1148,8.168,8.1512,8.1403,8.1407,8.1186,8.1116,8.1154,8.1268,8.1288,8.151,8.2543,8.247,8.2137,8.3051,8.2044,8.0905,8.1465,8.1214,8.0478,7.938,7.9103,7.8822,7.765,7.7979,7.7789,7.5271,7.5917,7.6592,7.5699,7.6752,7.7906,7.8431,7.8439,7.8381,7.8474,7.8133,7.7894,7.7984,7.8411,7.8729,7.8789,7.8789,7.8789,7.8789,7.8789,7.8789,7.8789,7.8789,7.8789,7.8789,7.6811,7.5855,7.5855,7.3915,7.2979,7.2979,7.2979,7.3206,6.6914,6.6914,6.6914,6.6914,6.793,6.8945,6.8945,7.0661,7.2167,7.1979,7.2199,7.2276,7.1975,7.3323,7.4681,7.539,7.8092,8.0439,8.14,8.2708,8.4016,8.5209,8.4863,8.4939,8.6017,8.5274,8.5187,8.6282,8.5258,8.4796,8.534,8.4784,8.4212,8.3666,8.3549,8.3503,8.3503,8.3006,8.3202,8.3971,8.4061,8.3633,8.2773,8.2578,8.2304,8.1953,8.1406,8.0933,8.0443,7.9582,7.9963,8.1,8.1112,8.131,8.1501,8.1298,8.0938,8.057,8.0496,8.024,8.002,8.0564,8.083,8.1082,8.2013,8.1726,8.1164,8.1489,8.0623,7.9806,8.073,8.0295,7.9302,7.8203,7.7949,7.7502,7.5884,7.5818,7.5739,7.4724,7.5256,7.5674,7.4791,7.5835,7.6494,7.5784,7.6319,7.6978,7.7304,7.7625,7.7981,7.837,7.746,7.6811,7.6811,7.5628,7.4839,7.4839,7.7358,7.8222,7.6885,7.6811,7.6184,7.4944,7.407,7.3654,7.3654,7.3182,7.2979,7.2979,7.3337,7.3641,6.6914,6.6914,6.6953,6.7226,6.8398,6.9492,6.9765,7.156,7.3141,7.2846,7.2762,7.2643,7.2391,7.3736,7.5168,7.5966,7.8667,8.0862,8.14,8.2477,8.3525,8.4458,8.4049,8.417,8.5366,8.4582,8.44,8.5292,8.4207,8.3662,8.3973,8.338,8.2771,8.2185,8.2573,8.2656,8.2383,8.2031,8.2031,8.2383,8.2383,8.2187,8.1875,8.0976,8.0546,8.0462,7.9876,7.9497,7.9291,7.8701,7.9196,8.0387,8.1035,8.1285,8.1246,8.0892,8.0499,8.0048,7.9888,7.9724,7.968,8.0292,8.0512,8.0681,8.1329,8.0818,8.0069,8.0069,7.9302,7.8541,7.8842,7.8675,7.8042,7.6508,7.6266,7.596,7.4196,7.4212,7.4312,7.3849,7.4446,7.4762,7.3905,7.4176,7.4262,7.3576,7.395,7.4429,7.5043,7.5685,7.6314,7.6781,7.5477,7.461,7.461,7.3292,7.2506,7.2506,7.5249,7.6184,7.4686,7.461,7.3965,7.2506,7.1955,7.1743,7.1743,7.1635,7.1601,7.1601,7.1893,7.2161,6.6914,6.6914,6.7109,6.7969,6.8867,6.9726,7.0508,7.1897,7.2981,7.3013,7.2748,7.258,7.2679,7.3801,7.5064,7.6138,7.8243,8.0377,8.2032,8.2262,8.267,8.3759,8.3873,8.3951,8.4168,8.4154,8.3843,8.2979,8.2335,8.1594,8.0731,8.0066,7.9687,7.9687,8.0547,8.0586,7.9726,8.0547,8.0547,7.9687,7.9687,8.0156,8.0976,8.0078,7.9561,7.9385,7.9385,7.932,7.9166,7.9112,7.9475,8.0147,8.0805,8.1093,8.0991,8.0333,8.0105,8.0027,7.9403,7.9741,8.0427,8.0634,8.0496,8.0312,8.0513,7.9842,7.8983,7.8983,7.8161,7.6957,7.5518,7.6223,7.6598,7.4157,7.4042,7.4065,7.2664,7.3507,7.3982,7.2419,7.32,7.3873,7.304,7.1776,7.1295,7.2459,7.1512,7.0931,7.1461,7.204,7.2506,7.2506,7.2506,7.2506,7.2506,7.2427,7.2427,7.2427,7.2427,7.2427,7.2506,7.2506,7.2427,7.2454,7.0929,7.0088,7.0088,6.8575,6.7819,6.7819,6.7819,6.8095,6.6914,6.6914,6.7109,6.7969,6.8867,6.9726,7.0508,7.199,7.3347,7.3813,7.4209,7.4278,7.3607,7.4383,7.5178,7.5337,7.7592,7.9292,7.9165,8.0174,8.1087,8.1387,8.1445,8.1899,8.3165,8.2364,8.2123,8.3098,8.1443,8.0539,8.089,8.0155,7.9687,7.9687,7.9961,7.9961,7.9687,7.9961,7.9961,7.9687,7.914,7.9297,8.0039,7.9084,7.8624,7.8519,7.7768,7.7338,7.7185,7.7635,7.8283,7.8994,7.9378,7.9891,8.0315,7.9723,7.9575,7.9667,7.9463,7.9183,7.8954,7.957,7.9213,7.8661,7.9287,7.87,7.7615,7.6606,7.5539,7.4372,7.2906,7.2802,7.2939,7.2249,7.2531,7.2737,7.1777,7.2557,7.3197,7.2159,7.194,7.1816,7.1557,7.069,7.0184,7.0548,7.0935,7.1512,7.2147,7.2395,7.2506,7.2506,7.1122,7.0258,7.0258,6.8913,6.8022,6.8022,6.8022,6.8847,7.0764,7.0791,7.0259,6.9238,6.8758,6.8514,6.8514,6.8423,6.8371,6.8396,6.8773,6.9049,6.6914,6.7148,6.7617,6.8476,6.9336,7.0273,7.1445,7.2731,7.4004,7.5098,7.5302,7.5128,7.4623,7.4957,7.537,7.5584,7.7274,7.8497,7.8241,7.9165,7.9905,7.9975,7.9987,8.044,8.1509,8.0839,8.0595,8.1334,8.0034,7.9297,7.9492,7.8984,7.8711,7.8711,7.9023,7.9062,7.8711,7.9062,7.9062,7.8711,7.812,7.8114,7.8582,7.796,7.7614,7.741,7.669,7.6477,7.6739,7.7502,7.8115,7.8705,7.917,7.953,7.9663,7.9058,7.8842,7.8816,7.8558,7.8277,7.8128,7.8593,7.8225,7.769,7.8188,7.7179,7.5641,7.481,7.3887,7.2777,7.1307,7.1136,7.1263,7.101,7.1452,7.1514,6.9943,7.0588,7.1058,6.9836,6.9661,6.9817,6.9971,6.9184,6.8601,6.9089,6.9267,6.9532,6.9905,6.9958,6.9958,6.9958,6.883,6.8022,6.8022,6.6831,6.6212,6.6438,6.6463,6.737,6.9437,6.9109,6.8502,6.7794,6.802,6.812,6.812,6.8673,6.8949,6.8949,6.93,6.9361,6.6914,6.7539,6.8398,6.9219,7.0117,7.125,7.293,7.3773,7.4705,7.6464,7.6063,7.5495,7.569,7.558,7.5715,7.6519,7.7312,7.8046,7.8563,7.8876,7.9091,7.9178,7.9268,7.9377,7.957,7.9609,7.9297,7.8555,7.8437,7.8047,7.7226,7.7187,7.7187,7.7187,7.7969,7.8008,7.7226,7.7968,7.7968,7.7187,7.699,7.6864,7.6852,7.6852,7.665,7.6266,7.6013,7.6393,7.7162,7.7923,7.8407,7.8751,7.953,7.96,7.9147,7.8427,7.8116,7.7943,7.7225,7.7332,7.7757,7.7601,7.7313,7.6947,7.6779,7.52,7.3412,7.3323,7.2639,7.1629,7.0196,7.0124,7.0341,6.985,7.0308,7.0188,6.7513,6.7885,6.8342,6.6607,6.7065,6.7934,6.8456,6.7445,6.6921,6.7943,6.6982,6.6112,6.6112,6.6112,6.6112,6.6112,6.6112,6.6137,6.6187,6.6187,6.6438,6.7015,6.7041,6.7518,6.8572,6.7668,6.7392,6.7945,6.8447,6.8698,6.8698,6.92,6.9361,6.9361,6.9361,6.9361,6.6914,6.7539,6.8398,6.9219,7.0586,7.1992,7.3047,7.3397,7.402,7.5777,7.6365,7.6579,7.6603,7.6591,7.6613,7.6808,7.769,7.8145,7.7625,7.818,7.8386,7.7769,7.8277,7.8708,7.875,7.875,7.8672,7.8515,7.7851,7.7383,7.7226,7.7187,7.7187,7.7187,7.7383,7.7383,7.7187,7.7247,7.7143,7.6948,7.676,7.6567,7.6438,7.6438,7.6295,7.6038,7.5529,7.5403,7.5615,7.6006,7.6537,7.7219,7.7539,7.8364,7.9257,7.7741,7.8005,7.896,7.7974,7.752,7.7198,7.6141,7.5155,7.419,7.3023,7.2323,7.1733,7.1112,6.9738,6.8181,6.7241,6.598,6.5227,6.598,6.7449,6.8026,6.6006,6.6879,6.8002,6.7562,6.7197,6.7028,6.7134,6.6321,6.5782,6.6467,6.6268,6.6112,6.6112,6.6112,6.6112,6.6112,6.6112,6.6287,6.6764,6.6789,6.7015,6.7593,6.7618,6.7919,6.8597,6.8396,6.8522,6.9074,6.92,6.9275,6.9275,6.9285,6.9361,6.9361,6.9361,6.9361,6.6914,6.7851,6.9101,7.0351,7.164,7.2734,7.3203,7.3633,7.4297,7.5625,7.6166,7.6542,7.6972,7.7052,7.7002,7.6926,7.7447,7.7694,7.7133,7.7536,7.7695,7.7265,7.7617,7.789,7.789,7.789,7.789,7.789,7.7461,7.7187,7.7187,7.7187,7.7187,7.7187,7.7187,7.7147,7.7054,7.6942,7.6856,7.6755,7.6537,7.633,7.6147,7.6147,7.5947,7.5551,7.5254,7.5152,7.5335,7.5874,7.639,7.6855,7.7302,7.7784,7.8134,7.7091,7.7177,7.774,7.717,7.6346,7.5391,7.4698,7.3587,7.2388,7.1605,7.0298,6.905,6.8875,6.7186,6.5409,6.5216,6.4903,6.4555,6.4246,6.5363,6.6159,6.4826,6.5538,6.6254,6.5575,6.5369,6.5394,6.5909,6.584,6.5785,6.6061,6.6112,6.6112,6.6112,6.6112,6.6112,6.6112,6.6112,6.6338,6.6915,6.6965,6.7317,6.8145,6.8196,6.8447,6.8999,6.9024,6.915,6.9336,6.9361,6.9361,6.9361,6.9361,6.9361,6.9361,6.9361,6.9361,6.6914,6.8164,6.9883,7.1562,7.2539,7.3086,7.3086,7.3633,7.4453,7.5469,7.5781,7.6172,7.7031,7.7187,7.7146,7.699,7.7099,7.7145,7.699,7.71,7.7187,7.7187,7.7187,7.7187,7.7187,7.7187,7.7187,7.7187,7.7187,7.7187,7.7187,7.7187,7.7187,7.7146,7.7146,7.7052,7.6852,7.6795,7.6727,7.6529,7.6239,7.5992,7.5833,7.5756,7.5463,7.5091,7.4886,7.4985,7.5396,7.5914,7.6315,7.6633,7.7228,7.721,7.6805,7.6544,7.639,7.6235,7.5839,7.4742,7.3548,7.3018,7.1982,7.0893,7.0329,6.8347,6.6295,6.6542,6.488,6.3164,6.3876,6.459,6.4748,6.337,6.3777,6.4412,6.377,6.4221,6.4375,6.3199,6.3525,6.4279,6.5258,6.581,6.6112,6.6112,6.6112,6.6112,6.6112,6.6112,6.6137,6.6237,6.6262,6.6538,6.7216,6.7267,6.7693,6.8698,6.8773,6.8974,6.9336,6.9361,6.9361,6.9361,6.9361,6.9361,6.9361,6.9361,6.9361,6.9361,6.9361,6.9361,6.6914,6.8125,6.9844,7.1562,7.2109,7.2187,7.2187,7.2265,7.2812,7.4453,7.5351,7.6172,7.7031,7.7187,7.7187,7.7147,7.7187,7.7187,7.7147,7.7187,7.7187,7.7187,7.7187,7.7187,7.7187,7.7187,7.7187,7.7187,7.7187,7.7187,7.7187,7.7187,7.7104,7.6939,7.6936,7.6847,7.6624,7.6484,7.6351,7.6309,7.5595,7.5251,7.518,7.473,7.4749,7.5054,7.4056,7.4063,7.4684,7.4079,7.4264,7.4974,7.5512,7.6138,7.6618,7.6301,7.6591,7.6854,7.4679,7.3772,7.3173,7.0616,6.9631,6.8965,6.6085,6.524,6.5109,6.415,6.2812,6.194,6.3028,6.2194,6.1217,6.1995,6.2332,6.2386,6.2324,6.3103,6.3805,6.3633,6.4379,6.5283,6.5886,6.6061,6.6112,6.6112,6.6112,6.6112,6.6112,6.6112,6.6312,6.6815,6.6865,6.7267,6.8321,6.8396,6.8673,6.93,6.9235,6.9376,6.9361,6.9361,6.9361,6.9361,6.9361,6.9361,6.9361,6.9361,6.9361,6.9361,6.9361,6.9361,6.75,6.8515,6.9687,7.0976,7.164,7.1992,7.1992,7.1992,7.2344,7.3594,7.418,7.5,7.6875,7.7187,7.7187,7.7187,7.7187,7.7187,7.7187,7.7187,7.7187,7.7187,7.7187,7.7187,7.7187,7.7187,7.7187,7.7187,7.7187,7.7146,7.7048,7.7046,7.6936,7.6738,7.6732,7.6657,7.6438,7.632,7.6094,7.5595,7.5264,7.4961,7.4612,7.4072,7.3897,7.4124,7.3626,7.3616,7.3909,7.3555,7.3823,7.4474,7.4967,7.537,7.5624,7.4944,7.493,7.4959,7.3004,7.1821,7.0751,6.8434,6.7095,6.5991,6.3513,6.2414,6.2027,6.1885,6.0875,6.0171,6.1275,6.0201,5.9049,5.9829,5.9308,5.8648,5.8847,6.0339,6.1353,6.064,6.1151,6.1741,6.1953,6.2001,6.2001,6.2001,6.2001,6.2001,6.2001,6.2001,6.219,6.2709,6.278,6.3772,6.6239,6.51,6.5799,6.922,6.8105,6.7898,6.9361,6.9361,6.9361,6.9361,6.9361,6.9361,6.9361,6.9361,6.9361,6.9361,6.9361,6.9361,6.7969,6.8633,6.9336,7.043,7.1172,7.1719,7.1953,7.1992,7.2265,7.3125,7.3281,7.3945,7.6133,7.6719,7.6875,7.6875,7.6875,7.6953,7.7187,7.6992,7.6953,7.7187,7.7187,7.7187,7.7187,7.7187,7.7187,7.7145,7.7105,7.7048,7.6843,7.6834,7.6732,7.6513,7.6505,7.6429,7.6231,7.6069,7.5592,7.4786,7.4733,7.4468,7.4049,7.319,7.2832,7.2832,7.2832,7.2959,7.3086,7.2791,7.3045,7.3667,7.3938,7.4056,7.3957,7.3276,7.305,7.2861,7.1333,6.9797,6.8201,6.6519,6.4901,6.3309,6.1654,6.0564,6.0,6.0096,5.9185,5.8455,5.937,5.8329,5.7158,5.7673,5.6908,5.6192,5.6597,5.8209,5.9278,5.8368,5.8567,5.8814,5.8814,5.8814,5.8814,5.8814,5.8814,5.8814,5.8814,5.8926,5.908,5.9572,5.9729,6.0903,6.3806,6.2256,6.2888,6.7207,6.5701,6.5491,6.7323,6.7415,6.7415,6.7415,6.7415,6.8105,6.9361,6.9361,6.9361,6.9361,6.9361,6.9361,6.7969,6.8242,6.8633,7.0273,7.0742,7.0976,7.1797,7.1992,7.2265,7.3125,7.3281,7.3594,7.457,7.539,7.5976,7.5976,7.5976,7.625,7.707,7.6484,7.6289,7.7109,7.7187,7.7187,7.7187,7.7187,7.7105,7.6936,7.6929,7.6843,7.665,7.6636,7.6505,7.6327,7.6327,7.6219,7.6005,7.5463,7.4763,7.3967,7.3613,7.3454,7.3417,7.1888,7.1219,7.1219,7.1219,7.1661,7.2263,7.1096,7.1116,7.1808,7.1607,7.1507,7.1474,7.1519,7.1497,7.1278,6.9802,6.817,6.6398,6.4896,6.3187,6.1504,6.0171,6.0143,6.0341,5.916,5.7957,5.7152,5.7652,5.6489,5.5293,5.5786,5.6192,5.6597,5.7089,5.7671,5.8255,5.8679,5.8791,5.8814,5.8814,5.8814,5.8814,5.8814,5.8814,5.8814,5.8814,5.9125,5.9595,6.0203,6.0557,6.1144,6.1755,6.1704,6.18,6.2111,6.1941,6.1941,6.2133,6.2133,6.2133,6.2133,6.2133,6.4531,6.9361,6.9361,6.9361,6.9361,6.9361,6.9361,6.7265,6.7773,6.8359,6.8945,6.9883,7.0781,7.1094,7.1601,7.2109,7.2383,7.2461,7.2578,7.2851,7.457,7.5898,7.5898,7.5898,7.6015,7.6328,7.6094,7.6015,7.6328,7.6875,7.6912,7.6228,7.6185,7.5843,7.5101,7.5558,7.5793,7.5566,7.6099,7.6316,7.6108,7.6108,7.589,7.543,7.5219,7.4579,7.3575,7.3465,7.2849,7.1918,7.1345,7.0767,7.0126,6.8663,6.893,7.0435,7.0475,7.0062,6.9535,7.0795,7.0757,7.0046,6.9999,6.9219,6.8048,6.6577,6.4867,6.3073,6.1366,6.0401,5.9638,5.8378,5.8411,5.8602,5.7311,5.6957,5.6806,5.6084,5.4381,5.2549,5.1936,5.2333,5.2909,5.3073,5.3464,5.3834,5.3978,5.4019,5.4019,5.4019,5.4019,5.4019,5.4019,5.4019,5.4019,5.4019,5.441,5.4862,5.5411,5.5766,5.691,5.9104,5.7708,5.8183,6.146,6.02,6.0006,6.1653,6.1749,6.1749,6.1749,6.1749,6.2612,6.4437,6.4437,6.4437,6.4437,6.4437,6.4437,6.6914,6.7305,6.7812,6.8125,6.9023,7.0,7.0586,7.1133,7.164,7.1953,7.1992,7.1992,7.1992,7.3906,7.5351,7.5078,7.5039,7.5117,7.543,7.5195,7.5156,7.543,7.5935,7.596,7.5215,7.51,7.475,7.3986,7.4739,7.51,7.492,7.5719,7.6069,7.5718,7.5518,7.5104,7.4391,7.448,7.3831,7.2473,7.2593,7.1911,7.0635,7.0297,6.9813,6.9095,6.7052,6.7125,6.8692,6.8693,6.8202,6.7606,6.9251,6.9329,6.8468,6.7801,6.6792,6.5532,6.3938,6.2197,6.0538,5.9322,5.8638,5.7996,5.6626,5.6594,5.6773,5.5527,5.504,5.4697,5.4035,5.2326,5.0671,4.9925,5.0293,5.084,5.0976,5.123,5.1426,5.1426,5.1426,5.1426,5.1426,5.1426,5.1426,5.1426,5.1562,5.1641,5.1641,5.2148,5.2617,5.2891,5.332,5.438,5.6432,5.5001,5.5487,5.8852,5.7509,5.731,5.9048,5.9147,5.9147,5.9147,5.9147,5.9147,5.9147,6.088,6.1749,6.1749,6.1749,6.1267,0.0,0.0,0.0,6.7969,6.8164,6.8633,7.0273,7.0664,7.0937,7.1797,7.1992,7.1992,7.1992,7.3359,7.4258,7.3398,7.3281,7.3594,7.4414,7.3828,7.3593,7.4453,7.4388,7.4265,7.4265,7.4077,7.39,7.3721,7.4474,7.4881,7.4668,7.5485,7.5686,7.5091,7.4588,7.3856,7.2984,7.3239,7.2447,7.0666,7.0936,7.0568,6.9637,6.861,6.8111,6.8029,6.6445,6.6311,6.706,6.5705,6.5514,6.6141,6.6792,6.6987,6.6744,6.4927,6.4217,6.3894,6.2131,6.0333,5.8833,5.8833,5.7924,5.6576,5.5068,5.4948,5.501,5.3829,5.226,5.1019,5.1324,5.0479,4.9648,5.0098,5.0527,5.0937,5.1348,5.1426,5.1426,5.1426,5.1426,5.1426,5.1426,5.1426,5.1445,5.1445,5.1816,5.209,5.2109,5.2832,5.3359,5.3359,5.3769,5.4023,5.4023,5.4023,5.4023,5.4023,5.4023,5.4023,5.4023,5.4023,5.4023,5.4023,5.4023,5.4023,5.4023,5.9048,6.146,6.146,6.146,6.0103,6.6914,0.0,0.0,0.0,0.0,0.0,6.8789,6.9844,7.0781,7.1015,7.1562,7.1951,7.1809,7.2193,7.2408,7.2057,7.313,7.3852,7.3388,7.31,7.3023,7.3256,7.3771,7.3821,7.3052,7.2935,7.2597,7.1775,7.3086,7.3692,7.3199,7.4181,7.469,7.4547,7.4379,7.3718,7.243,7.241,7.1602,7.0113,7.0071,6.9566,6.8572,6.7347,6.6482,6.5711,6.387,6.3507,6.4252,6.5382,6.5635,6.5312,6.5167,6.4845,6.4191,6.281,6.1528,6.0333,5.9851,5.8437,5.6968,5.6968,5.588,5.4592,5.458,5.3822,5.28,5.1872,5.131,5.0726,5.0205,5.0018,5.0098,5.0527,5.0957,5.1289,5.1406,5.1426,5.1426,5.1426,5.1426,5.1426,5.1426,5.1426,5.1543,5.1855,5.2012,5.2187,5.25,5.3027,5.3359,5.3359,5.3769,5.4023,5.4023,5.4023,5.4023,5.4023,5.4023,5.4023,5.4023,5.4023,5.4023,5.4023,5.4023,5.4023,5.4023,5.5487,5.6151,5.6151,5.6151,5.5769,0.0,6.6785,6.6743,6.6722,0.0,0.0,6.7925,6.9018,7.0033,7.0423,7.1165,7.1774,7.1633,7.1897,7.2006,7.1466,7.2599,7.3244,7.2386,7.2263,7.2263,7.2263,7.2586,7.2604,7.2016,7.1861,7.1555,7.095,7.2279,7.3182,7.3307,7.3722,7.3911,7.3911,7.3675,7.2829,7.1287,7.1531,7.0645,6.8712,6.8962,6.827,6.6792,6.606,6.5304,6.4453,6.3009,6.2827,6.3455,6.3687,6.3645,6.3434,6.3505,6.2952,6.2041,6.0904,5.9782,5.8692,5.7031,5.5776,5.472,5.3876,5.3194,5.2663,5.207,5.1582,5.1032,4.9857,4.9956,5.0226,4.9689,4.998,5.0508,5.0742,5.1133,5.1426,5.1426,5.1426,5.1426,5.1426,5.1426,5.1426,5.1426,5.1426,5.1582,5.2012,5.2226,5.25,5.293,5.3359,5.3633,5.3633,5.3867,5.4023,5.4023,5.4023,5.4023,5.4023,5.4023,5.4023,5.4023,5.4023,5.4023,5.4023,5.4023,5.4023,5.4023,5.4023,5.4023,5.4023,5.4023,5.4023,0.0,0.0,0.0,6.6696,6.662,0.0,6.7522,6.8261,6.9001,6.9747,7.0674,7.1361,7.134,7.204,7.2283,7.1337,7.1799,7.2124,7.1505,7.142,7.142,7.142,7.128,7.112,7.1087,7.0902,7.0777,7.0734,7.1668,7.2813,7.4001,7.3404,7.3075,7.3149,7.2528,7.1429,6.9877,7.0469,6.9562,6.708,6.7575,6.6826,6.5,6.4695,6.4345,6.3843,6.3006,6.2964,6.336,6.1204,6.0786,6.1451,6.1651,6.1192,6.0277,5.9067,5.8578,5.8056,5.4424,5.31,5.2798,5.0753,5.0545,5.066,4.8768,4.8985,4.9547,4.8107,4.8555,4.9438,4.9195,5.0005,5.0609,5.0069,5.0455,5.0822,5.0608,5.051,5.051,5.051,5.1017,5.1426,5.1426,5.1465,5.1641,5.209,5.2519,5.293,5.3379,5.3789,5.4023,5.4023,5.4023,5.4023,5.4023,5.4023,5.4023,5.4023,5.4023,5.4023,5.4023,5.4023,5.4023,5.4023,5.4023,5.4023,5.4023,5.4023,5.4023,5.4023,5.4023,5.4023,6.8688,6.8573,6.843,6.8436,6.7891,0.0,6.7587,6.7788,6.7989,6.8151,6.9396,7.0392,7.0252,7.0913,7.1405,7.1017,7.1082,7.1185,7.1055,7.1016,7.1016,7.1016,7.0966,7.0769,7.0348,7.0276,7.0078,6.9645,7.0009,7.0943,7.2531,7.1304,7.0908,7.1526,7.0698,6.977,6.8816,6.8746,6.8189,6.7038,6.6036,6.5614,6.5653,6.3542,6.2817,6.3089,6.1062,6.0268,6.0296,5.951,6.0294,6.1833,5.9155,5.8547,5.9024,5.7323,5.675,5.6362,5.3927,5.31,5.2769,5.1061,4.9694,4.8707,4.8672,4.8168,4.7603,4.7961,4.8789,4.9121,4.728,4.8726,4.9779,4.5778,4.6498,4.7582,4.5352,4.4832,4.4832,4.4832,4.8373,5.1426,5.1426,5.1719,5.2109,5.2519,5.2949,5.3398,5.3848,5.3965,5.4023,5.4023,5.4023,5.4023,5.4023,5.4023,5.4023,5.4023,5.4023,5.4023,5.4023,5.4023,5.4023,5.4023,5.4023,5.4023,5.4023,5.4023,5.4023,5.4023,5.4023,5.4023,6.9085,6.891,6.8718,6.8675,6.8297,0.0,0.0,6.7697,6.7929,6.7474,6.8186,6.9007,6.9322,6.9529,6.9758,7.0052,7.0095,7.0095,7.0095,7.0578,7.0791,7.0524,7.0494,7.0298,6.9757,6.9701,6.9643,6.9535,6.9558,7.0022,7.1019,7.0256,7.0007,7.0364,6.9954,6.8783,6.6872,6.7128,6.6282,6.4433,6.444,6.4254,6.393,6.2953,6.2058,6.1174,6.0034,5.9222,5.8677,5.7888,5.8402,5.9566,5.8091,5.7538,5.7421,5.6558,5.5509,5.4348,5.2242,5.0999,4.9996,4.8124,4.7217,4.6929,4.7152,4.724,4.7153,4.6758,4.7065,4.7078,4.471,4.5487,4.6288,4.3842,4.4329,4.4933,4.3622,4.3318,4.3318,4.3318,4.5552,4.7365,4.7365,5.0049,5.1812,5.088,5.2243,5.3516,5.3965,5.4023,5.4023,5.4023,5.4023,5.4023,5.4023,5.4023,5.4023,5.4023,5.4023,5.4023,5.4023,5.4023,5.4023,5.4023,5.4023,5.4023,5.4023,5.4023,5.4023,5.4023,5.4023,5.4023,6.9415,6.9204,6.901,6.8925,6.8783,6.8475,0.0,0.0,0.0,6.733,6.7447,6.788,6.8548,6.847,6.8502,6.8973,6.9199,6.9121,6.8662,6.9482,7.0025,6.9742,6.986,6.9662,6.8984,6.8806,6.8846,6.9063,6.8798,6.885,6.9357,6.9137,6.9104,6.9386,6.8986,6.7623,6.5169,6.5487,6.4475,6.2093,6.3128,6.2946,6.1757,6.2112,6.1204,5.9162,5.886,5.8339,5.7587,5.6438,5.6327,5.6807,5.7277,5.6693,5.5582,5.5582,5.4274,5.2166,5.0142,4.8583,4.7193,4.5123,4.5098,4.582,4.5996,4.6385,4.661,4.5348,4.5006,4.4439,4.2048,4.2111,4.2672,4.1917,4.2099,4.2404,4.1895,4.169,4.169,4.169,4.2201,4.2709,4.3217,4.7343,5.0041,4.8196,5.0216,5.203,5.2268,5.2306,5.2531,5.3166,5.2737,5.2858,5.3921,5.3493,5.339,5.3921,5.4023,5.4023,5.4023,5.4023,5.4023,5.4023,5.4023,5.4023,5.4023,5.4023,5.4023,5.4023,5.4023,5.4023,7.098,7.0788,7.0631,7.0643,7.009,6.9513,6.9436,0.0,6.7665,6.755,0.0,6.7995,6.8071,0.0,0.0,6.8314,6.8822,6.8566,6.6394,6.6849,6.7589,6.826,6.8959,6.8888,6.7628,6.7016,6.6722,6.6743,6.5985,6.6114,6.7541,6.6808,6.6951,6.8347,6.6466,6.5293,6.4928,6.3901,6.3195,6.2876,6.2437,6.1682,6.0676,6.0148,5.9251,5.8083,5.6526,5.6119,5.6398,5.5278,5.5143,5.5577,5.5627,5.4768,5.3477,5.3477,5.2166,5.0064,4.7884,4.7322,4.7235,4.546,4.5527,4.6367,4.7129,4.5872,4.425,4.488,4.3652,4.1702,3.9297,4.0727,4.1766,3.7164,3.795,3.9063,3.6621,3.6111,3.6111,3.6111,3.8054,4.0492,4.2913,4.4392,4.517,4.491,4.5704,4.6386,4.6419,4.6436,4.7387,4.9936,4.7913,4.8456,5.3595,5.165,5.1322,5.3819,5.4023,5.4023,5.4023,5.4023,5.4023,5.4023,5.4023,5.4023,5.4023,5.4023,5.4023,5.4023,5.4023,5.4023,7.1252,7.1038,7.0898,7.0898,7.0667,7.019,6.9344,6.8722,6.8088,6.7313,0.0,0.0,0.0,0.0,0.0,0.0,6.657,6.5816,6.4782,6.4015,6.4033,6.531,6.6148,6.6465,6.6025,6.574,6.5586,6.5586,6.5121,6.5017,6.5362,6.4964,6.4832,6.5161,6.4303,6.3449,6.265,6.2144,6.0978,5.9334,5.9797,5.927,5.7994,5.8414,5.7854,5.644,5.5748,5.4438,5.2998,5.2835,5.2354,5.1793,5.2099,5.2608,5.2949,5.1785,5.0009,4.8064,4.7187,4.6475,4.5817,4.4155,4.382,4.4071,4.3395,4.2504,4.1434,4.0766,3.9915,3.8697,3.6477,3.6909,3.7432,3.5595,3.6111,3.6621,3.5401,3.5191,3.5191,3.5191,3.6111,3.7235,3.8456,4.1864,4.3871,4.2215,4.4069,4.5464,4.5464,4.5464,4.5995,4.7159,4.6208,4.6436,4.8893,4.7913,4.7808,4.8997,4.9102,4.9832,5.1444,5.1547,5.2287,5.3921,5.4023,5.4023,5.4023,5.4023,5.4023,5.4023,5.4023,5.4023,7.1528,7.1209,7.0909,7.1003,7.0858,7.0371,6.9209,6.8979,6.8773,6.781,6.7158,0.0,0.0,0.0,6.5484,6.5669,0.0,6.3189,6.2534,6.1016,6.0634,6.2378,6.2923,6.3403,6.3972,6.3799,6.3657,6.3657,6.333,6.3079,6.2899,6.298,6.2912,6.2732,6.2133,6.1352,6.0362,5.9599,5.8178,5.6108,5.7274,5.7033,5.5558,5.6759,5.6049,5.3926,5.3926,5.2456,5.0086,5.046,5.0076,4.9317,4.9229,5.0064,5.1148,4.9674,4.7804,4.6022,4.6022,4.5134,4.3832,4.2919,4.2174,4.1398,4.041,3.9597,3.8798,3.7605,3.682,3.5891,3.466,3.4322,3.4469,3.5057,3.5191,3.5191,3.5191,3.5191,3.5191,3.5191,3.5191,3.5191,3.5191,3.9088,4.1494,3.9407,4.1423,4.3127,4.3127,4.3127,4.345,4.42,4.3664,4.3772,4.5358,4.4735,4.4612,4.5464,4.5464,4.6419,4.8438,4.8543,4.952,5.1669,5.1669,5.1669,5.1669,5.1669,5.1669,5.1669,5.3269,5.4023,7.2212,7.1566,7.0969,7.1298,7.0739,6.9971,6.9415,6.9475,6.9676,6.9615,6.9207,6.8558,6.7728,0.0,0.0,0.0,0.0,0.0,0.0,5.7816,5.7867,5.9804,5.9624,5.9922,6.1375,6.0772,6.0258,6.0258,5.9491,5.9312,5.9987,6.0633,6.1338,6.1996,5.9952,5.8841,5.8787,5.6023,5.4564,5.4473,5.569,5.5379,5.373,5.4957,5.3521,5.0174,5.0174,4.9593,4.8561,4.8583,4.9166,4.973,4.7826,4.7027,4.7006,4.6947,4.5596,4.3774,4.3774,4.2791,4.1593,4.2369,4.0988,3.9217,3.9945,3.8371,3.6445,3.7102,3.5451,3.3648,3.4162,3.4322,3.4469,3.5057,3.5191,3.5191,3.5191,3.5191,3.5191,3.5191,3.5191,3.5191,3.5191,3.5885,3.6396,3.6288,3.6786,3.7162,3.7162,3.7162,3.8225,4.0996,3.887,3.939,4.5039,4.2912,4.2497,4.5358,4.5464,4.5571,4.5571,4.5571,4.5694,4.58,4.5783,4.5783,4.5783,4.5783,4.5783,4.5889,5.1462,5.4023,7.264,7.2259,7.1952,7.1693,7.1367,7.1038,7.0496,6.9967,6.9479,6.9247,6.8029,6.7002,6.6843,0.0,0.0,0.0,0.0,0.0,0.0,5.3419,5.1804,5.2546,5.4661,5.6268,5.6664,5.6965,5.7095,5.7095,5.6861,5.6638,5.6524,5.6526,5.6496,5.6406,5.6048,5.5851,5.5851,5.489,5.385,5.2849,5.3967,5.2945,5.0136,5.1314,5.0601,4.8502,4.8502,4.7857,4.6862,4.6862,4.6458,4.5758,4.5047,4.386,4.2665,4.4209,4.433,4.3521,4.2528,4.08,3.8923,3.8019,3.7252,3.6374,3.5464,3.4528,3.3893,3.4603,3.4086,3.3547,3.4162,3.4322,3.4469,3.5057,3.5191,3.5191,3.5191,3.5191,3.5191,3.5191,3.5191,3.5191,3.5191,3.5525,3.5845,3.6046,3.658,3.6941,3.6941,3.6941,3.7246,3.8225,3.7467,3.7674,3.9608,3.887,3.8746,3.9732,3.9813,4.0685,4.2604,4.2697,4.3557,4.5464,4.5464,4.5464,4.5464,4.5464,4.5464,4.5571,4.7492,4.8351,7.2886,7.251,7.2243,7.1949,7.1644,7.1298,7.0747,7.0374,6.9961,6.9376,6.8074,6.6883,6.6352,6.4533,0.0,0.0,0.0,0.0,0.0,4.9776,4.7875,4.7055,5.0239,5.2881,5.3727,5.3684,5.38,5.4346,5.3849,5.3416,5.3085,5.3271,5.3304,5.3146,5.2577,5.2379,5.2532,5.1371,5.0282,4.9446,5.0306,4.9621,4.7562,4.847,4.8105,4.6645,4.6645,4.5988,4.4923,4.408,4.3203,4.2409,4.1556,4.0343,3.931,4.1639,4.1974,4.1145,4.04,3.8628,3.6427,3.5576,3.4686,3.3799,3.2939,3.2643,3.2666,3.3253,3.3414,3.3534,3.4028,3.4242,3.4442,3.4923,3.5124,3.5191,3.5191,3.5191,3.5191,3.5191,3.5191,3.5191,3.5191,3.5431,3.5698,3.5885,3.6393,3.6794,3.6794,3.6861,3.6941,3.6941,3.6941,3.6941,3.6941,3.6941,3.6941,3.6941,3.6941,3.7687,3.9594,3.9718,4.0702,4.3017,4.2635,4.2619,4.3127,4.2619,4.2497,4.2497,4.2497,4.2497]}]]